     2.10           OBSERVATION DATA    G (GPS)             RINEX VERSION / TYPE
teqc 2002Mar14 SOPAC 20050725 22:54:58UTC                   PGM / RUN BY / DATE
Linux 2.0.36|Pentium II|gcc -static|Linux|486/DX+           COMMENT
BIT 2 OF LLI FLAGS DATA COLLECTED UNDER A/S CONDITION       COMMENT
HPGN CA 02 26                                               MARKER NAME
0226                                                        MARKER NUMBER
Dave Mahan                                                  OBSERVER / AGENCY
0220160678 TRIMBLE 4700 1.30                                REC # / TYPE / VERS
0220159802 TRM33429.00+GP NONE                              ANT # / TYPE
 -2437640.0000 -4223067.0000  4099567.0000                  APPROX POSITION XYZ
        2.0000        0.0000        0.0000                  ANTENNA: DELTA H/E/N
     1     1                                                WAVELENGTH FACT L1/2
     6    L1    L2    C1    P2    P1    D1                  # / TYPES OF OBSERV
    15.0000                                                 INTERVAL
Northern California Height Modernization 2004               COMMENT
                                                            COMMENT
SOPAC - Scripps Orbit and Permanent Array Center            COMMENT
IGPP - Institute of Geophysics and Planetary Physics        COMMENT
SIO - Scripps Institution of Oceanography                   COMMENT
UCSD - University of California, San Diego                  COMMENT
                                                            COMMENT
email: archive@gpsmail.ucsd.edu                             COMMENT
ftp://garner.ucsd.edu                                       COMMENT
http://sopac.ucsd.edu                                       COMMENT
                                                            COMMENT
                                                            COMMENT
Approximate Lat, Lon : 40.245, -119.994                     COMMENT
                                                            COMMENT
SNR is mapped to RINEX snr flag value [1-9]                 COMMENT
L1: 3 -> 1; 8 -> 5; 40 -> 9                                 COMMENT
L2: 1 -> 1; 5 -> 5; 60 -> 9                                 COMMENT
  2004     9    16    20    45   45.0000000     GPS         TIME OF FIRST OBS
                                                            END OF HEADER
 04  9 16 20 45 45.0000000  0  6G 3G 8G13G19G23G27
    -15249.51159    -11846.35557  22673632.7584   22673629.5744
       836.1414
    -51452.65059    -28508.84657  22511346.2034   22511342.2234
      2682.7664
      -876.72059     -4706.88758  20063409.2814   20063403.5704
        47.0314
    -51883.91659    -28711.72957  23413034.2194   23413030.4344
      2704.1254
     42292.59259     16693.23558  21561726.3204   21561719.9224
     -2320.2504
    -27704.96859    -18922.13358  21250857.8054   21250852.9384
      1493.0944
 04  9 16 20 46  0.0000000  0  6G 3G 8G13G19G23G27
    -27795.46049    -21622.41947  22671245.1724   22671242.1994
       836.4694
    -91747.81849    -59907.65847  22503678.1094   22503674.0084
      2689.6884
     -1595.74949     -5267.16848  20063272.1954   20063266.7544
        48.6414
    -92486.22949    -60349.83147  23405308.0234   23405304.1914
      2709.2664
     77068.06349     43790.98148  21568343.8834   21568337.3594
     -2316.6874
    -50153.09749    -36414.17248  21246586.0634   21246581.5164
      1499.8444
 04  9 16 20 46 15.0000000  0  6G 3G 8G13G19G23G27
    -40345.21149    -31401.42647  22668857.0864   22668853.9774
       836.9694
   -132145.46849    -91386.34147  22495991.0234   22495987.1054
      2696.7664
     -2338.05449     -5845.60848  20063130.8914   20063125.1914
        50.4064
   -133164.70349    -92047.32047  23397567.1254   23397562.8874
      2714.5784
    111789.75649     70846.80048  21574951.4844   21574944.7234
     -2312.8284
    -72701.65449    -53984.48648  21242294.9384   21242290.3094
      1506.7504
 04  9 16 20 46 30.0000000  0  6G 3G 8G13G19G23G27
    -52900.83649    -41185.01847  22666467.8984   22666464.4104
       837.1564
   -172647.64449   -122946.46347  22488283.9534   22488279.7544
      2703.5314
     -3105.67149     -6443.75148  20062985.0164   20062979.3674
        51.9534
   -173921.18249   -123805.56647  23389811.3204   23389807.0904
      2719.5784
    146455.46449     97859.01348  21581548.0084   21581541.6334
     -2309.2974
    -95352.69749    -71634.64248  21237984.5784   21237979.7154
      1513.3754
 04  9 16 20 46 45.0000000  0  6G 3G 8G13G19G23G27
    -65452.15649    -50965.25547  22664079.2504   22664076.1604
       836.0474
   -213244.39249   -154580.27047  22480558.6804   22480554.8244
      2709.0164
     -3888.61449     -7053.84448  20062835.8914   20062830.5044
        52.1564
   -214745.42249   -155616.62247  23382042.7974   23382038.7664
      2723.3284
    181075.01349    124835.23848  21588136.0864   21588129.5204
     -2307.0314
   -118096.23749    -89356.88148  21233656.6724   21233652.2704
      1518.7814
 04  9 16 20 47  0.0000000  0  6G 3G 8G13G19G23G27
    -77990.48249    -60735.39247  22661693.0704   22661690.1484
       835.0314
   -253927.16649   -186281.11547  22472816.8674   22472812.7974
      2714.5164
     -4678.15749     -7669.08448  20062685.5784   20062679.9924
        52.3754
   -255628.44849   -187473.47547  23374263.2194   23374258.6414
      2726.9384
    215656.83649    151782.08148  21594716.5314   21594710.0634
     -2304.7194
   -140923.71149   -107144.53348  21229312.8204   21229308.3284
      1524.0634
 04  9 16 20 47 15.0000000  0  6G 3G 8G13G19G23G27
    -90505.24549    -70487.14047  22659312.0164   22659308.7464
       833.2974
   -294685.69749   -218041.00547  22465060.6724   22465056.3984
      2719.5784
     -5463.94349     -8281.39648  20062536.6024   20062530.9414
        52.1254
   -296559.57149   -219367.81247  23366474.0234   23366470.0704
      2730.1254
    250211.14549    178707.47848  21601292.2814   21601285.9064
     -2302.8444
   -163824.82349   -124989.55248  21224954.6254   21224950.1524
      1529.0004
 04  9 16 20 47 30.0000000  0  6G 3G 8G13G19G23G27
   -102986.09149    -80212.47247  22656936.6724   22656933.7384
       830.6564
   -335509.52049   -249851.75847  22457292.0634   22457287.6844
      2723.5164
     -6235.53149     -8882.64748  20062389.5554   20062383.7734
        50.6564
   -337528.06849   -251291.27347  23358677.7504   23358673.7664
      2732.1884
    284748.08349    205619.34048  21607864.2504   21607858.0744
     -2302.2194
   -186789.31149   -142883.95948  21220584.8674   21220580.1414
      1532.7974
 04  9 16 20 47 45.0000000  0  6G 3G 8G13G19G23G27
   -115426.37249    -89906.19547  22654569.5004   22654566.2274
       827.7664
   -376392.01949   -281708.22847  22449512.3134   22449508.3364
      2727.2034
     -6986.26049     -9467.64648  20062246.3914   20062240.7734
        49.1564
   -378527.01449   -283238.47547  23350875.8204   23350871.6294
      2734.0474
    319274.14849    232522.73048  21614434.3204   21614427.5634
     -2301.6254
   -209810.65749   -160822.67648  21216203.7894   21216199.4574
      1536.4224
 04  9 16 20 48  0.0000000  0  6G 3G 8G13G19G23G27
   -127815.94949    -99560.39347  22652211.7274   22652208.8594
       823.6254
   -417323.13449   -313602.57647  22441723.0554   22441719.5274
      2729.7194
     -7706.00949    -10028.48948  20062109.4064   20062104.2344
        46.2814
   -419545.94049   -315201.21447  23343070.3754   23343065.9454
      2734.6094
    353799.19349    259425.33148  21621004.6724   21620997.6374
     -2302.3444
   -232878.54149   -178797.64648  21211814.3364   21211809.2664
      1538.7664
 04  9 16 20 48 15.0000000  0  6G 3G 8G13G19G23G27
   -140146.14349   -109168.33347  22649865.7344   22649862.3754
       819.8754
   -458294.47749   -345528.28647  22433926.6174   22433922.8954
      2732.6564
     -8386.27549    -10558.59248  20061980.0314   20061974.8014
        43.8914
   -460576.07649   -347172.72947  23335262.6954   23335258.3874
      2735.5784
    388331.50049    286333.58748  21627575.3594   21627568.5084
     -2302.4694
   -255984.78349   -196802.51348  21207417.3834   21207412.7304
      1541.5314
 04  9 16 20 48 29.9990000  0  6G 3G 8G13G19G23G27
   -152412.96749   -118726.89647  22647531.1054   22647527.7454
       815.8914
   -499300.13049   -377480.73147  22426123.5034   22426119.8234
      2735.2194
     -9023.81849    -11055.37648  20061858.6594   20061852.8944
        41.1254
   -501611.20449   -379148.12047  23327453.6984   23327449.7494
      2736.1094
    422871.78749    313248.06348  21634148.4804   21634142.1404
     -2303.1094
   -279124.73649   -214833.63948  21203013.9484   21203009.0974
      1544.1094
 04  9 16 20 48 44.9990000  0  6G 3G 8G13G19G23G27
   -164618.20649   -128237.46047  22645208.8864   22645205.2334
       811.4384
   -540345.93549   -409464.45547  22418312.9404   22418309.1244
      2737.4534
     -9619.17649    -11519.30148  20061745.6594   20061740.2264
        38.1884
   -542656.95449   -411131.75647  23319643.4254   23319638.6164
      2736.5004
    457423.97649    340171.80648  21640723.4334   21640717.1984
     -2303.9844
   -302301.92149   -232893.78248  21198603.5194   21198598.9294
      1546.1724
 04  9 16 20 48 59.9990000  0  6G 3G 8G13G19G23G27
   -176757.52049   -137696.65847  22642898.7144   22642895.4054
       807.1564
   -581425.62349   -441474.57347  22410495.3944   22410492.1404
      2739.8754
    -10168.70049    -11947.50848  20061641.0734   20061635.1794
        35.2034
   -583706.81149   -443118.61347  23311831.2534   23311827.0154
      2736.7974
    491989.09849    367105.63248  21647301.4644   21647294.6204
     -2304.6724
   -325511.27149   -250978.99448  21194187.0734   21194182.1324
      1548.4844
 04  9 16 20 49 14.9990000  0  6G 3G 8G13G19G23G27
   -188828.69049   -147102.76547  22640601.6834   22640598.4604
       801.9844
   -622537.21649   -473509.58047  22402672.0974   22402668.3474
      2741.3594
    -10669.98349    -12338.12848  20061545.6444   20061539.8314
        31.3134
   -624758.20349   -475106.67947  23304019.8554   23304015.5544
      2736.2344
    526569.27349    394051.18748  21653881.9644   21653875.1904
     -2306.3124
   -348750.63249   -269087.58848  21189764.4874   21189760.0344
      1549.7814
 04  9 16 20 49 29.9990000  0  6G 3G 8G13G19G23G27
   -200821.19949   -156447.57247  22638319.3704   22638316.2534
       796.7344
   -663670.26949   -505561.28147  22394845.3234   22394841.4604
      2742.8914
    -11112.76549    -12683.16748  20061461.5034   20061455.7304
        27.5164
   -665800.42349   -507087.58247  23296209.2144   23296205.0894
      2735.7504
    561174.59749    421016.33448  21660467.0264   21660460.0694
     -2307.9374
   -372009.83149   -287211.63248  21185338.5584   21185333.8664
      1551.1884
 04  9 16 20 49 44.9990000  0  6G 3G 8G13G19G23G27
   -212743.37249   -165737.55947  22636050.8704   22636047.2964
       792.5164
   -704833.08849   -537636.18647  22387011.5894   22387008.2724
      2745.2344
    -11505.52549    -12989.22248  20061386.7614   20061380.9484
        24.6414
   -706841.61649   -539067.66247  23288399.4874   23288395.4644
      2736.1564
    595796.38949    447994.30848  21667055.0734   21667048.5814
     -2308.6564
   -395297.18549   -305357.62248  21180907.0424   21180902.7224
      1553.5164
 04  9 16 20 49 59.9990000  0  6G 3G 8G13G19G23G27
   -224585.90949   -174965.50247  22633796.9724   22633793.6904
       786.6254
   -746016.55849   -569727.17547  22379175.3004   22379171.1944
      2745.9384
    -11838.86549    -13248.97748  20061323.2304   20061317.8624
        19.9534
   -747872.26949   -571039.54947  23280591.3624   23280586.9914
      2734.7034
    630443.71649    474992.18648  21673648.5814   21673642.1594
     -2310.9224
   -418603.60249   -323518.46248  21176471.9334   21176467.4014
      1554.1564
 04  9 16 20 50 14.9990000  0  6G 3G 8G13G19G23G27
   -236341.47649   -184125.68447  22631559.9254   22631557.0894
       780.8594
   -787213.55649   -601828.71547  22371335.4174   22371331.3624
      2746.9224
    -12105.57249    -13456.80248  20061272.5734   20061266.8124
        15.5784
   -788884.83149   -602997.34247  23272787.2144   23272782.8084
      2733.5314
    665123.75049    502015.55948  21680247.7694   21680241.6474
     -2313.0944
   -441922.00949   -341688.65248  21172034.9174   21172030.2334
      1554.9844
 04  9 16 20 50 29.9990000  0  6G 3G 8G13G19G23G27
   -248012.35449   -193219.87447  22629339.4804   22629336.1014
       775.2344
   -828426.33249   -633942.54447  22363493.0734   22363488.8194
      2748.0314
    -12307.99849    -13614.54148  20061234.1124   20061228.4994
        11.2974
   -829881.27549   -634942.56847  23264985.8234   23264981.2694
      2732.5164
    699833.84149    529062.35248  21686852.9334   21686846.0384
     -2315.0004
   -465254.65149   -359869.92348  21167594.5264   21167590.1984
      1555.9534
 04  9 16 20 50 44.9990000  0  6G 3G 8G13G19G23G27
   -259594.69249   -202245.05947  22627135.3474   22627131.9954
       769.1724
   -869651.07349   -666065.71347  22355647.7844   22355643.7414
      2748.6564
    -12442.14249    -13719.07848  20061208.3314   20061202.8154
         6.6094
   -870857.44049   -666872.00647  23257188.1054   23257183.7304
      2730.9384
    734577.70049    556135.44748  21693464.6754   21693457.6794
     -2317.4694
   -488597.73249   -378059.34248  21163152.4014   21163147.7844
      1556.5164
 04  9 16 20 50 59.9990000  0  6G 3G 8G13G19G23G27
   -271086.46649   -211199.68847  22624948.6124   22624945.2724
       763.2194
   -910885.95449   -698196.77347  22347801.5584   22347797.4374
      2749.4844
    -12506.12449    -13768.94248  20061196.1364   20061190.6054
         2.0634
   -911811.18849   -698783.94647  23249394.4334   23249390.2064
      2729.7344
    769356.87849    583236.06748  21700082.6204   21700076.4214
     -2319.6414
   -511949.41249   -396255.44848  21158708.6204   21158704.1474
      1557.2034
 04  9 16 20 51 14.9990000  0  6G 3G 8G13G19G23G27
   -282488.34449   -220084.25547  22622778.8474   22622775.1164
       757.1414
   -952131.86749   -730336.41247  22339952.2614   22339948.7104
      2750.0634
    -12500.83849    -13764.81848  20061197.3474   20061191.6634
        -2.7194
   -952742.95549   -730678.79247  23241606.1284   23241601.3474
      2728.0004
    804170.53849    610363.56648  21706707.8084   21706701.3124
     -2322.0474
   -535310.56949   -414458.93548  21154263.1674   21154258.9054
      1557.7344
 04  9 16 20 51 29.9990000  0  6G 3G 8G13G19G23G27
   -293801.91549   -228900.03347  22620625.2224   22620622.2184
       751.3284
   -993390.51049   -762486.00347  22332101.6124   22332097.0934
      2750.9844
    -12427.83449    -13707.95348  20061211.1284   20061205.2184
        -7.1254
   -993654.16549   -762557.62247  23233820.6054   23233816.4254
      2726.7814
    839016.73449    637516.39648  21713338.7614   21713332.2024
     -2324.1414
   -558682.92849   -432671.17048  21149816.0264   21149811.1084
      1558.5314
 04  9 16 20 51 44.9990000  0  6G 3G 8G13G19G23G27
   -305024.40349   -237644.81247  22618490.2694   22618486.9684
       744.6094
  -1034658.93549   -794643.18747  22324248.4644   22324244.3004
      2751.0164
    -12284.28049    -13596.08748  20061238.4334   20061233.0154
       -12.5004
  -1034541.70649   -794417.97947  23226040.2144   23226035.7374
      2724.4224
    873898.12549    664696.66748  21719976.7064   21719970.2224
     -2327.1874
   -582063.86949   -450890.07848  21145366.2614   21145361.7724
      1558.5474
 04  9 16 20 51 59.9990000  0  6G 3G 8G13G19G23G27
   -316143.60849   -246309.13247  22616374.2144   22616370.9254
       737.7814
  -1075924.87749   -826798.46347  22316395.1204   22316391.6834
      2750.9534
    -12058.02249    -13419.79948  20061281.3624   20061275.8004
       -17.8914
  -1075393.03649   -826250.14747  23218266.2614   23218261.3274
      2722.2664
    908826.58249    691913.60948  21726623.3864   21726616.8004
     -2330.1564
   -605441.09849   -469106.09648  21140918.2144   21140913.2764
      1558.3284
 04  9 16 20 52 14.9990000  0  6G 3G 8G13G19G23G27
   -327164.77649   -254897.04247  22614276.9804   22614274.3154
       731.5634
  -1117193.97149   -858956.17747  22308541.9334   22308538.3154
      2751.5004
    -11754.41849    -13183.23348  20061339.3004   20061333.4174
       -22.7344
  -1116213.28049   -858058.07247  23210498.1364   23210493.7694
      2720.4064
    943796.63549    719162.96848  21733277.9094   21733271.6364
     -2332.5944
   -628820.08849   -487323.48248  21136469.2064   21136464.3234
      1558.7664
 04  9 16 20 52 29.9990000  0  6G 3G 8G13G19G23G27
   -338084.99849   -263406.30447  22612198.3004   22612195.5934
       724.6094
  -1158463.40049   -891114.15547  22300688.4874   22300684.9874
      2751.3444
    -11370.65249    -12884.19848  20061412.9174   20061406.9564
       -28.2664
  -1156999.38449   -889839.41547  23202737.2064   23202732.5264
      2717.9384
    978810.80249    746446.69348  21739940.8704   21739934.3744
     -2335.7344
   -652198.12949   -505540.13048  21132020.5424   21132015.8554
      1558.5634
 04  9 16 20 52 44.9990000  0  6G 3G 8G13G19G23G27
   -348905.27049   -271837.69447  22610139.5114   22610136.9604
       717.5634
  -1199734.28949   -923273.26847  22292835.1124   22292830.8784
      2751.0004
    -10907.70449    -12523.46448  20061500.6054   20061494.9444
       -34.0314
  -1197752.02149   -921594.65747  23194982.6204   23194977.8744
      2715.3134
   1013867.88949    773763.85848  21746611.8624   21746605.1164
     -2339.0164
   -675576.25949   -523756.86048  21127571.6054   21127567.2924
      1558.1414
 04  9 16 20 52 59.9990000  0  6G 3G 8G13G19G23G27
   -359620.76349   -280187.41847  22608100.8864   22608097.7844
       710.9384
  -1241001.81049   -955429.75947  22284982.3234   22284978.3554
      2751.0784
    -10360.81349    -12097.31748  20061604.6444   20061598.7764
       -39.2974
  -1238466.04949   -953319.83947  23187234.5034   23187229.7694
      2713.0164
   1048972.42549    801118.00248  21753292.0974   21753285.7374
     -2341.9064
   -698949.85849   -541970.04548  21123124.0654   21123119.4644
      1558.1254
 04  9 16 20 53 14.9990000  0  6G 3G 8G13G19G23G27
   -370231.62949   -288455.62447  22606081.6674   22606078.5304
       704.0944
  -1282265.93849   -987583.60347  22277129.6054   22277125.6944
      2751.0164
     -9730.18549    -11605.93148  20061724.6674   20061719.1554
       -44.7194
  -1279141.38449   -985014.85447  23179494.3154   23179489.6444
      2710.4694
   1084123.98349    828508.78848  21759980.9724   21759974.6984
     -2344.8754
   -722319.06949   -560179.81448  21118676.8864   21118672.5154
      1557.9534
 04  9 16 20 53 29.9990000  0  6G 3G 8G13G19G23G27
   -380737.39549   -296641.94647  22604082.9174   22604078.8354
       696.7344
  -1323526.45949  -1019734.64847  22269278.0424   22269274.6904
      2750.5784
     -9015.28249    -11048.86548  20061860.4724   20061854.9444
       -50.5474
  -1319777.38149  -1016679.21547  23171761.0734   23171756.7414
      2707.7034
   1119322.86149    855936.45248  21766679.4254   21766673.1474
     -2348.2194
   -745683.51949   -578385.86848  21114230.7144   21114226.1404
      1557.4384
 04  9 16 20 53 44.9990000  0  6G 3G 8G13G19G23G27
   -391133.07849   -304742.48247  22602104.3084   22602101.0304
       689.6414
  -1364778.50149  -1051879.07547  22261428.3554   22261424.6014
      2750.1414
     -8211.26449    -10422.37848  20062013.8084   20062008.2534
       -56.3124
  -1360368.68949  -1048308.75147  23164037.2534   23164032.5654
      2704.8444
   1154573.82949    883404.70148  21773387.2614   21773381.1124
     -2351.5314
   -769038.38149   -596584.47048  21109786.3314   21109782.0504
      1556.9384
 04  9 16 20 53 59.9990000  0  6G 3G 8G13G19G23G27
   -401421.92649   -312759.75247  22600146.3784   22600143.2064
       682.2194
  -1406025.65749  -1084019.70247  22253578.9334   22253575.2884
      2749.5634
     -7321.30249     -9728.89748  20062183.0734   20062177.0154
       -62.2664
  -1400918.40949  -1079905.89047  23156320.2374   23156316.0344
      2701.7974
   1189873.36349    910910.78648  21780104.9094   21780098.6284
     -2355.0004
   -792386.93749   -614778.13948  21105343.3864   21105338.8624
      1556.2344
 04  9 16 20 54 14.9990000  0  6G 3G 8G13G19G23G27
   -411601.62849   -320692.00047  22598209.3704   22598205.5304
       675.0314
  -1447265.25049  -1116154.44347  22245731.7614   22245727.9294
      2749.0474
     -6343.24349     -8966.78448  20062369.0264   20062363.3974
       -68.1724
  -1441423.97149  -1111468.63547  23148612.5814   23148607.9174
      2698.9064
   1225223.43249    938456.25648  21786831.7144   21786825.1404
     -2358.4064
   -815727.11649   -632965.29748  21100901.9014   21100896.9444
      1555.6724
 04  9 16 20 54 29.9990000  0  6G 3G 8G13G19G23G27
   -421667.84549   -328535.80947  22596293.3314   22596290.3784
       666.9694
  -1488493.23249  -1148280.12347  22237886.1364   22237882.0974
      2747.7814
     -5272.66549     -8132.56648  20062573.1674   20062567.1944
       -74.7974
  -1481880.71049  -1142993.31847  23140914.0194   23140909.6984
      2695.1724
   1260628.16549    966044.32448  21793568.9014   21793562.4014
     -2362.4844
   -839054.51749   -651142.48048  21096462.8944   21096458.1084
      1554.3914
 04  9 16 20 54 44.9990000  0  6G 3G 8G13G19G23G27
   -431619.82149   -336290.59747  22594400.3314   22594396.6324
       659.3284
  -1529708.75749  -1180396.10847  22230042.6984   22230039.2334
      2746.9384
     -4108.80349     -7225.66348  20062794.4564   20062788.8624
       -80.9694
  -1522287.68049  -1174479.23047  23133224.2614   23133219.8974
      2691.8754
   1296088.13549    993675.43448  21800316.9254   21800310.5624
     -2366.1414
   -862368.61449   -669309.30348  21092026.5584   21092021.3354
      1553.5164
 04  9 16 20 54 59.9990000  0  6G 3G 8G13G19G23G27
   -441454.82249   -343954.23747  22592528.3624   22592525.5264
       651.9224
  -1570909.31249  -1212500.42747  22222202.6984   22222198.8274
      2746.3594
     -2848.85449     -6243.90048  20063034.0034   20063028.2494
       -87.0944
  -1562641.87349  -1205924.01047  23125545.3554   23125540.6554
      2688.5944
   1331605.70549   1021351.42848  21807075.7924   21807069.7144
     -2369.6564
   -885666.74849   -687463.69348  21087592.8474   21087587.9874
      1552.7814
 04  9 16 20 55 14.9990000  0  6G 3G 8G13G19G23G27
   -451177.23849   -351530.13947  22590678.1444   22590674.5304
       644.4384
  -1612099.26949  -1244596.47847  22214364.5264   22214360.4684
      2745.7034
     -1497.61449     -5190.98148  20063291.0974   20063285.6554
       -93.0784
  -1602947.50649  -1237330.95447  23117875.4174   23117870.9374
      2685.3914
   1367176.09549   1049068.58448  21813844.6754   21813838.1284
     -2373.0784
   -908953.45949   -705609.17648  21083161.5814   21083156.9334
      1552.1414
 04  9 16 20 55 29.9990000  0  6G 3G 8G13G19G23G27
   -460785.53249   -359017.12647  22588849.6674   22588846.7224
       636.5944
  -1653277.34049  -1276683.27147  22206528.5114   22206524.6794
      2744.7194
       -53.62949     -4065.81348  20063566.0034   20063560.4174
       -99.5474
  -1643202.76749  -1268698.65247  23110215.1444   23110210.3394
      2681.8284
   1402800.69349   1076827.97548  21820623.2614   21820617.3474
     -2376.8754
   -932227.32449   -723744.65848  21078732.7454   21078727.9834
      1550.9844
 04  9 16 20 55 44.9990000  0  6G 3G 8G13G19G23G27
   -470274.87149   -366411.42847  22587043.9334   22587040.7724
       628.9534
  -1694438.61249  -1308756.97647  22198696.0814   22198692.4254
      2743.8444
      1488.02149     -2864.52648  20063859.4804   20063853.7414
      -105.6564
  -1683402.47549  -1300023.06247  23102565.4174   23102560.6554
      2678.4224
   1438484.21049   1104633.27648  21827413.9254   21827407.4604
     -2380.5624
   -955483.45549   -741866.31548  21074307.0974   21074302.6124
      1550.1564
 04  9 16 20 55 59.9990000  0  6G 3G 8G13G19G23G27
   -479645.89849   -373713.53647  22585261.0034   22585257.9214
       621.0004
  -1735583.87049  -1340818.18447  22190865.9564   22190862.6904
      2742.5784
      3126.73849     -1587.61648  20064171.0814   20064165.5264
      -112.3914
  -1723547.00849  -1331304.48347  23094925.9254   23094921.2064
      2674.5164
   1474225.69849   1132483.74048  21834214.9954   21834209.3044
     -2384.6724
   -978722.59649   -759974.73248  21069884.9334   21069880.2764
      1548.8134
 04  9 16 20 56 14.9990000  0  6G 3G 8G13G19G23G27
   -488892.09349   -380918.35347  22583501.6834   22583498.0544
       611.8594
  -1776706.47049  -1372861.76247  22183040.2614   22183036.6364
      2740.2974
      4869.03349      -229.99048  20064502.5344   20064496.7924
      -120.0164
  -1763629.72349  -1362537.72947  23087297.9874   23087293.3824
      2669.6884
   1510031.41349   1160384.26648  21841029.0814   21841022.4644
     -2389.6724
  -1001938.33549   -778064.91848  21065467.2374   21065462.5694
      1546.5004
 04  9 16 20 56 29.9990000  0  6G 3G 8G13G19G23G27
   -498015.44349   -388027.45647  22581765.5584   22581762.4014
       604.0634
  -1817808.38049  -1404889.20947  22175219.2144   22175215.2494
      2739.3594
      6712.88649      1206.78748  20064853.6364   20064848.1204
      -126.3594
  -1803652.28349  -1393724.10247  23079682.7304   23079677.8514
      2666.1564
   1545899.11549   1188333.07747  21847854.1124   21847847.9174
     -2393.3284
  -1025132.83849   -796138.54748  21061053.0424   21061048.2224
      1545.5474
 04  9 16 20 56 44.9990000  0  6G 3G 8G13G19G23G27
   -507017.19749   -395041.81547  22580052.2614   22580049.0504
       596.5474
  -1858891.26649  -1436901.83647  22167401.4874   22167397.2694
      2738.7034
      8656.96949      2721.64648  20065223.5894   20065217.3744
      -132.3914
  -1843615.63949  -1424864.33447  23072077.6124   23072073.2844
      2662.7974
   1581827.31649   1216329.05348  21854691.5584   21854685.2964
     -2396.6874
  -1048307.39549   -814196.64348  21056643.3004   21056638.2534
      1544.8284
 04  9 16 20 56 59.9990000  0  6G 3G 8G13G19G23G27
   -515899.26649   -401962.92347  22578362.1124   22578358.9054
       587.6724
  -1899956.94049  -1468901.05247  22159586.9404   22159582.9484
      2736.7664
     10699.33949      4313.09148  20065612.2924   20065606.7224
      -139.8754
  -1883521.53849  -1455959.80247  23064483.6984   23064478.7614
      2658.0314
   1617813.61849   1244370.27848  21861539.4174   21861533.5934
     -2401.4374
  -1071464.12849   -832240.84848  21052236.6754   21052231.9994
      1542.7344
 04  9 16 20 57 14.9990000  0  6G 3G 8G13G19G23G27
   -524651.47649   -408782.82147  22576696.4014   22576693.2694
       579.7344
  -1940995.28749  -1500878.96147  22151777.5974   22151773.6714
      2735.5314
     12850.17649      5989.07148  20066021.5034   20066015.6714
      -146.5474
  -1923359.43449  -1487002.27947  23056902.9564   23056898.2224
      2654.0314
   1653868.20349   1272464.73048  21868400.5974   21868394.5424
     -2405.3124
  -1094592.80049   -850263.18148  21047835.7374   21047830.8314
      1541.5314
 04  9 16 20 57 29.9990000  0  6G 3G 8G13G19G23G27
   -533283.82549   -415509.32847  22575053.9724   22575050.7494
       571.2194
  -1982016.34449  -1532843.40647  22143971.5654   22143967.7334
      2734.0004
     15099.41949      7741.72248  20066449.2534   20066443.6124
      -153.3914
  -1963139.14049  -1517999.41247  23049332.9334   23049328.5034
      2649.8754
   1689980.80049   1300604.37047  21875272.3704   21875266.2724
     -2409.6254
  -1117703.51849   -868271.53048  21043437.6204   21043432.9134
      1539.9224
 04  9 16 20 57 44.9990000  0  6G 3G 8G13G19G23G27
   -541787.48849   -422135.55347  22573435.3474   22573432.2264
       562.6094
  -2023011.26849  -1564787.48947  22136170.8234   22136166.7144
      2732.0474
     17455.74849      9577.81248  20066897.9094   20066892.2184
      -160.7664
  -2002851.53749  -1548944.11347  23041776.1124   23041771.1634
      2645.1094
   1726159.96749   1328795.89548  21882156.6514   21882150.5894
     -2414.2974
  -1140787.52649   -886259.06648  21039044.8394   21039039.6714
      1537.9844
 04  9 16 20 57 59.9990000  0  6G 3G 8G13G19G23G27
   -550162.31249   -428661.40347  22571842.0654   22571838.7224
       554.2194
  -2063979.93349  -1596711.11347  22128374.3234   22128370.2844
      2730.6094
     19919.35649     11497.50148  20067366.7764   20067360.9724
      -167.6094
  -2042496.15449  -1579835.97747  23034231.7614   23034227.1164
      2640.9694
   1762405.64249   1357039.23748  21889054.7534   21889048.1164
     -2418.4064
  -1163844.79849   -904225.77048  21034657.1834   21034651.9684
      1536.4844
 04  9 16 20 58 14.9990000  0  6G 3G 8G13G19G23G27
   -558412.25849   -435089.93047  22570272.0894   22570268.7184
       545.9384
  -2104926.73049  -1628617.69847  22120582.6674   22120578.7334
      2729.1884
     22486.35249     13497.75348  20067855.2224   20067849.5034
      -174.4374
  -2082076.72649  -1610677.94747  23026699.9484   23026695.2224
      2636.6884
   1798713.50149   1385331.04348  21895963.8554   21895957.4724
     -2422.4694
  -1186879.33049   -922174.74448  21030273.8154   21030268.9874
      1535.0314
 04  9 16 20 58 29.9990000  0  6G 3G 8G13G19G23G27
   -566534.66549   -441419.07947  22568726.4014   22568723.2494
       537.2344
  -2145848.63649  -1660504.88647  22112795.5894   22112791.6984
      2727.3594
     25159.40149     15580.64748  20068363.7764   20068358.4054
      -181.6724
  -2121590.38549  -1641467.76847  23019180.7144   23019176.0974
      2631.9694
   1835086.04749   1413673.25048  21902885.2534   21902879.0194
     -2426.9534
  -1209888.59949   -940104.04148  21025895.3784   21025890.6754
      1533.1724
 04  9 16 20 58 44.9990000  0  6G 3G 8G13G19G23G27
   -574527.69149   -447647.39947  22567205.6984   22567202.6284
       528.3284
  -2186743.90949  -1692371.31547  22105012.9484   22105009.1084
      2725.2974
     27940.23749     17747.52648  20068893.0034   20068887.6054
      -189.1724
  -2161035.02549  -1672203.81647  23011674.6984   23011669.6364
      2627.1724
   1871524.90649   1442067.12948  21909819.1514   21909813.2024
     -2431.6414
  -1232870.80149   -958012.24648  21021522.3554   21021517.3904
      1531.0944
 04  9 16 20 58 59.9990000  0  6G 3G 8G13G19G23G27
   -582386.65049   -453771.27347  22565710.0034   22565706.5584
       519.7194
  -2227608.00349  -1724213.45347  22097237.1204   22097233.0264
      2723.5164
     30833.44949     20001.97348  20069443.9484   20069438.0584
      -196.3444
  -2200405.63149  -1702882.16447  23004182.6514   23004177.9914
      2622.5314
   1908034.43049   1470516.06848  21916766.6984   21916760.6124
     -2436.0314
  -1255821.30849   -975895.75748  21017154.6364   21017149.8474
      1529.2504
 04  9 16 20 59 14.9990000  0  6G 3G 8G13G19G23G27
   -590113.66949   -459792.33147  22564239.4094   22564236.5504
       510.6724
  -2268443.06049  -1756032.96347  22089466.3084   22089462.3514
      2721.3284
     33836.84649     22342.27148  20070015.0034   20070009.7574
      -203.9374
  -2239704.05449  -1733504.27747  22996704.1514   22996699.2964
      2617.4534
   1944612.31149   1499018.25848  21923727.4334   21923721.4764
     -2440.8914
  -1278742.37949   -993756.32848  21012793.0264   21012787.8704
      1526.9844
 04  9 16 20 59 29.9990000  0  6G 3G 8G13G19G23G27
   -597708.27949   -465710.19547  22562794.0114   22562791.1874
       501.9694
  -2309248.61749  -1787829.48847  22081701.3624   22081697.5224
      2719.5164
     36950.94049     24768.83748  20070607.7614   20070601.9174
      -211.2194
  -2278929.56349  -1764069.57047  22989240.0734   22989235.2104
      2612.6254
   1981258.69949   1527573.85748  21930700.9404   21930694.7574
     -2445.2664
  -1301633.45649  -1011593.51648  21008436.8474   21008431.9254
      1525.1564
 04  9 16 20 59 44.9990000  0  6G 3G 8G13G19G23G27
   -605167.02449   -471522.19947  22561374.9404   22561371.6164
       492.1564
  -2350021.29849  -1819600.40347  22073942.5114   22073938.6794
      2716.5634
     40179.17149     27284.32648  20071222.0734   20071215.9444
      -219.5784
  -2318078.44449  -1794575.13947  22981789.9804   22981785.3004
      2606.8594
   2017976.93449   1556185.42148  21937688.5894   21937682.2654
     -2450.7974
  -1324491.35449  -1029404.87548  21004087.1514   21004082.4094
      1522.2344
 04  9 16 20 59 59.9990000  0  6G 3G 8G13G19G23G27
   -612490.11249   -477228.48947  22559981.4564   22559977.9524
       483.9384
  -2390761.33749  -1851345.87147  22066190.0344   22066186.1674
      2715.2504
     43521.37749     29888.63748  20071858.3234   20071852.4294
      -226.2664
  -2357150.58849  -1825020.93947  22974354.9404   22974350.2494
      2602.5004
   2054766.47549   1584852.56048  21944689.0424   21944683.3234
     -2454.7034
  -1347316.07249  -1047190.36048  20999743.8474   20999739.4014
      1520.8284
 04  9 16 21  0 14.9990000  0  6G 3G 8G13G19G23G27
   -619679.36949   -482830.52447  22558613.5814   22558609.6514
       475.0634
  -2431470.30449  -1883067.12847  22058443.3554   22058439.4214
      2713.1254
     46975.73849     32580.33748  20072515.3394   20072509.9374
      -233.8284
  -2396147.55749  -1855408.13047  22966933.6514   22966929.2724
      2597.5474
   2091625.44649   1613573.78647  21951703.4254   21951697.2334
     -2459.3754
  -1370109.65149  -1064951.58448  20995406.5344   20995401.6474
      1518.8594
 04  9 16 21  0 29.9990000  0  6G 3G 8G13G19G23G27
   -626736.08449   -488329.26247  22557270.6754   22557267.2414
       465.8914
  -2472149.78949  -1914765.41947  22050702.3704   22050698.0504
      2710.8444
     50540.91749     35358.39648  20073193.9334   20073188.1984
      -241.4374
  -2435070.30349  -1885737.49747  22959527.1674   22959522.4054
      2592.2814
   2128552.26649   1642347.88947  21958730.1674   21958724.3824
     -2464.1254
  -1392873.33649  -1082689.51248  20991074.5504   20991070.0424
      1516.4534
 04  9 16 21  0 44.9990000  0  6G 3G 8G13G19G23G27
   -633657.55149   -493722.59847  22555953.7614   22555949.9524
       456.9064
  -2512797.23649  -1946438.74247  22042967.1284   22042963.2334
      2708.7034
     54219.51749     38224.83048  20073893.8864   20073888.2104
      -248.9844
  -2473915.95049  -1916006.80047  22952134.7844   22952130.0424
      2587.1094
   2165549.24049   1671176.66248  21965770.5654   21965764.6794
     -2468.7664
  -1415604.67749  -1100402.24648  20986748.8314   20986743.9334
      1514.3284
 04  9 16 21  0 59.9990000  0  6G 3G 8G13G19G23G27
   -640442.53649   -499009.60047  22554662.1204   22554658.7494
       447.9534
  -2553411.35249  -1978086.09447  22035238.6364   22035234.5974
      2706.5784
     58012.66549     41180.51948  20074615.7694   20074610.2724
      -256.5314
  -2512683.01949  -1946214.86947  22944757.5654   22944752.8864
      2582.0634
   2202617.51849   1700060.99347  21972824.7144   21972818.1324
     -2473.4374
  -1438302.44249  -1118088.81348  20982429.4874   20982424.7764
      1512.2344
 04  9 16 21  1 14.9990000  0  6G 3G 8G13G19G23G27
   -647087.44649   -504187.44847  22553397.6984   22553394.3084
       438.0474
  -2593988.63949  -2009704.73847  22027517.0584   22027513.0194
      2703.7034
     61923.99349     44228.29348  20075360.1204   20075354.4724
      -264.9224
  -2551367.53849  -1976358.60547  22937396.8004   22937391.4254
      2575.9844
   2239760.35249   1729003.41747  21979892.8154   21979886.4254
     -2479.0164
  -1460962.94649  -1135746.34648  20978117.8784   20978112.5194
      1509.1564
 04  9 16 21  1 29.9990000  0  6G 3G 8G13G19G23G27
   -653593.31049   -509256.94147  22552159.9484   22552156.2884
       429.1884
  -2634529.98549  -2041295.37247  22019802.6594   22019798.4874
      2701.5784
     65952.59549     47367.46848  20076126.5344   20076120.5694
      -272.4064
  -2589970.35249  -2006438.67547  22930050.6364   22930045.7884
      2570.9064
   2276976.55549   1758003.02347  21986974.2534   21986967.8704
     -2483.4844
  -1483587.39749  -1153375.77448  20973812.0814   20973807.5544
      1507.1724
 04  9 16 21  1 44.9990000  0  6G 3G 8G13G19G23G27
   -659961.48449   -514219.17247  22550948.0034   22550944.9174
       419.8754
  -2675036.95649  -2072859.24148  22012094.0264   22012089.8394
      2699.1564
     70096.92349     50596.80548  20076915.5424   20076910.0384
      -280.2664
  -2628492.49749  -2036455.90247  22922720.1124   22922714.5894
      2565.3444
   2314264.44949   1787058.46647  21994070.1834   21994063.9444
     -2488.4064
  -1506177.31149  -1170978.30748  20969513.3784   20969508.9524
      1504.7814
 04  9 16 21  1 59.9990000  0  6G 3G 8G13G19G23G27
   -666184.96449   -519068.62747  22549764.1514   22549760.5934
       410.2194
  -2715502.46249  -2104390.78847  22004393.7534   22004389.5194
      2696.4694
     74364.03149     53921.81648  20077727.4874   20077721.6404
      -288.4374
  -2666926.69349  -2066404.57647  22915406.0504   22915401.2574
      2559.4534
   2351630.81349   1816175.08548  22001180.7064   22001174.8624
     -2493.5314
  -1528725.62449  -1188548.41048  20965222.5734   20965217.9834
      1501.9534
 04  9 16 21  2 14.9990000  0  6G 3G 8G13G19G23G27
   -672272.04749   -523811.79347  22548605.2844   22548602.0034
       401.4064
  -2755934.77849  -2135896.47547  21996699.7304   21996695.7654
      2694.5314
     78745.56249     57335.98448  20078561.3314   20078555.5074
      -295.7664
  -2705280.96749  -2096290.96847  22908107.7694   22908103.0344
      2554.3914
   2389067.18049   1845346.24148  22008304.7614   22008298.6284
     -2497.9844
  -1551240.68349  -1206092.60448  20960937.9874   20960933.1404
      1500.0784
 04  9 16 21  2 29.9990000  0  6G 3G 8G13G19G23G27
   -678220.87749   -528447.25147  22547473.6444   22547469.7844
       391.9534
  -2796331.97949  -2167374.80048  21989012.3474   21989008.7764
      2691.9384
     83243.47349     60840.84248  20079416.6984   20079411.2884
      -303.7814
  -2743553.09649  -2126113.36747  22900824.4874   22900820.2414
      2548.7034
   2426575.22949   1874573.24548  22015442.0194   22015436.1124
     -2502.9374
  -1573720.63749  -1223609.44348  20956660.3864   20956655.2654
      1497.4224
 04  9 16 21  2 44.9990000  0  6G 3G 8G13G19G23G27
   -684028.04449   -532972.32047  22546368.3624   22546364.4014
       382.3444
  -2836690.69449  -2198823.13648  21981332.2924   21981328.4174
      2689.3134
     87861.00649     64438.90948  20080295.6754   20080290.1284
      -311.9374
  -2781739.39549  -2155868.90247  22893558.1124   22893552.9134
      2542.8134
   2464158.06249   1903858.53548  22022594.1754   22022588.3744
     -2508.0164
  -1596162.12549  -1241096.31748  20952389.7844   20952385.1594
      1494.6884
 04  9 16 21  2 59.9990000  0  6G 3G 8G13G19G23G27
   -689694.25049   -537387.53047  22545289.7304   22545286.2764
       373.2814
  -2877011.76949  -2230242.14848  21973659.8624   21973655.2064
      2687.0474
     92597.55849     68129.72848  20081196.9174   20081191.1164
      -319.5474
  -2819840.21549  -2185557.79447  22886307.8554   22886302.2844
      2537.4064
   2501814.94749   1933201.51648  22029760.1754   22029753.8584
     -2512.6874
  -1618565.75749  -1258553.69048  20948126.5734   20948121.3664
      1492.5634
 04  9 16 21  3 14.9990000  0  6G 3G 8G13G19G23G27
   -695220.12749   -541693.40347  22544238.2764   22544235.3554
       363.4534
  -2917295.92249  -2261632.37347  21965993.4954   21965989.6284
      2684.0944
     97452.39849     71912.70848  20082120.5264   20082115.2024
      -327.9224
  -2857855.86349  -2215180.33447  22879073.2764   22879068.3824
      2531.2814
   2539544.95549   1962601.48248  22036939.7304   22036933.3744
     -2518.1094
  -1640932.36749  -1275982.21948  20943870.3554   20943865.2334
      1489.5474
 04  9 16 21  3 29.9990000  0  6G 3G 8G13G19G23G27
   -700599.81549   -545885.36847  22543214.6054   22543211.1324
       353.7194
  -2957537.01149  -2292989.04347  21958336.2224   21958332.6324
      2681.3134
    102431.51649     75792.54048  20083068.2614   20083062.9444
      -336.0784
  -2895780.32449  -2244731.82347  22871856.2064   22871851.7304
      2525.2504
   2577353.69049   1992062.79847  22044134.8704   22044128.4374
     -2523.2034
  -1663256.00649  -1293377.25348  20939622.1754   20939617.5344
      1486.8284
 04  9 16 21  3 44.9990000  0  6G 3G 8G13G19G23G27
   -705839.32649   -549968.09847  22542217.2454   22542214.2844
       344.8284
  -2997741.41849  -2324317.15047  21950685.0584   21950680.8944
      2679.2344
    107528.84649     79764.48148  20084038.5734   20084032.4174
      -343.5314
  -2933619.38149  -2274216.76247  22864656.2614   22864651.1284
      2520.0004
   2615234.81049   2021580.51447  22051343.4724   22051336.7184
     -2527.6564
  -1685542.84949  -1310743.61848  20935381.5504   20935376.5544
      1484.7814
 04  9 16 21  3 59.9990000  0  6G 3G 8G13G19G23G27
   -710937.46549   -553940.67747  22541247.4404   22541244.3744
       335.0634
  -3037907.74249  -2355615.56547  21943041.8394   21943037.6364
      2676.3914
    112745.53249     83829.42748  20085031.1514   20085025.6874
      -351.8124
  -2971371.47349  -2303633.95047  22857471.9254   22857466.8434
      2513.8134
   2653189.36549   2051155.45448  22058565.8624   22058559.6674
     -2532.8284
  -1707791.70249  -1328080.38248  20931147.3944   20931142.7264
      1481.8444
 04  9 16 21  4 14.9990000  0  6G 3G 8G13G19G23G27
   -715890.03649   -557799.82347  22540305.2534   22540301.5264
       325.4064
  -3078031.79949  -2386881.04447  21935406.7224   21935402.1834
      2673.6094
    118085.61349     87990.51448  20086047.4874   20086041.5504
      -360.0944
  -3009032.06149  -2332979.82547  22850305.5504   22850300.4684
      2507.7664
   2691221.34049   2080790.71448  22065803.0894   22065796.5224
     -2537.8914
  -1729998.34749  -1345384.26548  20926921.7144   20926917.1054
      1479.1724
 04  9 16 21  4 29.9990000  0  6G 3G 8G13G19G23G27
   -720696.80049   -561545.34847  22539390.3864   22539386.7574
       315.7504
  -3118113.14149  -2418113.25447  21927779.7224   21927775.2694
      2670.9064
    123549.52749     92248.10348  20087086.9404   20087081.8864
      -368.1874
  -3046600.64149  -2362254.00547  22843156.2454   22843151.3394
      2501.7194
   2729330.74149   2110486.31647  22073054.8004   22073049.2964
     -2543.0164
  -1752162.55749  -1362655.06048  20922704.0504   20922699.6324
      1476.4224
 04  9 16 21  4 44.9990000  0  6G 3G 8G13G19G23G27
   -725360.57849   -565179.45147  22538502.6124   22538499.3194
       306.0784
  -3158154.75949  -2449314.48847  21920159.4724   21920155.4014
      2668.0944
    129134.33049     96599.89548  20088149.4644   20088144.1674
      -376.4064
  -3084079.84049  -2391458.54047  22836024.4954   22836020.0584
      2495.4844
   2767514.46049   2140239.82148  22080321.0584   22080315.3434
     -2548.1254
  -1774287.34049  -1379895.14148  20918494.2454   20918489.2064
      1473.6414
 04  9 16 21  4 59.9990000  0  6G 3G 8G13G19G23G27
   -729878.65049   -568700.03147  22537643.2534   22537639.4914
       296.5314
  -3198154.03949  -2480482.75147  21912548.1444   21912543.7264
      2665.3914
    134843.00649    101048.20548  20089235.8394   20089230.1834
      -384.5474
  -3121466.43349  -2420590.91247  22828909.9174   22828905.2374
      2489.5784
   2805775.19149   2170053.32847  22087602.0194   22087596.3394
     -2553.0314
  -1796369.65849  -1397102.14348  20914291.6904   20914286.9334
      1470.9694
 04  9 16 21  5 14.9990000  0  6G 3G 8G13G19G23G27
   -734254.01849   -572109.41347  22536810.8784   22536807.2804
       287.0164
  -3238114.00849  -2511620.37247  21904943.6594   21904939.2224
      2662.8284
    140672.21149    105590.43548  20090345.4334   20090339.6984
      -392.5314
  -3158763.34849  -2449653.41347  22821812.6054   22821807.4724
      2483.6094
   2844109.54549   2199924.20747  22094896.6904   22094890.8124
     -2558.0004
  -1818412.86749  -1414278.67248  20910097.1514   20910092.3784
      1468.3444
 04  9 16 21  5 29.9990000  0  6G 3G 8G13G19G23G27
   -738484.63849   -575405.99947  22536005.0654   22536002.0894
       277.3134
  -3278032.80749  -2542725.91448  21897347.8004   21897343.3904
      2659.9224
    146623.79749    110228.02148  20091477.9644   20091472.4054
      -400.8124
  -3195968.26249  -2478644.22747  22814732.8234   22814728.0114
      2477.3134
   2882519.34049   2229853.88347  22102206.1284   22102200.4214
     -2563.1254
  -1840415.08349  -1431423.25148  20905910.1364   20905905.3044
      1465.4844
 04  9 16 21  5 44.9990000  0  6G 3G 8G13G19G23G27
   -742567.61749   -578587.53947  22535228.1834   22535225.4804
       267.2664
  -3317907.14849  -2573796.81848  21889759.7694   21889755.9014
      2656.7664
    152700.66449    114963.23448  20092634.0424   20092628.4334
      -409.3914
  -3233077.89049  -2507560.78747  22807671.0194   22807666.1124
      2470.7194
   2921007.34749   2259844.49947  22109530.1754   22109524.2144
     -2568.5474
  -1862373.25449  -1448533.50548  20901731.4724   20901726.4874
      1462.3284
 04  9 16 21  5 59.9990000  0  6G 3G 8G13G19G23G27
   -746501.34649   -581652.77347  22534479.4954   22534476.2184
       257.2814
  -3357735.75449  -2604832.07847  21882180.4254   21882176.2964
      2653.8134
    158904.70649    119797.54548  20093814.8154   20093808.7654
      -417.8284
  -3270090.41949  -2536401.67947  22800627.4644   22800622.6364
      2464.2814
   2959574.82849   2289897.03647  22116869.3084   22116863.1834
     -2573.7504
  -1884285.78249  -1465608.20348  20897562.0264   20897556.7024
      1459.2974
 04  9 16 21  6 14.9990000  0  6G 3G 8G13G19G23G27
   -750288.29049   -584603.64647  22533759.0034   22533755.6714
       247.6884
  -3397520.79149  -2635833.40648  21874609.6904   21874605.3194
      2651.0474
    165233.62249    124729.15548  20095019.1204   20095013.2724
      -426.0164
  -3307007.93149  -2565168.54347  22793602.1834   22793597.7534
      2457.9534
   2998219.16649   2320009.47347  22124223.2454   22124217.4994
     -2578.7034
  -1906155.12349  -1482649.24148  20893399.9874   20893395.0304
      1456.6094
 04  9 16 21  6 29.9990000  0  6G 3G 8G13G19G23G27
   -753931.11549   -587442.20647  22533066.5194   22533062.6944
       237.6724
  -3437264.98349  -2666802.88347  21867046.2844   21867042.3704
      2647.8444
    171684.28549    129755.64548  20096246.8784   20096240.9914
      -434.5624
  -3343832.84649  -2593863.25047  22786594.8624   22786589.9054
      2451.5314
   3036937.44749   2350179.50647  22131591.1984   22131585.3314
     -2584.0944
  -1927984.06749  -1499658.81048  20889246.2304   20889241.6904
      1453.4844
 04  9 16 21  6 44.9990000  0  6G 3G 8G13G19G23G27
   -757425.89449   -590165.41247  22532400.2694   22532397.6944
       227.8284
  -3476964.64649  -2697737.67447  21859492.0194   21859488.0464
      2644.9844
    178260.69549    134880.11648  20097498.0894   20097492.6794
      -442.8594
  -3380560.91349  -2622482.48847  22779605.5424   22779600.7964
      2444.9844
   3075733.44049   2380410.11947  22138973.8314   22138967.8154
     -2589.1874
  -1949768.64049  -1516633.78948  20885100.9254   20885096.0464
      1450.5634
 04  9 16 21  6 59.9990000  0  6G 3G 8G13G19G23G27
   -760769.02349   -592770.44047  22531764.3624   22531761.4524
       217.7664
  -3516615.91149  -2728634.74747  21851946.6054   21851942.7724
      2641.7814
    184966.54149    140105.44148  20098774.1204   20098768.6284
      -451.4224
  -3417188.19049  -2651023.19047  22772635.6444   22772630.6014
      2438.4224
   3114610.60849   2410703.97047  22146371.3704   22146365.8004
     -2594.5784
  -1971505.26649  -1533571.41748  20880964.4644   20880959.4764
      1447.4844
 04  9 16 21  7 14.9990000  0  6G 3G 8G13G19G23G27
   -763965.13349   -595260.91147  22531156.9254   22531153.4834
       208.1724
  -3556223.35549  -2759497.67247  21844409.3784   21844405.0854
      2639.1724
    191797.24549    145428.05748  20100074.4564   20100068.4954
      -459.5004
  -3453719.02149  -2679488.73247  22765683.8554   22765679.0934
      2432.2194
   3153564.04049   2441057.25447  22153784.4874   22153778.3624
     -2599.3444
  -1993198.39749  -1550475.15648  20876836.3624   20876831.5464
      1444.8134
 04  9 16 21  7 29.9990000  0  6G 3G 8G13G19G23G27
   -767014.40849   -597636.96547  22530576.5584   22530572.9374
       197.8754
  -3595787.23949  -2790326.67047  21836880.9874   21836876.4254
      2635.5784
    198752.54349    150847.76948  20101397.7144   20101391.7534
      -468.3594
  -3490153.30049  -2707879.04747  22758750.4484   22758745.8084
      2425.2194
   3192593.33949   2471469.65247  22161211.3314   22161205.4014
     -2604.9844
  -2014848.45049  -1567345.32848  20872716.4804   20872711.5114
      1441.4064
 04  9 16 21  7 44.9990000  0  6G 3G 8G13G19G23G27
   -769917.44049   -599899.06847  22530023.7694   22530020.7574
       188.7664
  -3635307.97649  -2821122.02548  21829360.3394   21829356.1054
      2633.4064
    205831.90249    156364.15048  20102745.1444   20102739.2534
      -475.9224
  -3526491.07149  -2736194.16547  22751835.6444   22751830.9484
      2419.4844
   3231697.84049   2501940.64248  22168652.4484   22168647.4564
     -2609.3124
  -2036455.79249  -1584182.20948  20868604.8864   20868599.6794
      1439.1884
 04  9 16 21  7 59.9990000  0  7G 3G 8G13G19G23G27G10
   -772676.81849   -602049.22147  22529498.9724   22529495.3004
       179.0474
  -3674788.24249  -2851885.85648  21821847.2064   21821843.1444
      2630.5784
    213032.70449    161975.15648  20104115.2224   20104109.5584
      -484.2194
  -3562734.80649  -2764436.00547  22744938.7304   22744933.9684
      2412.9694
   3270874.62149   2532467.96147  22176107.7144   22176101.7844
     -2614.2504
  -2058023.23749  -1600988.00448  20864500.5504   20864495.9524
      1436.3914
   -119284.38859    -92155.11057  23907490.4484   23907486.6514
      2450.1254
 04  9 16 21  8 14.9990000  0  7G 3G 8G13G19G23G27G10
   -775285.24249   -604081.75147  22529002.3784   22528998.5034
       169.1414
  -3714221.13749  -2882612.77347  21814343.7374   21814339.4524
      2627.5944
    220362.18649    167686.42848  20105510.3004   20105504.1904
      -492.6254
  -3598876.98449  -2792598.71547  22738061.1834   22738056.3314
      2406.3754
   3310130.67049   2563057.05047  22183578.1284   22183572.0654
     -2619.4224
  -2079543.33149  -1617756.89548  20860405.4404   20860400.6204
      1433.4064
   -155970.77649   -120741.89547  23900509.4954   23900505.5624
      2441.8754
 04  9 16 21  8 29.9990000  0  7G 3G 8G13G19G23G27G10
   -777747.23949   -606000.18947  22528534.1364   22528530.5464
       159.4534
  -3753610.55149  -2913305.80147  21806848.0814   21806843.5074
      2624.7034
    227816.01749    173494.60348  20106928.1984   20106922.9484
      -500.8284
  -3634921.74449  -2820685.51147  22731202.2844   22731196.9564
      2399.9694
   3349461.47849   2593704.38147  22191062.6514   22191056.5934
     -2624.3284
  -2101020.69649  -1634492.50948  20856318.2764   20856313.4254
      1430.5784
   -192536.46049   -149234.63047  23893550.6674   23893547.3474
      2433.8594
 04  9 16 21  8 44.9990000  0  7G 3G 8G13G19G23G27G10
   -780065.20749   -607806.39647  22528092.9334   22528089.2334
       149.8134
  -3792959.09049  -2943966.99548  21799360.0814   21799356.3584
      2621.9384
    235391.65149    179397.68648  20108369.9404   20108364.3474
      -509.0164
  -3670871.14149  -2848698.01747  22724361.2844   22724356.2104
      2393.5314
   3388864.43049   2624407.92547  22198560.5344   22198554.9834
     -2629.1724
  -2122457.65249  -1651196.62748  20852239.0734   20852234.3944
      1427.8594
   -228983.58349   -177634.98847  23886615.6444   23886611.7574
      2425.9844
 04  9 16 21  8 59.9990000  0  7G 3G 8G13G19G23G27G10
   -782235.94749   -609497.87147  22527679.6834   22527676.3274
       140.0164
  -3832263.58649  -2974593.85048  21791880.3234   21791876.3084
      2619.0474
    243092.24849    185398.13348  20109835.0034   20109829.5194
      -517.3284
  -3706721.75249  -2876633.52247  22717539.1054   22717533.5424
      2386.9064
   3428342.49449   2655170.00447  22206073.2224   22206067.4604
     -2634.2194
  -2143850.98149  -1667866.75348  20848168.3234   20848163.1474
      1424.9224
   -265308.80349   -205940.35947  23879702.8394   23879699.1284
      2417.7974
 04  9 16 21  9 14.9990000  0  7G 3G 8G13G19G23G27G10
   -784259.13149   -611074.38747  22527294.9724   22527292.0544
       130.2034
  -3871523.51649  -3005185.99047  21784409.8784   21784405.3124
      2616.0634
    250918.11249    191496.20148  20111324.6594   20111318.8194
      -525.6414
  -3742472.92249  -2904491.55247  22710735.6444   22710730.6714
      2380.2814
   3467895.66749   2685990.60947  22213600.0264   22213594.0504
     -2639.2194
  -2165200.50449  -1684502.74248  20844105.5504   20844100.8084
      1422.0634
   -301511.68849   -234150.39147  23872814.2764   23872809.5034
      2409.6884
 04  9 16 21  9 29.9990000  0  7G 3G 8G13G19G23G27G10
   -786133.26249   -612534.74247  22526938.2374   22526934.4954
       119.7194
  -3910737.32549  -3035742.19647  21776948.0654   21776943.2144
      2612.4384
    258870.82749    197693.11748  20112837.9644   20112832.6404
      -534.7504
  -3778122.88549  -2932270.72947  22703951.6204   22703946.5974
      2373.0784
   3507525.34649   2716870.83847  22221141.1364   22221134.7224
     -2644.7974
  -2186504.58849  -1701103.34048  20840051.3784   20840046.5774
      1418.5164
   -337590.27749   -262263.57247  23865948.9644   23865944.4054
      2400.8594
 04  9 16 21  9 44.9990000  0  7G 3G 8G13G19G23G27G10
   -787862.54649   -613882.24447  22526609.0504   22526605.6834
       110.5004
  -3949909.46549  -3066265.92948  21769493.4014   21769489.2884
      2610.1094
    266946.08349    203985.51248  20114374.6204   20114368.8744
      -542.3754
  -3813675.51049  -2959974.05047  22697186.0344   22697181.3474
      2366.9534
   3547227.10049   2747807.21947  22228696.6284   22228690.3864
     -2649.1254
  -2207767.49549  -1717671.82448  20836005.4484   20836000.3124
      1416.2194
   -373548.79849   -290283.18147  23859105.9954   23859102.7534
      2393.3444
 04  9 16 21  9 59.9990000  0  7G 3G 8G13G19G23G27G10
   -789448.21749   -615117.81947  22526307.1594   22526303.9174
       100.8754
  -3989041.06449  -3096758.07648  21762046.9254   21762042.8944
      2607.3444
    275142.65549    210372.44148  20115934.4804   20115928.7804
      -550.5474
  -3849131.74049  -2987602.26547  22690439.2064   22690433.9134
      2360.4534
   3586999.48049   2778798.63947  22236264.6904   22236258.7264
     -2653.8444
  -2228990.43949  -1734209.18948  20831966.5194   20831961.2534
      1413.5314
   -409388.14449   -318209.93146  23852285.0504   23852281.4874
      2385.1884
 04  9 16 21 10 14.9990000  0  7G 3G 8G13G19G23G27G10
   -790891.90649   -616242.76147  22526032.0734   22526029.5464
        91.8284
  -4028133.46949  -3127219.66848  21754607.8554   21754603.7964
      2605.1094
    283459.06449    216852.75548  20117516.9484   20117511.3474
      -558.1564
  -3884492.75649  -3015156.28647  22683710.3704   22683705.0584
      2354.4694
   3626840.78349   2809843.77347  22243846.0344   22243840.3194
     -2658.1094
  -2250174.96349  -1750716.60248  20827935.3084   20827930.5464
      1411.3134
   -445109.60949   -346044.83447  23845488.2374   23845484.5384
      2377.7504
 04  9 16 21 10 29.9990000  0  7G 3G 8G13G19G23G27G10
   -792191.37249   -617255.32247  22525785.1514   22525781.7694
        81.7814
  -4067184.61149  -3157649.11748  21747176.6124   21747172.6054
      2601.9534
    291897.29649    223428.00048  20119122.6594   20119117.1054
      -566.6564
  -3919756.07849  -3042634.18347  22677000.0814   22676994.9724
      2347.5784
   3666752.92749   2840944.09047  22251441.2844   22251435.6284
     -2663.2664
  -2271318.85949  -1767192.36548  20823911.6834   20823907.2224
      1408.2194
   -480710.82849   -373786.03447  23838714.1834   23838709.1284
      2369.3754
 04  9 16 21 10 44.9990000  0  7G 3G 8G13G19G23G27G10
   -793351.63049   -618159.42447  22525564.6124   22525561.0074
        72.8594
  -4106199.53849  -3188050.34648  21739752.0584   21739748.1794
      2599.8754
    300452.42449    230094.32248  20120750.5734   20120745.1164
      -574.1254
  -3954926.44749  -3070039.64747  22670307.3944   22670301.7494
      2341.6414
   3706730.76749   2872095.61247  22259048.4404   22259043.0504
     -2667.2504
  -2292427.18349  -1783640.40148  20819894.9804   20819890.1204
      1406.0944
   -516196.64149   -401437.31946  23831960.3084   23831957.2614
      2361.9224
 04  9 16 21 10 59.9990000  0  7G 3G 8G13G19G23G27G10
   -794370.30549   -618953.19147  22525370.7064   22525367.6124
        63.0944
  -4145175.85349  -3218421.47948  21732335.2064   21732331.1054
      2597.0944
    309126.98449    236853.71948  20122401.5654   20122395.9174
      -582.2974
  -3990001.13949  -3097370.55447  22663633.2144   22663627.7144
      2335.0474
   3746776.42949   2903299.97447  22266669.3234   22266663.1054
     -2671.9534
  -2313497.40449  -1800058.75648  20815885.8474   20815880.7454
      1403.3754
   -551564.40349   -428996.58046  23825229.4404   23825226.8274
      2353.7974
 04  9 16 21 11 14.9990000  0  7G 3G 8G13G19G23G27G10
   -795246.12349   -619635.63247  22525203.9804   22525200.5034
        53.8134
  -4184111.96449  -3248761.29548  21724926.0194   21724921.6324
      2594.5784
    317922.10449    243707.04448  20124075.1594   20124069.3664
      -590.1874
  -4024978.60749  -3124625.72547  22656976.7304   22656971.2454
      2328.8444
   3786891.13249   2934558.13547  22274302.9484   22274297.3004
     -2676.4534
  -2334528.36449  -1816446.51148  20811883.2924   20811878.2454
      1400.9384
   -586812.67849   -456462.76347  23818522.4334   23818519.1284
      2346.0474
 04  9 16 21 11 29.9990000  0  7G 3G 8G13G19G23G27G10
   -795978.24049   -620206.10047  22525064.6054   22525061.3434
        43.8754
  -4223007.20349  -3279069.25948  21717524.9954   21717520.8004
      2591.4844
    326838.70349    250655.02648  20125772.0034   20125765.9874
      -598.5784
  -4059857.62549  -3151804.16247  22650339.1594   22650334.5854
      2321.8914
   3827075.38149   2965870.49847  22281950.0504   22281944.2654
     -2681.4374
  -2355519.11049  -1832802.93948  20807889.2924   20807884.7264
      1397.8754
   -621940.34749   -483834.97646  23811837.7924   23811834.7414
      2337.6254
 04  9 16 21 11 44.9990000  0  7G 3G 8G13G19G23G27G10
   -796566.94749   -620664.84047  22524952.9804   22524949.5584
        34.6254
  -4261861.78349  -3309345.53148  21710130.8624   21710126.8434
      2589.0314
    335876.40149    257697.38448  20127491.5814   20127485.8194
      -606.5164
  -4094638.26849  -3178905.94547  22643720.5504   22643715.9804
      2315.5164
   3867328.74549   2997236.71647  22289610.3154   22289604.2224
     -2685.6874
  -2376470.12049  -1849128.39848  20803902.1904   20803897.5894
      1395.5164
   -656947.49949   -511113.23746  23805176.3704   23805172.6554
      2329.8914
 04  9 16 21 11 59.9990000  0  7G 3G 8G13G19G23G27G10
   -797011.15249   -621010.96547  22524868.7064   22524864.7534
        25.1414
  -4300674.44849  -3339589.15648  21702745.0424   21702740.9604
      2586.4694
    345036.30349    264834.95848  20129234.7764   20129229.3314
      -614.4064
  -4129319.03949  -3205929.90747  22637121.7224   22637116.7924
      2308.9844
   3907652.10149   3028657.46847  22297282.7374   22297277.2844
     -2690.1414
  -2397380.03649  -1865421.83348  20799923.3864   20799918.2614
      1392.9844
   -691832.80349   -538296.56747  23798538.0114   23798534.1874
      2321.8754
 04  9 16 21 12 14.9990000  0  7G 3G 8G13G19G23G27G10
   -797314.90749   -621247.65547  22524810.2374   22524806.7724
        15.2974
  -4339449.41649  -3369803.40948  21695366.6204   21695361.7264
      2583.4064
    354314.41049    272064.63448  20131000.5034   20130995.0224
      -622.8594
  -4163903.77949  -3232879.06347  22630540.0584   22630534.8154
      2302.1564
   3948041.21749   3060129.44647  22304969.2454   22304963.2454
     -2695.1724
  -2418252.95249  -1881686.44348  20795950.9404   20795946.2534
      1390.0004
   -726600.12449   -565387.98947  23791921.9874   23791918.5224
      2313.3754
 04  9 16 21 12 29.9990000  0  7G 3G 8G13G19G23G27G10
   -797475.79649   -621373.03647  22524779.8004   22524776.4174
         5.4694
  -4378184.17349  -3399986.31948  21687995.4094   21687991.1754
      2580.5004
    363713.14749    279388.31648  20132788.9094   20132783.1404
      -631.1874
  -4198389.65249  -3259751.15147  22623977.6444   22623972.6364
      2295.1724
   3988498.31449   3091654.40847  22312667.7614   22312662.4914
     -2699.9694
  -2439086.39949  -1897920.30848  20791986.9014   20791982.2224
      1387.0004
   -761246.83249   -592385.45647  23785327.9564   23785325.3584
      2305.2194
 04  9 16 21 12 44.9990000  0  7G 3G 8G13G19G23G27G10
   -797489.89449   -621384.00547  22524776.7304   22524773.8584
        -4.3284
  -4416874.60349  -3430134.68448  21680632.5114   21680628.2494
      2577.5314
    373236.45349    286809.07248  20134601.2614   20134595.2534
      -639.3594
  -4232772.42549  -3286542.90147  22617434.6594   22617429.6674
      2288.4384
   4029027.21049   3123235.33147  22320380.0584   22320374.8314
     -2704.6094
  -2459876.46049  -1914120.34148  20788030.3624   20788025.6944
      1384.2814
   -795768.60549   -619285.47347  23778760.0034   23778756.3044
      2296.9224
 04  9 16 21 12 59.9990000  0  7G 3G 8G13G19G23G27G10
   -797361.09449   -621283.63947  22524801.1124   22524798.6944
       -13.1414
  -4455524.51549  -3460251.48148  21673277.8944   21673273.4524
      2575.6094
    382880.44849    294323.86548  20136436.3474   20136430.8154
      -646.7034
  -4267055.54949  -3313257.00547  22610911.0344   22610905.8744
      2282.5314
   4069623.87449   3154869.05347  22328105.1674   22328099.8864
     -2708.4374
  -2480626.88549  -1930289.50248  20784081.6754   20784077.0194
      1382.3134
   -830169.06749   -646091.04047  23772213.8394   23772210.5224
      2289.5634
 04  9 16 21 13 14.9990000  0  7G 3G 8G13G19G23G27G10
   -797092.56449   -621074.38647  22524852.1284   22524848.9994
       -22.2344
  -4494137.08049  -3490339.18148  21665930.0584   21665925.9954
      2573.2344
    392642.11249    301930.34048  20138293.8784   20138288.4874
      -654.3914
  -4301241.96749  -3339895.76447  22604405.4804   22604400.3084
      2276.1254
   4110284.90549   3186552.92547  22335842.9404   22335837.4094
     -2712.5624
  -2501340.84949  -1946430.24648  20780140.0584   20780134.8084
      1380.0634
   -864451.22349   -672804.41147  23765688.8474   23765686.8974
      2281.9844
 04  9 16 21 13 29.9990000  0  8G 3G 8G13G19G23G27G10G28
   -796690.32649   -620760.95747  22524929.0654   22524926.0654
       -31.2974
  -4532718.46349  -3520402.58548  21658588.4254   21658584.1324
      2571.0004
    402515.13949    309623.58748  20140172.7224   20140167.2104
      -662.0004
  -4335337.38149  -3366463.60847  22597917.0654   22597912.2494
      2269.8754
   4151004.03449   3218282.05747  22343591.7924   22343586.3554
     -2716.6874
  -2522024.39049  -1962547.29648  20776203.9254   20776199.1054
      1377.7974
   -898620.92249   -699430.09647  23759187.6364   23759184.3974
      2274.1724
   -174690.01459   -121705.50456  23993651.4174   23993649.8314
      3745.8444
 04  9 16 21 13 44.9990000  0  8G 3G 8G13G19G23G27G10G28
   -796146.49649   -620337.19047  22525032.7374   22525029.1984
       -41.0474
  -4571260.56149  -3550435.35848  21651254.0114   21651249.9874
      2568.1094
    412507.42249    317409.77948  20142074.1674   20142068.9294
      -670.1724
  -4369333.66149  -3392954.18347  22591448.2764   22591442.6554
      2263.0004
   4191788.98549   3250062.49947  22351352.8864   22351347.3004
     -2721.2194
  -2542669.60249  -1978634.46848  20772275.2454   20772270.4524
      1374.9224
   -932670.05349   -725961.88047  23752707.5264   23752705.3084
      2265.7504
   -230857.77749   -165472.49746  23982963.3004   23982961.7534
      3743.2814
 04  9 16 21 13 59.9990000  0  8G 3G 8G13G19G23G27G10G28
   -795460.58149   -619802.71247  22525162.5194   22525159.9684
       -50.0784
  -4609762.73549  -3580437.04848  21643927.5734   21643923.3704
      2565.7664
    422619.60549    325289.39548  20143998.4644   20143993.1084
      -677.8594
  -4403230.01049  -3419366.90047  22584997.9014   22584992.4764
      2256.7664
   4232640.06649   3281894.46047  22359126.2614   22359121.4334
     -2725.3124
  -2563275.93649  -1994691.35648  20768353.9404   20768349.2724
      1372.7344
   -966597.94549   -752399.17747  23746252.8784   23746248.8974
      2258.1254
   -286991.20449   -209212.74246  23972281.2064   23972279.5734
      3741.3134
 04  9 16 21 14 14.9990000  0  8G 3G 8G13G19G23G27G10G28
   -794635.34349   -619159.65947  22525319.8784   22525317.1674
       -60.0314
  -4648227.67049  -3610409.71148  21636607.7374   21636603.6634
      2562.7194
    432848.91049    333260.27348  20145945.3004   20145939.3744
      -686.2034
  -4437028.56849  -3445703.41447  22578565.9174   22578561.0814
      2249.6564
   4273554.44249   3313775.73947  22366912.2534   22366907.0584
     -2730.0474
  -2583846.03849  -2010719.99448  20764439.8624   20764434.9294
      1369.7664
  -1000406.92449   -778743.85747  23739818.5894   23739815.2964
      2249.5474
   -343092.83049   -252928.21746  23961605.2764   23961603.6634
      3738.5634
 04  9 16 21 14 29.9990000  0  8G 3G 8G13G19G23G27G10G28
   -793667.18849   -618405.24647  22525504.5584   22525501.2614
       -68.9844
  -4686651.72449  -3640350.51248  21629295.6364   21629291.5504
      2560.5944
    443199.07249    341325.32048  20147914.7144   20147909.0774
      -693.6564
  -4470725.54049  -3471960.77147  22572153.7694   22572148.4724
      2243.5004
   4314535.46649   3345708.96347  22374710.7924   22374705.5464
     -2733.8754
  -2604376.22949  -2026717.54748  20760533.0894   20760528.3554
      1367.7344
  -1034093.19249   -804992.87047  23733407.1594   23733404.3554
      2241.9844
   -399158.75849   -296615.86146  23950936.1594   23950933.9014
      3736.8754
 04  9 16 21 14 44.9990000  0  8G 3G 8G13G19G23G27G10G28
   -792562.45949   -617544.42547  22525714.7144   22525711.4014
       -78.0474
  -4725041.32249  -3670264.47548  21621990.5504   21621986.5034
      2558.3444
    453663.57049    349479.46448  20149905.7764   20149900.7654
      -701.3124
  -4504327.02649  -3498143.73347  22565759.7534   22565754.3084
      2237.1094
   4355576.56749   3377688.98847  22382520.9874   22382515.4684
     -2737.9694
  -2624873.02749  -2042689.08148  20756632.8704   20756627.9444
      1365.5164
  -1067663.01849   -831151.19446  23727019.8474   23727016.1554
      2234.1724
   -455195.15849   -340280.53046  23940272.6514   23940270.8824
      3734.9694
 04  9 16 21 14 59.9990000  0  8G 3G 8G13G19G23G27G10G28
   -791318.96049   -616575.45747  22525951.3004   22525947.7924
       -87.7034
  -4763394.12849  -3700149.75848  21614692.0584   21614688.0894
      2555.4384
    464244.68649    357724.48048  20151919.5584   20151914.1204
      -709.4224
  -4537830.55949  -3524250.34547  22559383.7614   22559378.5774
      2230.1884
   4396679.86249   3409717.47847  22390342.3864   22390336.9914
     -2742.4064
  -2645333.91449  -2058632.62248  20752739.2374   20752734.2494
      1362.7194
  -1101113.75449   -857216.67947  23720653.8084   23720650.7614
      2225.9694
   -511199.70749   -383920.34846  23929616.0734   23929613.6474
      3732.4534
 04  9 16 21 15 14.9990000  0  8G 3G 8G13G19G23G27G10G28
   -789935.63849   -615497.54047  22526214.5264   22526211.0654
       -96.8124
  -4801709.08749  -3730005.56548  21607401.0894   21607397.3274
      2553.1724
    474943.41749    366061.13548  20153955.3314   20153949.9764
      -717.0784
  -4571234.69249  -3550279.50047  22553027.1514   22553021.9444
      2223.7504
   4437846.15449   3441795.05647  22398176.2924   22398170.6204
     -2746.3754
  -2665757.91249  -2074547.43448  20748852.5974   20748847.8904
      1360.4064
  -1134444.20749   -883188.46047  23714311.7304   23714309.1204
      2218.0004
   -567171.03749   -427534.30846  23918964.8154   23918962.3474
      3730.4224
 04  9 16 21 15 29.9990000  0  8G 3G 8G13G19G23G27G10G28
   -788415.24149   -614312.79847  22526503.9404   22526500.5854
      -105.9224
  -4839988.61349  -3759833.75648  21600116.7224   21600112.8474
      2550.8444
    485757.40049    374487.60548  20156013.2924   20156007.9094
      -724.7504
  -4604541.78549  -3576233.04947  22546688.9484   22546684.1244
      2217.3284
   4479072.58149   3473919.50347  22406021.3004   22406016.2764
     -2750.4064
  -2686147.74049  -2090435.59648  20744972.3154   20744967.6444
      1358.1884
  -1167656.97949   -909068.52547  23707992.2304   23707988.3744
      2210.2504
   -623111.66949   -471124.31947  23908320.1204   23908317.5114
      3728.4064
 04  9 16 21 15 44.9990000  0  8G 3G 8G13G19G23G27G10G28
   -786756.55949   -613020.32747  22526819.5034   22526815.9444
      -115.8444
  -4878231.74749  -3789633.59348  21592839.3004   21592834.9804
      2547.7194
    496687.15449    383004.28248  20158093.1834   20158087.6054
      -733.0944
  -4637750.46549  -3602109.91547  22540369.6514   22540364.6904
      2210.0474
   4520359.99149   3506091.45547  22413878.1054   22413872.5654
     -2755.1874
  -2706502.22249  -2106296.24048  20741099.2454   20741094.3124
      1355.1724
  -1200750.75749   -934855.86446  23701693.5654   23701690.3084
      2201.6884
   -679020.43149   -514689.52147  23897680.1674   23897677.9834
      3725.5164
 04  9 16 21 15 59.9990000  0  8G 3G 8G13G19G23G27G10G28
   -784959.98649   -611620.38547  22527161.2374   22527157.7764
      -124.5164
  -4916438.67149  -3819405.21448  21585568.8394   21585564.4834
      2545.7344
    507732.65249    391611.15248  20160195.0194   20160189.4914
      -740.4224
  -4670860.58049  -3627909.97547  22534069.3004   22534064.2304
      2203.8134
   4561708.06249   3538310.68847  22421746.4014   22421740.9374
     -2758.7344
  -2726821.53849  -2122129.46448  20737232.4724   20737227.5934
      1353.3284
  -1233725.62749   -960550.57546  23695418.1124   23695415.2534
      2194.1884
   -734897.25049   -558229.84046  23887046.9254   23887044.6714
      3723.8594
 04  9 16 21 16 14.9990000  0  8G 3G 8G13G19G23G27G10G28
   -783023.86949   -610111.71447  22527529.4174   22527526.7694
      -134.3124
  -4954607.48049  -3849147.13048  21578305.4564   21578301.2614
      2542.7504
    518895.41249    400309.40448  20162318.9404   20162313.3974
      -748.6564
  -4703870.24449  -3653631.73847  22527787.1904   22527782.5814
      2196.6884
   4603118.24849   3570578.30447  22429626.8704   22429621.5974
     -2763.2504
  -2747104.01549  -2137933.98648  20733372.9094   20733368.3084
      1350.3754
  -1266579.44549   -986150.95947  23689167.2144   23689163.6714
      2185.5944
   -790740.27249   -601743.78546  23876420.5424   23876418.3154
      3721.1724
 04  9 16 21 16 29.9990000  0  8G 3G 8G13G19G23G27G10G28
   -780947.27149   -608493.58647  22527924.6594   22527921.5074
      -143.1254
  -4992737.28749  -3878858.65448  21571049.5584   21571045.5934
      2540.7664
    530176.63149    409099.95948  20164465.8394   20164460.3744
      -755.9694
  -4736778.08449  -3679274.18447  22521525.3704   22521520.3514
      2190.5314
   4644591.23949   3602894.87547  22437518.7614   22437513.5894
     -2766.8594
  -2767348.61749  -2153708.99548  20729520.3944   20729515.6674
      1348.4384
  -1299311.17549  -1011656.19747  23682937.7844   23682935.4094
      2178.0634
   -846548.28649   -645230.48246  23865800.8554   23865797.9294
      3719.4064
 04  9 16 21 16 44.9990000  0  8G 3G 8G13G19G23G27G10G28
   -778732.43349   -606767.74547  22528345.9644   22528343.0224
      -152.4224
  -5030830.37749  -3908541.57148  21563800.8944   21563796.5034
      2538.1254
    541574.13549    417981.11048  20166634.8624   20166629.1324
      -763.8594
  -4769586.07349  -3704838.82147  22515282.3394   22515276.8584
      2183.7344
   4686124.65049   3635258.51747  22445422.4014   22445417.4054
     -2771.0944
  -2787557.62049  -2169456.27348  20725674.6054   20725669.9014
      1345.8754
  -1331922.89749  -1037067.88346  23676732.9954   23676728.7844
      2169.8754
   -902323.42049   -688691.54646  23855187.0344   23855184.7224
      3717.0164
 04  9 16 21 16 59.9990000  0  8G 3G 8G13G19G23G27G10G28
   -776373.51349   -604929.62147  22528795.1834   22528791.6874
      -161.5944
  -5068880.88249  -3938191.29648  21556559.8554   21556555.5774
      2535.7344
    553093.53549    426957.25348  20168826.9174   20168821.5424
      -771.5944
  -4802288.22849  -3730320.97647  22509059.2844   22509054.3234
      2176.9844
   4727724.08349   3667673.60947  22453338.3474   22453333.2024
     -2775.1414
  -2807725.17049  -2185171.23848  20721836.8624   20721832.0384
      1343.5004
  -1364408.55949  -1062381.39247  23670550.3314   23670547.5894
      2162.0004
   -958059.74849   -732122.39247  23844580.8624   23844578.0504
      3714.8914
 04  9 16 21 17 14.9990000  0  8G 3G 8G13G19G23G27G10G28
   -773881.53649   -602987.81047  22529269.4724   22529266.3394
      -170.7974
  -5106899.62049  -3967816.29148  21549325.3004   21549320.9524
      2533.3284
    564723.85349    436019.81748  20171040.1284   20171034.4484
      -779.2344
  -4834895.14249  -3755728.93747  22502854.5034   22502849.1514
      2170.4384
   4769378.35649   3700131.44247  22461264.9014   22461259.3514
     -2778.9694
  -2827862.20649  -2200862.43848  20718005.1204   20718000.2654
      1341.2814
  -1396778.80549  -1087604.98247  23664391.3704   23664387.1204
      2154.0164
  -1013768.01549   -775531.35946  23833979.6904   23833977.3314
      3712.7664
 04  9 16 21 17 29.9990000  0  8G 3G 8G13G19G23G27G10G28
   -771249.55949   -600936.90547  22529770.4804   22529766.8474
      -179.8594
  -5144879.43649  -3997410.93448  21542098.1594   21542093.8904
      2530.9224
    576472.18149    445174.35448  20173275.7374   20173270.2064
      -786.9374
  -4867399.46849  -3781056.93847  22496668.6834   22496663.6444
      2163.7814
   4811094.35349   3732637.37147  22469203.6124   22469197.7414
     -2782.9224
  -2847961.52749  -2216524.23748  20714180.3154   20714175.6084
      1338.9534
  -1429026.36349  -1112732.93947  23658254.5584   23658250.7804
      2145.9694
  -1069440.85949   -818912.73046  23823385.3704   23823382.7064
      3710.5004
 04  9 16 21 17 44.9990000  0  8G 3G 8G13G19G23G27G10G28
   -768482.40349   -598780.68247  22530296.7304   22530294.0424
      -189.1874
  -5182825.36549  -4026979.18348  21534876.8554   21534872.9134
      2528.4064
    588333.64549    454417.04348  20175532.8084   20175527.3044
      -794.8124
  -4899805.70249  -3806308.51047  22490502.0654   22490496.2334
      2156.7664
   4852867.03349   3765187.45447  22477152.5194   22477146.8234
     -2786.9844
  -2868028.00249  -2232160.45448  20710361.6054   20710356.9294
      1336.4064
  -1461155.99449  -1137769.00147  23652140.1364   23652136.9294
      2137.8914
  -1125082.96749   -862270.14147  23812796.5264   23812794.7694
      3708.1564
 04  9 16 21 17 59.9990000  0  8G 3G 8G13G19G23G27G10G28
   -765571.91849   -596512.75647  22530850.6984   22530847.2454
      -199.0944
  -5220728.81449  -4056514.33448  21527664.2224   21527659.6794
      2525.2814
    600316.43749    463754.27048  20177813.1754   20177807.7844
      -803.1094
  -4932105.29449  -3831476.99447  22484355.6754   22484350.6944
      2149.5314
   4894704.58549   3797788.09047  22485114.3474   22485108.6594
     -2791.5314
  -2888053.34949  -2247764.62248  20706550.9174   20706545.9374
      1333.4694
  -1493159.24549  -1162706.57547  23646050.1754   23646047.0734
      2129.1564
  -1180685.92949   -905597.02847  23802216.3784   23802213.6904
      3705.2974
 04  9 16 21 18 14.9990000  0  8G 3G 8G13G19G23G27G10G28
   -762522.09949   -594136.26947  22531431.1054   22531428.1794
      -207.9844
  -5258593.68849  -4086019.41648  21520458.7064   21520454.2724
      2523.0944
    612416.56549    473182.93148  20180115.4094   20180110.0854
      -810.5164
  -4964301.97549  -3856565.27147  22478228.6054   22478223.3234
      2143.1254
   4936602.61249   3830435.85447  22493086.9334   22493081.3624
     -2795.2194
  -2908041.49749  -2263339.79448  20702747.1674   20702742.8434
      1331.3284
  -1525039.89149  -1187548.65547  23639983.6124   23639979.9994
      2121.3134
  -1236253.60949   -948896.47047  23791641.7924   23791639.6554
      3703.3594
 04  9 16 21 18 29.9990000  0  8G 3G 8G13G19G23G27G10G28
   -759332.72549   -591651.03047  22532038.3944   22532035.1164
      -217.2344
  -5296420.01249  -4115494.46048  21513260.7534   21513256.6474
      2520.4844
    624634.25449    482703.19848  20182440.7534   20182435.3044
      -818.4224
  -4996395.15749  -3881572.89247  22472121.3394   22472115.8004
      2136.2194
   4978561.14449   3863130.76347  22501071.7064   22501065.6404
     -2799.2194
  -2927992.26649  -2278885.84548  20698950.7144   20698946.1054
      1328.8284
  -1556797.51249  -1212294.82947  23633940.4954   23633937.3314
      2113.0784
  -1291785.49249   -992167.95547  23781073.7534   23781071.6634
      3700.9384
 04  9 16 21 18 44.9990000  0  8G 3G 8G13G19G23G27G10G28
   -756001.82149   -589055.51947  22532672.0114   22532668.3124
      -226.3124
  -5334205.85749  -4144937.97148  21506070.1834   21506066.4874
      2518.1884
    636971.34349    492316.49948  20184788.3234   20184782.6054
      -825.9694
  -5028382.71249  -3906498.22447  22466034.4954   22466028.9724
      2129.4064
   5020581.98449   3895874.23747  22509067.6284   22509062.0344
     -2802.9534
  -2947903.70949  -2294401.24848  20695161.6444   20695157.1204
      1326.6094
  -1588429.98849  -1236943.53746  23627920.5034   23627917.0224
      2105.2344
  -1347279.41349  -1035409.91447  23770514.1204   23770512.3084
      3698.8284
 04  9 16 21 18 59.9990000  0  8G 3G 8G13G19G23G27G10G28
   -752533.22249   -586352.70047  22533331.7374   22533328.6714
      -235.9224
  -5371954.44249  -4174352.45048  21498886.7764   21498882.6594
      2515.2504
    649424.25449    502020.05548  20187158.3474   20187152.7414
      -834.1874
  -5060267.88049  -3931343.77847  22459967.1594   22459961.7534
      2122.1564
   5062661.35949   3928663.30847  22517074.8154   22517069.6164
     -2807.3444
  -2967779.30549  -2309888.72148  20691379.4954   20691374.7184
      1323.6884
  -1619940.74149  -1261497.34547  23621924.3554   23621921.5034
      2096.5314
  -1402738.92449  -1078625.04447  23759960.4644   23759958.0264
      3695.9844
 04  9 16 21 19 14.9990000  0  8G 3G 8G13G19G23G27G10G28
   -748928.55849   -583543.84847  22534017.7694   22534014.3824
      -244.6414
  -5409667.47249  -4203739.20648  21491710.3474   21491706.0074
      2513.1414
    661991.29649    511812.54548  20189549.2694   20189543.9524
      -841.4374
  -5092052.13549  -3956110.68647  22453918.6284   22453913.2654
      2115.7504
   5104797.32949   3961496.48647  22525093.7694   22525088.1364
     -2810.6874
  -2987620.68049  -2325349.52948  20687603.7764   20687598.9804
      1321.7664
  -1651331.24449  -1285957.45647  23615950.9804   23615947.6444
      2088.8444
  -1458165.49549  -1121814.48347  23749413.5264   23749410.9604
      3694.1884
 04  9 16 21 19 29.9990000  0  8G 3G 8G13G19G23G27G10G28
   -745186.93849   -580628.31247  22534729.7064   22534726.3314
      -254.0624
  -5447344.18749  -4233097.68348  21484540.6904   21484536.5264
      2510.5004
    674673.27249    521694.59648  20191962.7144   20191957.2224
      -849.3594
  -5123734.10749  -3980797.90547  22447889.7924   22447884.0504
      2108.6094
   5146990.77949   3994374.43747  22533122.7374   22533117.4724
     -2814.9374
  -3007426.95049  -2340782.98448  20683835.1904   20683829.7654
      1319.1884
  -1682600.32249  -1310322.97847  23610000.8154   23609997.2064
      2080.4384
  -1513557.98249  -1164977.41147  23738872.5894   23738870.5224
      3691.5314
 04  9 16 21 19 44.9990000  0  8G 3G 8G13G19G23G27G10G28
   -741308.31449   -577605.98147  22535467.8474   22535464.6284
      -263.3124
  -5484984.16749  -4262427.52448  21477378.0974   21477373.9644
      2507.9064
    687470.38249    531666.35348  20194398.0654   20194392.5694
      -857.2504
  -5155313.43849  -4005405.15347  22441880.1054   22441874.5464
      2101.5944
   5189241.48449   4027297.01147  22541162.8784   22541157.0224
     -2818.7664
  -3027197.86749  -2356188.89348  20680072.5894   20680067.7104
      1316.7504
  -1713747.72649  -1334593.68347  23604073.2144   23604069.8124
      2072.2504
  -1568916.05949  -1208113.49847  23728338.3154   23728335.9334
      3689.1254
 04  9 16 21 19 59.9990000  0  8G 3G 8G13G19G23G27G10G28
   -737289.87449   -574474.72247  22536232.6594   22536229.1554
      -272.4374
  -5522584.55049  -4291726.51348  21470223.0504   21470218.6794
      2505.5164
    700385.36549    541729.97148  20196855.8944   20196850.0074
      -864.7974
  -5186787.07249  -4029930.02447  22435891.1364   22435885.7104
      2094.8134
   5231552.07149   4060266.24147  22549214.0114   22549208.7374
     -2822.5784
  -3046930.55049  -2371565.01248  20676317.8004   20676313.1674
      1314.3444
  -1744770.31749  -1358767.09147  23598170.3004   23598166.9374
      2064.1094
  -1624236.66449  -1251220.37347  23717810.5264   23717808.2224
      3686.8594
 04  9 16 21 20 14.9990000  0  8G 3G 8G13G19G23G27G10G28
   -733133.96849   -571236.34047  22537023.4484   22537020.0694
      -281.8284
  -5560147.27849  -4320996.15748  21463074.9564   21463071.0304
      2502.7814
    713415.99749    551883.69648  20199335.4254   20199329.9644
      -872.7814
  -5218156.77749  -4054373.90347  22429921.3864   22429916.3044
      2087.7194
   5273920.21049   4093280.33347  22557276.7924   22557271.3704
     -2826.6874
  -3066627.21749  -2386913.06148  20672569.3784   20672564.3434
      1311.7194
  -1775670.20749  -1382844.93947  23592290.1204   23592286.7574
      2055.7814
  -1679521.92149  -1294299.73947  23707290.3554   23707287.8394
      3684.3914
 04  9 16 21 20 29.9990000  0  8G 3G 8G13G19G23G27G10G28
   -728840.57149   -567890.83647  22537840.1904   22537837.2184
      -291.1874
  -5597672.70949  -4350236.75248  21455934.0424   21455930.3004
      2500.0784
    726562.14849    562127.43848  20201836.8944   20201831.2724
      -880.5784
  -5249422.46449  -4078736.75547  22423971.9334   22423966.3154
      2080.5944
   5316345.59449   4126339.01947  22565349.6124   22565344.6634
     -2830.5164
  -3086287.98749  -2402233.13848  20668828.1834   20668823.7024
      1309.2034
  -1806447.24849  -1406827.02647  23586433.9644   23586429.6124
      2047.4064
  -1734771.60349  -1337351.38147  23696776.2374   23696774.2654
      3681.8134
 04  9 16 21 20 44.9990000  0  8G 3G 8G13G19G23G27G10G28
   -724408.69449   -564437.40747  22538683.7304   22538680.7494
      -300.2034
  -5635159.63749  -4379447.33048  21448800.5194   21448796.1634
      2497.7194
    739825.07149    572462.16948  20204360.9014   20204355.6634
      -888.2034
  -5280582.53449  -4103017.30347  22418042.2224   22418036.5734
      2073.6724
   5358829.25049   4159443.09847  22573434.1834   22573428.7374
     -2834.2504
  -3105911.53449  -2417524.21148  20665093.9014   20665089.0974
      1306.8284
  -1837100.00049  -1430712.32247  23580600.8784   23580596.7844
      2039.2504
  -1789984.45449  -1380374.29247  23686269.8234   23686267.0894
      3679.4694
 04  9 16 21 20 59.9990000  0  8G 3G 8G13G19G23G27G10G28
   -719836.76349   -560874.86047  22539553.6054   22539550.9564
      -308.7974
  -5672606.28049  -4408626.52548  21441674.9094   21441670.2454
      2495.7974
    753206.25249    582889.05048  20206907.3394   20206901.8124
      -895.3594
  -5311635.09749  -4127214.06947  22412133.0034   22412127.9094
      2067.2814
   5401372.60349   4192593.71247  22581530.1124   22581524.6674
     -2837.5624
  -3125496.18049  -2432784.97348  20661366.7534   20661362.2884
      1305.0314
  -1867626.74449  -1454499.38647  23574791.4724   23574787.9334
      2031.5944
  -1845158.60649  -1423367.12946  23675770.6754   23675767.7764
      3677.7194
 04  9 16 21 21 14.9990000  0  8G 3G 8G13G19G23G27G10G28
   -715134.08549   -557210.41447  22540448.3474   22540445.5464
      -317.7194
  -5710021.88349  -4437781.51948  21434554.4094   21434550.1124
      2493.4384
    766696.39549    593400.83048  20209474.0734   20209468.8394
      -902.8754
  -5342589.31749  -4151334.21747  22406242.6364   22406237.6084
      2060.5004
   5443965.98949   4225783.31047  22589634.9484   22589629.8824
     -2841.1094
  -3145051.23449  -2448022.68348  20657645.6674   20657641.2064
      1302.8594
  -1898036.53249  -1478195.28047  23569004.8784   23569000.4524
      2023.5164
  -1900303.23549  -1466336.85447  23665276.4014   23665273.4834
      3675.5474
 04  9 16 21 21 29.9990000  0  8G 3G 8G13G19G23G27G10G28
   -710298.79349   -553442.63547  22541368.2534   22541365.5264
      -327.0944
  -5747404.67249  -4466910.95648  21427441.1364   21427436.6874
      2490.7344
    780297.23449    603998.87948  20212062.3784   20212057.0154
      -910.7974
  -5373443.02649  -4175376.04047  22400371.5654   22400365.7964
      2053.2814
   5486611.03949   4259013.16847  22597750.2224   22597745.2724
     -2845.1254
  -3164574.88849  -2463235.91248  20653930.6364   20653925.7614
      1300.1724
  -1928327.37549  -1501798.55747  23563240.5424   23563236.7884
      2015.0474
  -1955416.23649  -1509282.01047  23654789.4014   23654786.1714
      3672.8134
 04  9 16 21 21 44.9990000  0  8G 3G 8G13G19G23G27G10G28
   -705321.89549   -549564.51947  22542315.8474   22542312.7374
      -336.4844
  -5784745.32049  -4496007.55548  21420335.3394   21420330.9054
      2487.9384
    794017.94049    614690.32648  20214673.2224   20214667.9134
      -918.7344
  -5404186.76449  -4199332.17147  22394520.8864   22394515.3234
      2045.8444
   5529316.81049   4292290.34447  22605876.9484   22605871.6674
     -2849.1254
  -3184057.78849  -2478417.38748  20650223.1674   20650218.0114
      1297.5004
  -1958489.82149  -1525301.74147  23557500.9404   23557497.0814
      2006.5474
  -2010488.22249  -1552195.16247  23644309.0814   23644306.7924
      3670.0164
 04  9 16 21 21 59.9990000  0  8G 3G 8G13G19G23G27G10G28
   -700205.46049   -545577.68147  22543289.3474   22543285.8624
      -345.6564
  -5822045.75849  -4525072.82548  21413237.5344   21413233.0424
      2485.4384
    807856.41049    625473.53948  20217307.0814   20217301.6594
      -926.4224
  -5434822.25949  -4223203.95747  22388691.4804   22388686.1364
      2038.8284
   5572081.00749   4325613.04547  22614014.9174   22614009.5304
     -2852.8284
  -3203502.01649  -2493568.72748  20646522.9404   20646518.3944
      1295.0784
  -1988525.84849  -1548706.45047  23551785.6674   23551781.2924
      1998.2664
  -2065521.13349  -1595077.93947  23633836.5504   23633834.2184
      3667.6254
 04  9 16 21 22 14.9990000  0  8G 3G 8G13G19G23G27G10G28
   -694955.68649   -541486.93647  22544288.6284   22544285.2104
      -354.6414
  -5859312.08849  -4554111.50848  21406145.7304   21406141.5934
      2483.0164
    821806.50949    636343.73248  20219961.5734   20219956.2614
      -933.9534
  -5465355.30849  -4246995.91847  22382881.0034   22382875.6674
      2031.8594
   5614897.43149   4358976.45347  22622162.9334   22622157.2024
     -2856.3124
  -3222913.63449  -2508694.65948  20642828.9954   20642824.4644
      1292.7814
  -2018441.35149  -1572017.23247  23546092.7374   23546089.1514
      1990.1724
  -2120520.82849  -1637934.72247  23623370.3864   23623367.8314
      3665.3134
 04  9 16 21 22 29.9990000  0  8G 3G 8G13G19G23G27G10G28
   -689567.63349   -537288.42847  22545313.8784   22545310.5894
      -363.8124
  -5896539.24649  -4583119.67148  21399061.6594   21399057.2184
      2480.5474
    835873.21349    647304.78848  20222638.2224   20222633.1474
      -941.6254
  -5495780.60349  -4270703.91847  22377091.2614   22377085.7224
      2024.8134
   5657770.79049   4392384.20647  22630321.2534   22630316.2654
     -2860.0784
  -3242287.58949  -2523791.24848  20639142.3394   20639137.3704
      1290.3444
  -2048231.19449  -1595230.07347  23540424.4644   23540420.6404
      1981.8754
  -2175482.11849  -1680761.68747  23612911.5504   23612909.2104
      3662.8914
 04  9 16 21 22 44.9990000  0  8G 3G 8G13G19G23G27G10G28
   -684041.71549   -532982.50847  22546365.2454   22546361.5224
      -373.1874
  -5933727.46849  -4612097.49448  21391984.9804   21391980.4804
      2477.7194
    850056.20049    658356.45448  20225337.3314   20225331.9684
      -949.5944
  -5526098.33549  -4294328.11047  22371322.4804   22371316.7494
      2017.4224
   5700700.49249   4425835.87547  22638490.4874   22638485.5654
     -2864.0164
  -3261624.34049  -2538858.84348  20635462.7844   20635458.2064
      1287.6564
  -2077895.54149  -1618345.11747  23534778.7924   23534775.2454
      1973.3444
  -2230405.28549  -1723558.88647  23602459.6984   23602457.4294
      3660.0314
 04  9 16 21 22 59.9990000  0  8G 3G 8G13G19G23G27G10G28
   -678374.84849   -528566.76247  22547443.0114   22547439.8864
      -382.5314
  -5970873.66549  -4641042.56948  21384916.2614   21384911.8084
      2475.0474
    864358.60849    669501.17748  20228058.6594   20228053.2724
      -957.5624
  -5556304.97849  -4317865.72947  22365573.8864   22365568.4254
      2010.0784
   5743689.59949   4459333.81347  22646671.2224   22646665.9914
     -2867.9374
  -3280920.43749  -2553894.76448  20631790.8624   20631786.0774
      1285.0004
  -2107430.98049  -1641359.73747  23529158.1054   23529154.2574
      1964.7034
  -2285286.85949  -1766323.69347  23592016.7764   23592014.0424
      3657.2814
 04  9 16 21 23 14.9990000  0  8G 3G 8G13G19G23G27G10G28
   -672566.41949   -524040.69847  22548549.0894   22548545.3124
      -391.8124
  -6007977.02249  -4669954.25948  21377855.8314   21377851.8824
      2472.2034
    878780.83849    680739.26748  20230803.6124   20230797.9214
      -965.3284
  -5586399.69849  -4341316.14547  22359847.3864   22359841.7064
      2002.6564
   5786738.46049   4492878.33647  22654862.6594   22654858.0464
     -2871.8754
  -3300175.35249  -2568898.58548  20628126.9094   20628121.7694
      1282.4224
  -2136836.81249  -1664273.36347  23523563.3004   23523558.8044
      1956.2504
  -2340126.19649  -1809055.58647  23581581.3624   23581578.0264
      3654.5944
 04  9 16 21 23 29.9990000  0  8G 3G 8G13G19G23G27G10G28
   -666612.27249   -519401.08547  22549681.7924   22549678.5384
      -401.8124
  -6045033.34449  -4698829.30048  21370804.0424   21370799.7534
      2468.8914
    893327.13049    692074.03148  20233571.3154   20233566.1084
      -973.8594
  -5616377.93649  -4364675.78347  22354142.6514   22354137.1164
      1994.7664
   5829850.96049   4526472.43247  22663066.8474   22663062.0154
     -2876.2194
  -3319384.79149  -2583866.97748  20624471.2534   20624466.3474
      1279.1564
  -2166108.56749  -1687082.50047  23517992.1054   23517988.8514
      1947.0164
  -2394918.77949  -1851751.04247  23571154.0974   23571151.6324
      3651.3444
 04  9 16 21 23 44.9990000  0  8G 3G 8G13G19G23G27G10G28
   -660515.28449   -514650.18147  22550842.4334   22550838.7454
      -411.0944
  -6082045.26049  -4727669.74848  21363761.0814   21363756.6944
      2466.1254
    907994.76849    703503.34548  20236362.4804   20236357.3514
      -981.7814
  -5646242.14149  -4387946.57247  22348459.5114   22348453.8624
      1987.2194
   5873024.32449   4560113.96147  22671283.0344   22671277.5854
     -2880.1724
  -3338551.42549  -2598802.01048  20620823.9564   20620818.9684
      1276.4384
  -2195248.77549  -1709789.15547  23512447.0194   23512443.3784
      1938.4064
  -2449667.13249  -1894412.03847  23560735.9874   23560733.2104
      3648.5634
 04  9 16 21 23 59.9990000  0  8G 3G 8G13G19G23G27G10G28
   -654277.22149   -509789.32947  22552029.4724   22552026.0654
      -420.3594
  -6119014.43449  -4756476.87548  21356725.8784   21356721.3824
      2463.3594
    922781.95049    715025.80748  20239176.2224   20239171.0304
      -989.5944
  -5675993.70749  -4411129.58247  22342797.5424   22342792.7614
      1979.9224
   5916256.64449   4593801.43347  22679509.4874   22679504.7264
     -2883.9064
  -3357676.98549  -2613705.03248  20617184.4804   20617179.7804
      1273.8914
  -2224258.98049  -1732394.49247  23506926.4334   23506923.1554
      1929.8594
  -2504372.78749  -1937039.75447  23550326.1364   23550322.8784
      3645.8134
 04  9 16 21 24 14.9990000  0  8G 3G 8G13G19G23G27G10G28
   -647898.54449   -504818.93047  22553242.6834   22553239.2654
      -430.0474
  -6155941.10849  -4785250.89048  21349699.2844   21349694.4014
      2460.2344
    937688.21349    726641.06448  20242013.0114   20242007.6364
      -997.8594
  -5705632.81749  -4434224.97647  22337157.3704   22337151.9294
      1972.0474
   5959547.29949   4627534.35147  22687747.9644   22687742.6084
     -2888.1724
  -3376761.76449  -2628576.28748  20613552.9334   20613547.7964
      1270.8284
  -2253139.45449  -1754898.73247  23501430.8084   23501427.6364
      1920.8594
  -2559036.00349  -1979634.41247  23539923.4954   23539921.2724
      3642.6884
 04  9 16 21 24 29.9990000  0  8G 3G 8G13G19G23G27G10G28
   -641377.37349   -499737.48547  22554483.8554   22554480.8664
      -439.4844
  -6192823.54749  -4813990.44848  21342680.7844   21342676.6944
      2457.4224
    952715.34749    738350.50148  20244872.7454   20244867.4724
     -1005.7664
  -5735157.33749  -4457231.08347  22331539.1284   22331534.3084
      1964.4694
   6002897.96749   4661314.03347  22695997.0584   22695992.0694
     -2892.0004
  -3395803.87449  -2643414.30448  20609929.3474   20609924.7184
      1268.0784
  -2281888.00349  -1777300.21447  23495960.5974   23495957.1084
      1912.2194
  -2613654.77249  -2022194.44147  23529529.5194   23529527.0654
      3639.7974
 04  9 16 21 24 44.9990000  0  8G 3G 8G13G19G23G27G10G28
   -634715.67049   -494546.54247  22555752.0034   22555748.1244
      -449.0944
  -6229663.40349  -4842696.81448  21335670.2534   21335665.9804
      2454.3284
    967861.63349    750152.78648  20247755.0894   20247749.8274
     -1013.9374
  -5764568.73849  -4480149.02747  22325942.3624   22325937.1204
      1956.7504
   6046306.59749   4695138.88147  22704257.8314   22704252.6164
     -2896.0624
  -3414804.99249  -2658220.36648  20606313.3864   20606308.4834
      1265.1254
  -2310506.38149  -1799600.26247  23490514.2224   23490510.6594
      1903.2814
  -2668230.57449  -2064720.96547  23519144.6054   23519141.6124
      3636.7664
 04  9 16 21 24 59.9990000  0  8G 3G 8G13G19G23G27G10G28
   -627911.41349   -489244.51847  22557046.7844   22557043.2374
      -458.1724
  -6266458.52949  -4871368.32748  21328668.3864   21328663.6514
      2451.7504
    983129.11649    762049.51148  20250659.9334   20250654.4804
     -1021.6414
  -5793864.59649  -4502976.94247  22320367.5114   22320362.1444
      1949.3754
   6089775.17849   4729010.45947  22712529.4254   22712524.6324
     -2899.7034
  -3433763.05549  -2672992.88148  20602705.7694   20602701.1594
      1262.6254
  -2338992.39649  -1821797.12147  23485093.6984   23485090.0424
      1894.8754
  -2722761.18249  -2107212.30547  23508767.2924   23508764.8194
      3634.1094
 04  9 16 21 25 14.9990000  0  8G 3G 8G13G19G23G27G10G28
   -620965.19649   -483831.88447  22558368.1834   22558364.9374
      -468.2664
  -6303209.29949  -4900005.28048  21321674.7224   21321670.5034
      2448.0784
    998517.29049    774040.27748  20253588.4484   20253582.9914
     -1030.3754
  -5823045.12449  -4525714.99647  22314814.6444   22314809.7224
      1941.0944
   6133302.90949   4762928.11747  22720812.3554   22720807.1794
     -2904.2974
  -3452678.42049  -2687732.12048  20599106.4094   20599101.6834
      1259.1884
  -2367346.18149  -1843890.97147  23479697.7534   23479694.3354
      1885.2814
  -2777246.85149  -2149668.60847  23498399.1514   23498396.8664
      3630.4534
 04  9 16 21 25 29.9990000  0  8G 3G 8G13G19G23G27G10G28
   -613873.54049   -478305.90247  22559717.9644   22559714.3154
      -477.5624
  -6339912.28249  -4928604.98148  21314690.5194   21314685.9834
      2445.3754
   1014029.31649    786127.55848  20256540.2144   20256534.9804
     -1038.2194
  -5852106.74949  -4548360.39147  22309284.6444   22309279.1944
      1933.5474
   6176892.98949   4796894.36047  22729107.2304   22729102.4764
     -2908.0164
  -3471547.64949  -2702435.41448  20595515.8944   20595510.6204
      1256.5004
  -2395564.23749  -1865879.04247  23474327.8154   23474324.4404
      1876.8594
  -2831684.04249  -2192087.10347  23488039.9014   23488037.5854
      3627.5784
 04  9 16 21 25 44.9990000  0  8G 3G 8G13G19G23G27G10G28
   -606640.41349   -472669.68247  22561094.3314   22561090.5694
      -486.5314
  -6376571.14849  -4957170.32248  21307714.4564   21307709.8474
      2442.8444
   1029661.51049    798308.48548  20259515.1834   20259509.5584
     -1045.7664
  -5881052.86749  -4570915.78347  22303775.9564   22303771.0384
      1926.2664
   6220541.53949   4830906.15747  22737413.6594   22737408.7964
     -2911.4374
  -3490374.46949  -2717105.65548  20591932.8234   20591928.4954
      1254.0474
  -2423650.15049  -1887764.16447  23468984.1364   23468980.2654
      1868.3284
  -2886076.32749  -2234470.63247  23477689.4874   23477686.7884
      3625.0944
 04  9 16 21 25 59.9990000  0  8G 3G 8G13G19G23G27G10G28
   -599270.82149   -466927.14147  22562496.6284   22562493.4254
      -496.1254
  -6413190.71449  -4985705.03648  21300746.0424   21300741.5774
      2439.7194
   1045408.85049    810579.11748  20262511.6754   20262506.2414
     -1053.9534
  -5909888.25349  -4593384.87747  22298288.7454   22298283.1944
      1918.4224
   6264243.40149   4864959.50447  22745730.1444   22745724.8944
     -2915.4374
  -3509163.72149  -2731746.62348  20588357.7374   20588352.8514
      1251.1094
  -2451608.70049  -1909550.03847  23463663.3784   23463659.9874
      1859.3914
  -2940428.44449  -2276822.88247  23467347.0344   23467343.5734
      3621.9534
 04  9 16 21 26 14.9990000  0  8G 3G 8G13G19G23G27G10G28
   -591761.90749   -461076.03447  22563925.4254   22563921.8624
      -505.3754
  -6449768.05549  -5014206.85048  21293785.4484   21293781.1474
      2436.8754
   1061274.27149    822941.76848  20265530.9014   20265525.5774
     -1061.8284
  -5938609.52549  -4615765.07147  22292823.6284   22292818.0934
      1910.7034
   6308001.31249   4899056.51647  22754056.6284   22754051.7654
     -2919.2504
  -3527912.58649  -2746356.12748  20584789.5194   20584785.2144
      1248.4064
  -2479436.75549  -1931234.23647  23458367.9874   23458364.0344
      1850.6254
  -2994737.34749  -2319141.42847  23457012.0034   23457009.4684
      3619.0004
 04  9 16 21 26 29.9990000  0  8G 3G 8G13G19G23G27G10G28
   -584112.59349   -455115.52247  22565380.9564   22565377.6834
      -514.3444
  -6486301.91949  -5042674.78848  21286833.4254   21286828.9404
      2434.4224
   1077258.87049    835397.29048  20268572.5974   20268567.2694
     -1069.3284
  -5967215.40349  -4638055.33747  22287380.0734   22287374.6474
      1903.5474
   6351816.11149   4933197.85647  22762394.5034   22762389.9174
     -2922.5314
  -3546619.75849  -2760933.13848  20581229.8154   20581224.9214
      1246.0314
  -2507132.98649  -1952815.70047  23453097.1594   23453093.3474
      1842.3754
  -3049001.60949  -2361425.21647  23446685.9014   23446682.8664
      3616.4064
 04  9 16 21 26 44.9990000  0  8G 3G 8G13G19G23G27G10G28
   -576327.61849   -449049.29347  22566862.3624   22566858.8974
      -523.8444
  -6522797.00149  -5071112.49248  21279888.8314   21279884.3864
      2431.3284
   1093357.90649    847941.98848  20271636.1284   20271630.7184
     -1077.4844
  -5995710.22849  -4660259.06847  22281957.5974   22281952.1474
      1895.6254
   6395683.00049   4967379.80347  22770741.6594   22770736.9334
     -2926.5944
  -3565289.76849  -2775481.19648  20577676.9254   20577672.0854
      1243.0944
  -2534701.91649  -1974297.98247  23447851.3394   23447848.1364
      1833.2974
  -3103225.74849  -2403677.73247  23436367.3784   23436364.3194
      3613.1884
 04  9 16 21 26 59.9990000  0  8G 3G 8G13G19G23G27G10G28
   -568399.71149   -442871.69847  22568370.7844   22568367.8784
      -533.0314
  -6559245.84149  -5099514.17248  21272952.6204   21272948.4644
      2428.6724
   1109578.72949    860581.58548  20274722.6834   20274717.9054
     -1085.1874
  -6024086.35449  -4682370.30747  22276557.4254   22276552.4994
      1887.9844
   6439609.07949   5001607.86247  22779101.2224   22779096.4054
     -2930.0784
  -3583915.34249  -2789994.62048  20574133.0894   20574127.4804
      1240.4694
  -2562136.14049  -1995675.26747  23442630.7844   23442627.2654
      1824.6884
  -3157402.21949  -2445893.07847  23426057.5734   23426054.8394
      3610.3754
 04  9 16 21 27 14.9990000  0  8G 3G 8G13G19G23G27G10G28
   -560330.71549   -436584.16347  22569906.2614   22569903.3394
      -542.7034
  -6595650.01249  -5127881.06148  21266025.0814   21266020.6674
      2425.3284
   1125919.60849    873314.71448  20277832.6674   20277827.1834
     -1093.4534
  -6052345.25549  -4704390.20047  22271180.0114   22271174.8124
      1879.8444
   6483592.49549   5035880.58147  22787471.1124   22787465.8784
     -2934.2194
  -3602498.05749  -2804474.66448  20570596.8084   20570591.8864
      1237.3594
  -2589437.11349  -2016948.77447  23437434.7694   23437431.7694
      1815.5004
  -3211532.56449  -2488072.50747  23415756.8314   23415753.6474
      3607.1254
 04  9 16 21 27 29.9990000  0  8G 3G 8G13G19G23G27G10G28
   -552126.13249   -430190.97947  22571467.9334   22571464.0774
      -551.7814
  -6632014.89349  -5156217.31848  21259105.3944   21259100.7494
      2422.6564
   1142374.74749    886136.90348  20280963.6444   20280958.3974
     -1101.1414
  -6080492.13549  -4726322.79947  22265823.9874   22265818.5504
      1872.4534
   6527627.48849   5070193.52947  22795850.1754   22795845.3704
     -2937.6564
  -3621043.38949  -2818925.56848  20567067.7374   20567062.6554
      1234.7344
  -2616610.19149  -2038122.57647  23432264.3084   23432261.2104
      1806.9844
  -3265622.11049  -2530220.14447  23405464.5034   23405460.5464
      3604.3444
 04  9 16 21 27 44.9990000  0  8G 3G 8G13G19G23G27G10G28
   -543778.41649   -423686.24047  22573056.5424   22573053.0504
      -561.2814
  -6668333.06449  -5184517.15748  21252193.9804   21252189.7844
      2419.7664
   1158951.79149    899054.07548  20284118.0504   20284113.1164
     -1109.1414
  -6108519.15649  -4748161.99847  22260491.0504   22260485.1404
      1864.5314
   6571721.54949   5104552.47747  22804241.0894   22804236.6084
     -2941.4534
  -3639543.69949  -2833341.37448  20563546.8704   20563542.3744
      1231.9064
  -2643647.54449  -2059190.62247  23427119.1124   23427116.0894
      1798.0474
  -3319663.08249  -2572329.91047  23395180.3004   23395177.0584
      3601.1254
 04  9 16 21 27 59.9990000  0  8G 3G 8G13G19G23G27G10G28
   -535292.01149   -417073.47447  22574671.2844   22574667.6944
      -569.9224
  -6704608.56349  -5212783.77648  21245290.8704   21245286.1204
      2417.3594
   1175646.49949    912062.91548  20287295.1594   20287289.9804
     -1116.4694
  -6136430.27149  -4769910.88147  22255179.2144   22255173.5624
      1857.3134
   6615870.23249   5138953.99347  22812642.8234   22812637.5074
     -2944.6414
  -3658003.00049  -2847725.24348  20560034.3624   20560028.9374
      1229.6884
  -2670553.12749  -2080155.98447  23421999.0974   23421996.0504
      1789.7194
  -3373659.36749  -2614404.86747  23384904.9804   23384901.7304
      3598.7344
 04  9 16 21 28 14.9990000  0  8G 3G 8G13G19G23G27G10G28
   -526661.03549   -410348.02547  22576313.2924   22576310.5464
      -580.3284
  -6740835.32049  -5241012.41448  21238397.2924   21238392.9524
      2413.3284
   1192464.75449    925168.03848  20290495.5344   20290490.4914
     -1125.4694
  -6164219.34149  -4791564.66647  22249891.1444   22249885.3194
      1848.3594
   6660079.17949   5173402.46247  22821055.3704   22821050.3514
     -2949.4064
  -3676415.51649  -2862072.65948  20556530.6904   20556525.2534
      1225.7974
  -2697321.00649  -2101014.07947  23416905.5504   23416902.2614
      1779.7504
  -3427604.98349  -2656440.38447  23374639.4094   23374636.4604
      3594.5314
 04  9 16 21 28 29.9990000  0  8G 3G 8G13G19G23G27G10G28
   -517887.34149   -403511.38947  22577983.5584   22577979.7964
      -589.5314
  -6777015.18849  -5269204.51248  21231512.5264   21231507.6054
      2410.5944
   1209404.76149    938368.03548  20293719.1204   20293713.5894
     -1133.2344
  -6191887.79749  -4813124.48447  22244626.2844   22244620.9214
      1840.7504
   6704346.46449   5207896.39347  22829478.9804   22829474.2654
     -2952.9374
  -3694782.78949  -2876384.81748  20553035.4174   20553030.1794
      1223.1564
  -2723952.87549  -2121766.18847  23411837.0974   23411834.2184
      1771.0634
  -3481501.43249  -2698437.53547  23364382.9094   23364380.4764
      3591.6254
 04  9 16 21 28 44.9990000  0  8G 3G 8G13G19G23G27G10G28
   -508976.66549   -396568.00147  22579679.1674   22579675.4604
      -598.5164
  -6813153.47349  -5297364.19248  21224635.5584   21224631.3904
      2407.8914
   1226460.79949    951658.44148  20296964.7064   20296959.3154
     -1140.8444
  -6219440.91349  -4834594.40947  22239383.2924   22239377.1674
      1833.0634
   6748666.20049   5242431.19647  22837912.5974   22837908.1904
     -2956.3444
  -3713110.59949  -2890666.21648  20549547.5974   20549543.0224
      1220.6254
  -2750454.04749  -2142416.45247  23406794.7374   23406791.1244
      1762.4534
  -3535354.32249  -2740400.77347  23354135.4724   23354132.3974
      3588.8754
 04  9 16 21 28 59.9990000  0  8G 3G 8G13G19G23G27G10G28
   -499927.42149   -389516.62147  22581401.0114   22581397.4014
      -608.0474
  -6849248.44349  -5325490.13248  21217766.7614   21217762.6444
      2404.7664
   1243634.53049    965040.56348  20300232.7454   20300227.8004
     -1148.9844
  -6246876.80449  -4855972.98647  22234162.0424   22234156.4334
      1824.9224
   6793039.95749   5277008.08447  22846356.6054   22846352.1874
     -2960.2034
  -3731396.97249  -2904915.33448  20546067.6204   20546063.0154
      1217.5474
  -2776822.66349  -2162963.40647  23401776.9174   23401773.1554
      1753.3284
  -3589161.69349  -2782328.53947  23343895.8784   23343892.9684
      3585.5164
 04  9 16 21 29 14.9990000  0  8G 3G 8G13G19G23G27G10G28
   -490736.96849   -382355.23647  22583149.8624   22583146.1124
      -617.6094
  -6885297.25649  -5353580.11248  21210907.0974   21210902.8394
      2401.4534
   1260928.61349    978516.44148  20303524.0894   20303518.6874
     -1157.2194
  -6274192.54049  -4877257.94147  22228964.0584   22228958.3904
      1816.7504
   6837470.14849   5311628.95747  22854811.4094   22854806.5974
     -2964.1874
  -3749639.29049  -2919130.13348  20542596.4724   20542591.3624
      1214.4064
  -2803055.91649  -2183404.89147  23396785.2454   23396781.4524
      1744.1724
  -3642920.67849  -2824218.57447  23333666.2304   23333663.3624
      3582.0314
 04  9 16 21 29 29.9990000  0  8G 3G 8G13G19G23G27G10G28
   -481409.13149   -375086.78647  22584925.0654   22584921.3004
      -626.6094
  -6921303.79749  -5381637.13048  21204054.8394   21204050.8944
      2398.7664
   1278339.25549    992083.17048  20306837.0264   20306831.6514
     -1164.7664
  -6301391.60449  -4898451.97747  22223788.3234   22223782.6054
      1809.2034
   6881952.92849   5346290.80147  22863276.1204   22863272.2264
     -2967.4844
  -3767841.22549  -2933313.44948  20539132.7534   20539127.8624
      1211.9384
  -2829157.32649  -2203743.63147  23391817.7844   23391814.6444
      1735.3914
  -3696634.86249  -2866073.71747  23323444.6514   23323441.7374
      3579.1884
 04  9 16 21 29 44.9990000  0  8G 3G 8G13G19G23G27G10G28
   -471938.51049   -367707.07247  22586726.9954   22586723.6984
      -636.2504
  -6957262.49749  -5409656.89548  21197212.7224   21197208.1634
      2395.5784
   1295871.92349   1005744.96248  20310173.3554   20310167.9404
     -1173.0164
  -6328467.99649  -4919550.43147  22218635.8624   22218629.8474
      1800.9224
   6926493.58849   5380997.74547  22871752.4724   22871747.4564
     -2971.4064
  -3785997.04049  -2947460.83648  20535677.9174   20535673.1634
      1208.7664
  -2855121.28749  -2223975.28847  23386876.9564   23386873.6164
      1726.2034
  -3750298.35649  -2907889.36147  23313232.6204   23313229.6404
      3575.7974
 04  9 16 21 29 59.9990000  0  8G 3G 8G13G19G23G27G10G28
   -462327.24549   -360217.77547  22588556.1124   22588552.3864
      -645.2664
  -6993175.31249  -5437640.89348  21190378.5344   21190374.2844
      2392.7814
   1313524.42949   1019500.15848  20313532.2534   20313526.9254
     -1180.7034
  -6355423.79149  -4940554.91247  22213506.4484   22213500.3974
      1793.1564
   6971089.79349   5415747.97947  22880239.0654   22880234.4954
     -2974.6564
  -3804108.88149  -2961573.96048  20532231.3394   20532226.3584
      1206.1414
  -2880949.70949  -2244101.32447  23381962.4954   23381958.8584
      1717.5474
  -3803913.19049  -2949667.08947  23303030.7454   23303026.9804
      3572.8754
 04  9 16 21 30 14.9990000  0  8G 3G 8G13G19G23G27G10G28
   -452576.11049   -352619.49147  22590411.3944   22590407.9804
      -654.8914
  -7029042.74949  -5465589.53548  21183552.9404   21183548.7144
      2389.5784
   1331295.97649   1033348.10048  20316913.9874   20316908.7844
     -1188.8754
  -6382259.34349  -4961465.69247  22208399.8004   22208393.8904
      1784.9064
   7015740.64649   5450540.79947  22888735.3784   22888731.1514
     -2978.6094
  -3822177.29749  -2975653.24248  20528793.1674   20528787.7454
      1202.9844
  -2906643.13449  -2264122.15247  23377073.3314   23377069.1054
      1708.2814
  -3857479.86049  -2991407.26147  23292836.9404   23292833.4564
      3569.4224
 04  9 16 21 30 29.9990000  0  8G 3G 8G13G19G23G27G10G28
   -442683.24149   -344910.76047  22592293.9644   22592290.6324
      -664.1564
  -7064862.96149  -5493501.37348  21176736.7924   21176732.6514
      2386.5314
   1349188.56449   1047290.36748  20320319.3864   20320314.1474
     -1196.7664
  -6408972.32949  -4982280.96547  22203316.2064   22203310.4804
      1776.8914
   7060447.97449   5485377.60947  22897243.3704   22897238.4054
     -2982.3284
  -3840200.25749  -2989697.10748  20525363.3154   20525358.2804
      1200.0944
  -2932199.32149  -2284036.08447  23372210.1364   23372205.9764
      1699.3284
  -3910996.11549  -3033108.21347  23282652.8944   23282649.3234
      3566.2034
 04  9 16 21 30 44.9990000  0  8G 3G 8G13G19G23G27G10G28
   -432650.62849   -337093.12647  22594203.2374   22594200.7024
      -673.3754
  -7100637.60949  -5521377.70748  21169929.2614   21169924.4644
      2383.5314
   1367200.28849   1061325.46548  20323746.7614   20323741.4524
     -1204.6254
  -6435564.51249  -5003002.10847  22198255.7534   22198249.7144
      1768.9534
   7105209.64849   5520256.78547  22905761.0424   22905756.6754
     -2985.7974
  -3858179.62449  -3003706.99448  20521942.0974   20521937.1124
      1197.3284
  -2957620.09949  -2303844.45547  23367372.3624   23367368.7844
      1690.3594
  -3964463.68549  -3074771.16547  23272478.0264   23272474.7224
      3562.9384
 04  9 16 21 30 59.9990000  0  8G 3G 8G13G19G23G27G10G28
   -422476.14249   -329164.96247  22596139.2614   22596136.2494
      -683.1414
  -7136364.30549  -5549216.68248  21163130.5344   21163126.0624
      2380.0944
   1385333.25049   1075455.03748  20327197.3554   20327191.8824
     -1212.9844
  -6462033.36049  -5023627.15147  22193219.0264   22193212.9914
      1760.3284
   7150027.66949   5555179.85847  22914289.7694   22914285.2964
     -2989.8444
  -3876113.06749  -3017681.11048  20518529.1834   20518524.8084
      1193.9534
  -2982903.03249  -2323545.44947  23362561.1984   23362557.3354
      1680.9064
  -4017880.19949  -3116394.38347  23262313.2304   23262310.0224
      3559.2664
 04  9 16 21 31 14.9990000  0  8G 3G 8G13G19G23G27G10G28
   -412161.66049   -321127.69947  22598102.2064   22598098.7064
      -691.9534
  -7172044.84149  -5577019.68648  21156340.5654   21156336.1364
      2377.4694
   1403585.53049   1089677.57348  20330670.6124   20330665.3234
     -1220.4224
  -6488380.32849  -5044157.21947  22188205.3864   22188199.6014
      1752.7344
   7194900.12949   5590145.34247  22922828.4644   22922823.8974
     -2992.9534
  -3894002.31149  -3031620.78148  20515125.3004   20515120.8084
      1191.4694
  -3008049.80749  -2343140.33147  23357776.1904   23357772.4404
      1672.3754
  -4071247.23149  -3157979.02847  23252157.8554   23252154.5584
      3556.5314
 04  9 16 21 31 29.9990000  0  8G 3G 8G13G19G23G27G10G28
   -401709.58649   -312983.22647  22600090.9564   22600087.6084
      -701.4694
  -7207681.38249  -5604788.40748  21149559.3624   21149555.1124
      2374.1884
   1421955.02249   1103991.45848  20334166.0654   20334161.1794
     -1228.6874
  -6514607.38649  -5064593.86147  22183214.0344   22183208.8514
      1744.3754
   7239824.50449   5625151.28747  22931377.4094   22931373.0304
     -2996.7974
  -3911849.50949  -3045527.68448  20511728.9174   20511724.1834
      1188.3134
  -3033062.44049  -2362630.67947  23353016.3004   23353012.3474
      1662.9064
  -4124566.76549  -3199526.64547  23242011.9254   23242008.2454
      3552.8594
 04  9 16 21 31 44.9990000  0  8G 3G 8G13G19G23G27G10G28
   -391114.27749   -304727.13447  22602107.2374   22602103.4644
      -710.7194
  -7243268.14949  -5632518.34148  21142787.1514   21142782.9764
      2371.2344
   1440447.21049   1118400.95248  20337685.2374   20337680.2304
     -1236.5004
  -6540708.63249  -5084932.44847  22178247.3474   22178241.9914
      1736.2974
   7284806.36449   5660202.03447  22939937.7374   22939933.1944
     -3000.2664
  -3929648.99149  -3059397.40648  20508341.9564   20508336.8944
      1185.4384
  -3057935.11349  -2382011.97047  23348283.2064   23348279.7614
      1653.8914
  -4177833.02449  -3241032.76747  23231875.2924   23231871.8474
      3549.7664
 04  9 16 21 31 59.9990000  0  8G 3G 8G13G19G23G27G10G28
   -380383.25749   -296365.29647  22604149.1754   22604145.8194
      -720.3284
  -7278812.63749  -5660215.32748  21136023.2924   21136018.8704
      2367.8134
   1459054.51149   1132900.13348  20341226.0504   20341220.8084
     -1244.7814
  -6566691.36549  -5105178.70647  22173302.7614   22173297.5424
      1727.7814
   7329837.97649   5695291.52747  22948506.6284   22948502.6014
     -3004.0944
  -3947408.10449  -3073235.66548  20504962.7694   20504957.7374
      1182.1564
  -3082675.25849  -2401290.02247  23343575.0584   23343571.3514
      1644.4694
  -4231053.28749  -3282503.05547  23221747.8084   23221744.2884
      3546.0634
 04  9 16 21 32 14.9990000  0  8G 3G 8G13G19G23G27G10G28
   -369509.65949   -287892.36847  22606218.3154   22606214.5974
      -729.5164
  -7314307.53549  -5687873.67848  21129268.7534   21129264.4804
      2364.7814
   1477783.93349   1147494.48048  20344789.8154   20344784.9914
     -1252.5624
  -6592548.22849  -5125326.88147  22168382.1674   22168376.6284
      1719.7344
   7374926.18549   5730425.13647  22957086.9254   22957082.3434
     -3007.6254
  -3965119.68149  -3087036.89448  20501592.0114   20501586.9764
      1179.3594
  -3107275.64549  -2420459.15147  23338894.2694   23338890.5814
      1635.5314
  -4284220.39849  -3323931.91147  23211630.5584   23211626.9214
      3542.8444
 04  9 16 21 32 29.9990000  0  8G 3G 8G13G19G23G27G10G28
   -358497.03149   -279311.09947  22608313.9724   22608311.1244
      -738.9374
  -7349756.01449  -5715495.86048  21122523.1904   21122519.0694
      2361.5164
   1496632.08149   1162181.33348  20348377.0894   20348371.4174
     -1260.6414
  -6618282.30049  -5145379.36747  22163485.6834   22163479.6794
      1711.3914
   7420067.48349   5765600.12447  22965677.2844   22965672.4444
     -3011.3594
  -3982787.15549  -3100803.75748  20498229.9644   20498224.8194
      1176.1884
  -3131739.47849  -2439521.86547  23334239.4254   23334235.3974
      1626.1884
  -4337337.50949  -3365321.81247  23201522.2454   23201519.2304
      3539.2504
 04  9 16 21 32 44.9990000  0  8G 3G 8G13G19G23G27G10G28
   -347344.99549   -270621.20347  22610436.3314   22610432.9054
      -747.9694
  -7385157.86449  -5743081.70848  21115786.6514   21115781.8434
      2358.7504
   1515599.19149   1176960.89148  20351985.9804   20351980.6634
     -1268.3284
  -6643892.88649  -5165335.63248  22158611.8554   22158606.4834
      1703.3134
   7465261.90649   5800816.51047  22974277.5034   22974272.5464
     -3014.6094
  -4000410.00349  -3114535.84348  20494876.4484   20494871.4404
      1173.5004
  -3156066.31449  -2458477.83347  23329609.3474   23329606.0974
      1617.2974
  -4390404.05349  -3406672.29147  23191423.8394   23191420.6404
      3536.1564
 04  9 16 21 32 59.9990000  0  8G 3G 8G13G19G23G27G10G28
   -336054.10849   -261823.10447  22612584.9254   22612582.0654
      -757.6414
  -7420513.44949  -5770631.50648  21109058.3314   21109054.1944
      2355.2034
   1534684.83549   1191832.80448  20355618.2844   20355612.9834
     -1276.5474
  -6669380.10649  -5185195.76748  22153761.7694   22153755.9834
      1694.8134
   7510508.96549   5836073.88347  22982887.2064   22982882.6674
     -3018.4224
  -4017988.50249  -3128233.36848  20491531.4174   20491526.3624
      1170.2194
  -3180256.28749  -2477327.15647  23325006.2144   23325002.5934
      1607.9064
  -4443420.12649  -3447983.47447  23181335.3394   23181331.7104
      3532.5164
 04  9 16 21 33 14.9990000  0  8G 3G 8G13G19G23G27G10G28
   -324621.83949   -252914.85647  22614760.6834   22614757.3704
      -766.5624
  -7455820.06249  -5798143.13348  21102339.9014   21102335.9054
      2352.5474
   1553891.60949   1206799.11648  20359272.7764   20359267.7454
     -1284.1254
  -6694741.21149  -5204957.63348  22148935.4874   22148930.1084
      1686.8914
   7555811.04849   5871374.13747  22991508.0894   22991503.5734
     -3021.5784
  -4035520.06849  -3141894.33248  20488195.1754   20488189.9404
      1167.5634
  -3204306.75049  -2496067.77247  23320429.4724   23320425.6634
      1599.1254
  -4496382.97649  -3489253.17447  23171256.9174   23171253.5344
      3529.4224
 04  9 16 21 33 29.9990000  0  8G 3G 8G13G19G23G27G10G28
   -313048.07449   -243896.34647  22616962.6674   22616959.4404
      -776.2814
  -7491077.09749  -5825616.14448  21095630.7764   21095626.2184
      2348.8134
   1573219.67449   1221859.93048  20362951.2224   20362946.0224
     -1292.5624
  -6719975.73049  -5224620.86847  22144133.6674   22144128.1904
      1678.0474
   7601168.19049   5906717.30147  23000139.3624   23000134.9134
     -3025.6564
  -4053004.26349  -3155518.37548  20484868.2064   20484863.3004
      1164.0784
  -3228217.19249  -2514699.29547  23315879.2694   23315876.5894
      1589.3444
  -4549292.18949  -3530481.07847  23161188.7924   23161185.0854
      3525.5164
 04  9 16 21 33 44.9990000  0  8G 3G 8G13G19G23G27G10G28
   -301330.92249   -234766.10147  22619193.0194   22619188.8584
      -785.9064
  -7526282.56349  -5853048.96348  21088931.4334   21088926.7884
      2345.3284
   1592670.91949   1237016.72548  20366652.3864   20366647.0814
     -1300.8444
  -6745081.44549  -5244183.72748  22139355.9804   22139350.6594
      1669.4224
   7646582.18149   5942104.78247  23008781.5654   23008777.1474
     -3029.4844
  -4070439.07149  -3169103.94348  20481550.3554   20481545.3434
      1160.7344
  -3251985.53949  -2533220.05047  23311356.8234   23311353.1244
      1579.8594
  -4602145.62649  -3571665.51247  23151130.7224   23151127.2964
      3521.7664
 04  9 16 21 33 59.9990000  0  8G 3G 8G13G19G23G27G10G28
   -289471.13949   -225524.71347  22621449.4874   22621445.8624
      -795.5004
  -7561437.10249  -5880442.09848  21082241.6364   21082237.5774
      2341.8444
   1612244.78349   1252269.08048  20370377.2374   20370371.8004
     -1309.0944
  -6770058.60149  -5263646.41447  22134603.0584   22134597.5154
      1660.7034
   7692052.19849   5977535.89347  23017434.0504   23017430.1204
     -3033.2974
  -4087824.93949  -3182651.36748  20478242.2144   20478236.9444
      1157.2974
  -3275612.08649  -2551630.37147  23306860.5974   23306857.1554
      1570.2504
  -4654943.58349  -3612806.70447  23141083.8944   23141080.5584
      3517.8914
 04  9 16 21 34 14.9990000  0  8G 3G 8G13G19G23G27G10G28
   -277470.09749   -216173.25947  22623733.2304   22623729.7884
      -804.5314
  -7596541.98949  -5907796.54348  21075561.3864   21075556.8314
      2338.8594
   1631939.75449   1267615.80048  20374125.0034   20374119.8704
     -1316.8284
  -6794908.27549  -5283009.75548  22129874.6284   22129868.9994
      1652.5314
   7737576.76149   6013009.51347  23026097.4564   23026092.7414
     -3036.5624
  -4105163.27049  -3196161.75248  20474942.6904   20474937.4874
      1154.5004
  -3299098.19649  -2569931.23447  23302391.1054   23302387.7724
      1561.2504
  -4707687.19949  -3653905.58547  23131046.5584   23131043.7494
      3514.7034
 04  9 16 21 34 29.9990000  0  8G 3G 8G13G19G23G27G10G28
   -265335.91949   -206718.06147  22626042.3784   22626038.7304
      -813.3594
  -7631605.17649  -5935118.49948  21068889.2614   21068884.9374
      2336.2194
   1651747.80549   1283050.62548  20377894.1204   20377889.2064
     -1324.2344
  -6819638.36849  -5302279.92848  22125168.4644   22125162.3704
      1644.7344
   7783147.49949   6048519.11947  23034768.9174   23034764.8274
     -3039.5164
  -4122461.94649  -3209641.23648  20471651.0504   20471645.8004
      1151.9064
  -3322451.67249  -2588128.72547  23297947.4404   23297943.5194
      1552.5474
  -4760384.45649  -3694968.30647  23121019.3624   23121015.8154
      3511.6884
 04  9 16 21 34 44.9990000  0  8G 3G 8G13G19G23G27G10G28
   -253063.55749   -197155.18047  22628377.2374   22628373.7724
      -822.9844
  -7666621.53849  -5962403.97148  21062225.8554   21062221.5344
      2332.6254
   1671673.94549   1298577.47848  20381686.1124   20381680.5224
     -1332.5474
  -6844243.40149  -5321452.64248  22120486.0894   22120480.3824
      1635.9694
   7828769.38449   6084068.56747  23043450.6284   23043446.4684
     -3043.4064
  -4139715.79049  -3223085.77748  20468367.1124   20468362.4604
      1148.5474
  -3345667.27749  -2606218.79647  23293529.1984   23293525.3124
      1542.9534
  -4813029.92349  -3735990.70147  23111000.9564   23110997.6084
      3507.7664
 04  9 16 21 34 59.9990000  0  8G 3G 8G13G19G23G27G10G28
   -240648.22649   -187480.92047  22630740.2144   22630736.6014
      -832.3594
  -7701585.89049  -5989648.91248  21055572.2534   21055567.6754
      2329.2664
   1691723.11649   1314200.18848  20385501.5894   20385496.3194
     -1340.6564
  -6868718.03649  -5340523.76248  22115828.7614   22115822.6714
      1627.2814
   7874447.33349   6119661.70247  23052142.7064   23052138.5934
     -3047.0474
  -4156919.63349  -3236491.38748  20465093.8154   20465089.2104
      1145.3444
  -3368739.91949  -2624197.47747  23289138.6514   23289135.1284
      1533.5164
  -4865618.47749  -3776968.74447  23100993.8554   23100990.0694
      3504.0314
 04  9 16 21 35 14.9990000  0  8G 3G 8G13G19G23G27G10G28
   -228093.71049   -177698.18147  22633128.9404   22633126.1794
      -841.6874
  -7736501.60449  -6016855.94748  21048928.3004   21048923.5654
      2326.0474
   1711891.61349   1329915.89248  20389339.4254   20389334.3474
     -1348.5784
  -6893065.77249  -5359495.97647  22111195.2924   22111189.8354
      1618.9534
   7920177.52449   6155295.54747  23060845.1674   23060840.5264
     -3050.4694
  -4174077.10149  -3249860.82948  20461829.0654   20461823.9174
      1142.2664
  -3391673.11949  -2642067.50647  23284774.6444   23284771.1124
      1524.1724
  -4918153.62249  -3817905.16247  23090996.2064   23090993.3154
      3500.5004
 04  9 16 21 35 29.9990000  0  8G 3G 8G13G19G23G27G10G28
   -215402.06849   -167808.59347  22635544.3944   22635541.1244
      -850.9534
  -7771370.74949  -6044026.69648  21042292.6674   21042288.2614
      2322.7504
   1732177.19749   1345722.83048  20393199.4724   20393194.3354
     -1356.5474
  -6917288.34649  -5378370.67347  22106586.3154   22106580.5464
      1610.3444
   7965957.67249   6190968.34347  23069556.9644   23069552.4404
     -3053.8914
  -4191190.20849  -3263195.71548  20458572.4014   20458567.4374
      1139.1724
  -3414468.64549  -2659830.23947  23280436.9564   23280433.6514
      1514.8444
  -4970637.13149  -3858801.33847  23081009.2454   23081006.0624
      3496.9064
 04  9 16 21 35 44.9990000  0  8G 3G 8G13G19G23G27G10G28
   -202566.42949   -157806.80447  22637986.5424   22637983.1634
      -860.0474
  -7806186.12049  -6071155.54748  21035667.4014   21035662.9174
      2319.7664
   1752586.76549   1361626.37148  20397083.4014   20397078.2224
     -1364.2344
  -6941378.49249  -5397142.19248  22102002.0814   22101995.9524
      1602.1254
   8011794.45849   6226685.24547  23078279.1594   23078275.0264
     -3057.1874
  -4208251.82549  -3276490.48048  20455325.4644   20455320.6674
      1136.2504
  -3437119.49649  -2677480.23547  23276126.0894   23276122.6984
      1505.7974
  -5023061.91049  -3899651.74847  23071032.8314   23071029.2654
      3493.6414
 04  9 16 21 35 59.9990000  0  8G 3G 8G13G19G23G27G10G28
   -189592.44549   -147697.21347  22640455.9644   22640452.5344
      -869.4064
  -7840953.04649  -6098246.65248  21029051.3084   21029046.9604
      2316.2974
   1773114.83449   1377622.26148  20400989.8234   20400984.6474
     -1372.3754
  -6965341.63049  -5415814.73248  22097441.9804   22097436.0654
      1593.4384
   8057682.16349   6262441.82347  23087011.6834   23087007.5654
     -3060.7814
  -4225267.40949  -3289749.38148  20452087.6754   20452082.3664
      1132.9694
  -3459631.07249  -2695021.73047  23271842.9334   23271838.6754
      1496.2034
  -5075433.25749  -3940460.54947  23061067.1904   23061063.6084
      3489.7344
 04  9 16 21 36 14.9990000  0  8G 3G 8G13G19G23G27G10G28
   -176479.71749   -137479.51847  22642951.4954   22642947.6874
      -879.2814
  -7875671.19049  -6125299.74648  21022444.9804   21022440.4684
      2312.3914
   1793762.01549   1393710.95048  20404918.8554   20404913.5624
     -1380.9844
  -6989176.97949  -5434387.70648  22092905.8314   22092900.3664
      1584.2504
   8103621.33049   6298238.50047  23095753.3004   23095749.2184
     -3064.9224
  -4242236.31449  -3302971.89948  20448858.4954   20448853.7224
      1129.1094
  -3482002.63049  -2712454.12647  23267585.4014   23267581.9094
      1486.1884
  -5127750.39949  -3981227.09447  23051111.1984   23051108.0624
      3485.4224
 04  9 16 21 36 29.9990000  0  8G 3G 8G13G19G23G27G10G28
   -163229.83849   -127154.94147  22645472.2304   22645469.3944
      -888.0784
  -7910341.94249  -6152315.89848  21015847.2614   21015843.1904
      2309.6884
   1814526.68849   1409891.20548  20408870.3394   20408865.1204
     -1388.4224
  -7012885.63049  -5452861.93347  22088394.4804   22088388.9684
      1576.2034
   8149610.13049   6334073.87647  23104505.5424   23104500.4724
     -3067.7344
  -4259159.88749  -3316159.08848  20445638.1594   20445632.9294
      1126.6254
  -3504235.55049  -2729778.45347  23263355.1364   23263351.0934
      1477.3594
  -5180014.58449  -4021952.37547  23041165.7304   23041162.1364
      3482.3594
 04  9 16 21 36 44.9990000  0  8G 3G 8G13G19G23G27G10G28
   -149842.54249   -116723.29447  22648019.8004   22648016.5224
      -897.2814
  -7944964.69949  -6179294.66348  21009258.8394   21009254.1204
      2306.3754
   1835409.17149   1426163.25748  20412844.0034   20412838.7574
     -1396.2974
  -7036466.81849  -5471236.85048  22083907.4014   22083901.0034
      1567.5784
   8195648.78149   6369948.06647  23113265.9644   23113261.8554
     -3071.0944
  -4276037.61349  -3329310.56348  20442426.5504   20442421.6944
      1123.4064
  -3526329.24149  -2746994.32347  23259150.5264   23259146.8314
      1468.0784
  -5232225.26049  -4062635.93747  23031230.0814   23031226.8394
      3478.7664
 04  9 16 21 36 59.9990000  0  8G 3G 8G13G19G23G27G10G28
   -136316.85949   -106183.80547  22650594.2844   22650590.5584
      -905.8914
  -7979538.34949  -6206235.15348  21002679.5584   21002675.3434
      2303.6414
   1856410.43749   1442527.86848  20416840.1834   20416835.3554
     -1403.6414
  -7059919.37949  -5489511.54648  22079444.3864   22079438.3974
      1559.6094
   8241738.24149   6405861.86247  23122036.3704   23122032.3944
     -3073.9534
  -4292868.31649  -3342425.38848  20439223.7374   20439218.6794
      1120.8754
  -3548282.53949  -2764100.77647  23254973.5194   23254969.7064
      1459.2814
  -5284381.15849  -4103276.84547  23021305.0114   23021302.0654
      3475.6094
 04  9 16 21 37 14.9990000  0  8G 3G 8G13G19G23G27G10G28
   -122654.25049    -95537.63747  22653193.7844   22653190.3664
      -915.3914
  -8014064.29449  -6233138.49448  20996109.5504   20996104.6324
      2300.0784
   1877528.96849   1458983.84648  20420859.1984   20420854.0344
     -1411.7664
  -7083244.55249  -5507686.97048  22075005.6514   22075000.0264
      1550.7344
   8287876.86749   6441813.95747  23130816.6364   23130812.3314
     -3077.5624
  -4309653.41949  -3355504.70648  20436029.5034   20436024.4214
      1117.4694
  -3570096.73849  -2781098.86147  23250822.2694   23250817.8394
      1449.6254
  -5336483.52549  -4143876.05147  23011390.1984   23011387.0304
      3471.7034
 04  9 16 21 37 29.9990000  0  8G 3G 8G13G19G23G27G10G28
   -108856.44949    -84786.09447  22655818.7844   22655815.9764
      -924.9694
  -8048543.77049  -6260005.59748  20989548.3004   20989543.7924
      2296.4844
   1898763.05749   1475529.88548  20424899.8394   20424894.9804
     -1420.0624
  -7106443.58849  -5525764.09548  22070590.6364   22070585.0504
      1541.8594
   8334062.90449   6477803.02047  23139605.7844   23139601.5264
     -3081.2814
  -4326394.38649  -3368549.59848  20432843.8084   20432838.6324
      1113.9694
  -3591773.29749  -2797989.67847  23246697.3154   23246693.2184
      1439.9534
  -5388533.65949  -4184434.50947  23001485.1984   23001482.5504
      3467.6564
 04  9 16 21 37 44.9990000  0  8G 3G 8G13G19G23G27G10G28
    -94916.55249    -73923.83747  22658471.7064   22658468.3234
      -933.9534
  -8082969.73749  -6286831.02348  20982997.2454   20982992.8974
      2293.3284
   1920119.80149   1492171.48148  20428964.0264   20428958.9134
     -1427.8124
  -7129509.17749  -5543737.25848  22066201.6124   22066195.8354
      1533.2664
   8380303.10749   6513834.26447  23148404.3624   23148400.3394
     -3084.4064
  -4343084.10749  -3381554.57148  20429667.6674   20429662.6364
      1110.9064
  -3613304.96549  -2814767.58047  23242599.7454   23242596.0774
      1430.6724
  -5440524.38549  -4224946.70247  22991591.4254   22991588.4524
      3464.0634
 04  9 16 21 37 59.9990000  0  8G 3G 8G13G19G23G27G10G28
    -80834.99949    -62951.22747  22661151.6984   22661148.1244
      -943.4534
  -8117342.40049  -6313614.89548  20976456.5034   20976451.6984
      2289.8134
   1941598.79449   1508908.33648  20433051.3474   20433045.9644
     -1435.9694
  -7152441.44449  -5561606.51848  22061837.8154   22061832.0814
      1524.4224
   8426596.97949   6549907.34147  23157214.3394   23157210.3274
     -3088.0004
  -4359722.79749  -3394519.79548  20426501.6444   20426496.6244
      1107.6254
  -3634691.91349  -2831432.74047  23238529.9174   23238526.2334
      1421.0004
  -5492455.81049  -4265412.69147  22981709.2304   22981706.7144
      3460.1094
 04  9 16 21 38 14.9990000  0  8G 3G 8G13G19G23G27G10G28
    -66618.03149    -51873.05247  22663856.7534   22663853.9134
      -952.1414
  -8151667.77349  -6340361.93248  20969924.3084   20969919.6124
      2286.8914
   1963193.87449   1525735.65748  20437160.6754   20437155.4954
     -1443.4064
  -7175246.16349  -5579376.39548  22057497.9404   22057492.3744
      1516.1564
   8472938.25349   6586017.33847  23166033.2374   23166028.7334
     -3090.9064
  -4376316.35549  -3407449.82048  20423344.2144   20423338.9764
      1104.8444
  -3655940.16549  -2847989.80747  23234486.3784   23234482.3824
      1412.0164
  -5544333.98549  -4305837.15547  22971837.1834   22971834.5384
      3456.8594
 04  9 16 21 38 29.9990000  0  8G 3G 8G13G19G23G27G10G28
    -52263.28549    -40687.56147  22666588.2144   22666585.4174
      -961.7664
  -8185943.26249  -6367070.10648  20963402.3624   20963397.1794
      2283.1414
   1984907.37049   1542655.25248  20441292.5584   20441287.7184
     -1451.7814
  -7197920.80049  -5597044.92247  22053183.1594   22053177.8274
      1507.0314
   8519329.24049   6622166.09947  23174860.5034   23174856.2844
     -3094.5314
  -4392862.31949  -3420342.78748  20420195.4874   20420190.3824
      1101.2344
  -3677047.13649  -2864436.79947  23230470.0424   23230466.0114
      1402.2194
  -5596156.09849  -4346217.97247  22961976.3394   22961972.8624
      3452.7194
 04  9 16 21 38 44.9990000  0  8G 3G 8G13G19G23G27G10G28
    -37771.27349    -29395.09447  22669346.1124   22669342.6834
      -970.9694
  -8220169.15049  -6393739.61848  20956888.8474   20956884.1874
      2279.8134
   2006738.83249   1559666.76448  20445447.0114   20445441.9994
     -1459.5944
  -7220465.37049  -5614612.08347  22048892.9094   22048887.3664
      1498.3754
   8565769.24749   6658353.05047  23183697.8314   23183693.5194
     -3097.7974
  -4409361.00749  -3433198.91348  20417055.8394   20417050.8944
      1098.1254
  -3698013.04349  -2880773.87147  23226480.2064   23226476.2024
      1392.8284
  -5647922.31249  -4386555.21747  22952125.2614   22952122.0034
      3449.0314
 04  9 16 21 38 59.9990000  0  8G 3G 8G13G19G23G27G10G28
    -23139.66949    -17993.85147  22672130.8234   22672127.2144
      -980.0164
  -8254342.57749  -6420368.25748  20950386.0584   20950381.5304
      2276.5474
   2028690.68749   1576772.08948  20449624.4334   20449619.5424
     -1467.3754
  -7242877.07549  -5632075.72047  22044628.5734   22044622.3554
      1489.7974
   8612260.58649   6694579.99047  23192545.6364   23192540.8004
     -3101.0004
  -4425809.72449  -3446016.09448  20413925.5424   20413920.7304
      1095.0474
  -3718835.22249  -2896998.93347  23222518.3314   23222514.1754
      1383.4064
  -5699629.98449  -4426846.84647  22942285.7534   22942282.1124
      3445.3134
 04  9 16 21 39 14.9990000  0  8G 3G 8G13G19G23G27G10G28
     -8371.01349     -6485.80447  22674941.0264   22674937.4254
      -989.4374
  -8288466.24449  -6446958.12648  20943892.1054   20943887.8044
      2272.9064
   2050760.33049   1593969.18848  20453823.9334   20453818.7144
     -1475.5944
  -7265158.20849  -5649437.61048  22040388.4564   22040382.1594
      1480.6414
   8658800.71149   6730844.95347  23201400.9404   23201396.8084
     -3104.6254
  -4442210.86049  -3458796.20348  20410804.8624   20410799.8974
      1091.4844
  -3739516.09049  -2913113.87147  23218582.1904   23218578.2964
      1373.5944
  -5751281.47049  -4467094.69047  22932456.5654   22932453.1014
      3441.1564
 04  9 16 21 39 29.9990000  0  8G 3G 8G13G19G23G27G10G28
      6529.47149      5124.94047  22677776.4644   22677773.0424
      -997.9694
  -8322545.22749  -6473513.16848  20937407.5584   20937402.7924
      2270.2194
   2072942.59049   1611254.05948  20458045.2374   20458040.6554
     -1482.8444
  -7287313.68149  -5666701.58848  22036172.0584   22036166.4054
      1472.5474
   8705384.29249   6767143.75947  23210265.7454   23210261.8154
     -3107.2974
  -4458569.58949  -3471543.25848  20407691.7534   20407686.2804
      1088.9064
  -3760060.60449  -2929122.59047  23214672.9954   23214669.1324
      1364.8914
  -5802881.63449  -4507302.55947  22922637.5114   22922633.8744
      3438.0944
 04  9 16 21 39 44.9990000  0  8G 3G 8G13G19G23G27G10G28
     21566.68849     16842.27447  22680638.1204   22680634.1364
     -1007.1724
  -8356574.06349  -6500029.12648  20930931.9014   20930927.5854
      2266.7664
   2095242.56949   1628630.65348  20462288.6834   20462283.6204
     -1490.7034
  -7309338.11849  -5683863.46348  22031981.0734   22031975.4644
      1463.7664
   8752016.14149   6803480.18947  23219139.5114   23219135.5154
     -3110.4844
  -4474880.46449  -3484253.02248  20404587.7374   20404582.7574
      1085.6724
  -3780463.59949  -2945021.03347  23210790.1054   23210786.6124
      1355.3754
  -5854425.20849  -4547466.31747  22912828.9564   22912824.8554
      3434.2034
 04  9 16 21 39 59.9990000  0  8G 3G 8G13G19G23G27G10G28
     36744.19149     28668.87847  22683525.9404   22683522.6984
     -1016.0314
  -8390549.07049  -6526503.15748  20924466.7694   20924462.4254
      2263.6884
   2117663.81149   1646101.73448  20466555.6514   20466550.3904
     -1498.2814
  -7331227.62749  -5700920.20348  22027815.3864   22027809.6014
      1455.2974
   8798699.75549   6839856.94847  23228023.6054   23228019.2614
     -3113.4694
  -4491139.92849  -3496922.73748  20401493.6514   20401488.6014
      1082.7194
  -3800721.29549  -2960806.22347  23206935.3314   23206931.1714
      1346.2504
  -5905908.36549  -4587583.02847  22903032.4954   22903028.4684
      3430.7034
 04  9 16 21 40 14.9990000  0  8G 3G 8G13G19G23G27G10G28
     52056.12649     40600.25647  22686440.3944   22686437.2884
     -1025.6724
  -8424475.96749  -6552939.69448  20918010.6834   20918006.2104
      2259.7034
   2140200.53149   1663662.79948  20470844.0654   20470838.7764
     -1506.8124
  -7352987.67749  -5717876.05048  22023674.9724   22023668.7334
      1445.8914
   8845429.33549   6876269.53747  23236915.9094   23236911.8474
     -3117.3444
  -4507353.52149  -3509556.70948  20398408.2844   20398403.7574
      1078.8594
  -3820839.16849  -2976482.50847  23203107.1204   23203102.8704
      1336.0474
  -5957336.54149  -4627656.87647  22893245.6514   22893241.9834
      3426.2664
 04  9 16 21 40 29.9990000  0  8G 3G 8G13G19G23G27G10G28
     67507.67249     52640.41747  22689380.2694   22689377.0504
     -1034.7664
  -8458349.33449  -6579334.51248  20911564.6834   20911560.1084
      2256.3284
   2162857.81749   1681317.81148  20475155.7224   20475150.4254
     -1514.5314
  -7374612.85849  -5734726.81848  22019559.6444   22019553.8624
      1437.1094
   8892209.80049   6912721.76547  23245818.0654   23245813.7694
     -3120.4064
  -4523516.00949  -3522150.86148  20395332.7614   20395327.8194
      1075.6724
  -3840811.94149  -2992045.71447  23199306.0504   23199302.5584
      1326.7034
  -6008704.34049  -4667683.67147  22883470.5344   22883466.6794
      3422.4224
 04  9 16 21 40 44.9990000  0  8G 3G 8G13G19G23G27G10G28
     83087.87849     64780.83347  22692345.0974   22692342.1284
     -1042.9534
  -8492179.98449  -6605696.05348  20905126.9874   20905122.9094
      2253.9224
   2185624.83549   1699058.33048  20479488.2374   20479483.2844
     -1521.4374
  -7396113.76849  -5751480.75248  22015468.4564   22015462.1714
      1429.2344
   8939030.17149   6949205.09447  23254727.4014   23254723.4254
     -3122.7194
  -4539637.99349  -3534713.43748  20392264.9724   20392259.9644
      1073.4384
  -3860650.42249  -3007504.26547  23195531.7144   23195527.4174
      1318.1254
  -6060022.52449  -4707671.81747  22873705.4404   22873701.3354
      3419.5944
 04  9 16 21 40 59.9990000  0  8G 3G 8G13G19G23G27G10G28
     98799.64349     77023.78347  22695334.8554   22695331.5894
     -1052.0624
  -8525964.56149  -6632021.67048  20898697.6364   20898693.1794
      2250.5004
   2208504.61549   1716886.73248  20483841.8234   20483836.8864
     -1529.3914
  -7417486.96449  -5768135.16347  22011400.8944   22011395.1284
      1420.3444
   8985893.28049   6985721.73547  23263645.3554   23263641.7494
     -3125.9224
  -4555716.25349  -3547241.93648  20389205.0814   20389200.0894
      1070.1884
  -3880351.32449  -3022855.61447  23191782.3474   23191778.7064
      1308.5784
  -6111287.61749  -4747618.58747  22863949.3864   22863946.1204
      3415.6094
 04  9 16 21 41 14.9990000  0  8G 3G 8G13G19G23G27G10G28
    114645.66649     89371.31747  22698350.4174   22698347.4764
     -1060.9374
  -8559700.15949  -6658309.15548  20892278.2144   20892273.8904
      2247.2504
   2231499.94749   1734805.14148  20488217.8314   20488212.9804
     -1536.9534
  -7438729.39649  -5784687.68748  22007359.0194   22007352.9134
      1411.6564
   9032801.84249   7022273.77047  23272571.9564   23272568.3004
     -3128.8594
  -4571747.88149  -3559734.12548  20386154.4014   20386150.1444
      1067.1094
  -3899911.67749  -3038097.45147  23188060.4564   23188056.3314
      1299.2344
  -6162496.68249  -4787521.70847  22854204.5584   22854201.1324
      3412.0164
 04  9 16 21 41 29.9990000  0  8G 3G 8G13G19G23G27G10G28
    130624.62949    101822.47147  22701391.0194   22701387.6754
     -1069.6564
  -8593387.84949  -6684559.29248  20885867.3704   20885863.5384
      2244.2504
   2254609.30649   1752812.42448  20492615.5194   20492610.3154
     -1544.4224
  -7459842.11849  -5801139.13348  22003340.9404   22003335.3554
      1403.1724
   9079754.37449   7058860.07847  23281507.0034   23281502.7454
     -3131.7034
  -4587734.06349  -3572190.89248  20383112.6754   20383107.4134
      1064.2344
  -3919332.57349  -3053230.61347  23184364.4094   23184360.6364
      1290.0634
  -6213650.76049  -4827381.97847  22844469.8474   22844466.1084
      3408.4224
 04  9 16 21 41 44.9990000  0  8G 3G 8G13G19G23G27G10G28
    146736.72149    114377.33747  22704457.0504   22704453.9054
     -1078.9844
  -8627027.10849  -6710771.70448  20879466.4804   20879461.7414
      2240.5004
   2277833.04749   1770908.82948  20497034.9484   20497029.7844
     -1552.5944
  -7480824.58649  -5817489.08848  21999348.2694   21999342.5504
      1393.9384
   9126751.11549   7095480.81247  23290450.3784   23290445.9294
     -3135.0944
  -4603674.28349  -3584611.83248  20380079.1364   20380074.3944
      1060.6564
  -3938613.52449  -3068254.71647  23180695.5344   23180691.7574
      1280.3134
  -6264749.27449  -4867198.93747  22834746.0894   22834742.7184
      3404.2504
 04  9 16 21 41 59.9990000  0  8G 3G 8G13G19G23G27G10G28
    162982.62249    127036.47947  22707548.4874   22707545.1324
     -1087.5004
  -8660617.32049  -6736945.88048  20873074.1444   20873069.7764
      2237.7504
   2301171.91249   1789094.94748  20501475.8234   20501470.8664
     -1559.6724
  -7501675.68549  -5833736.68448  21995380.4334   21995374.3234
      1385.7194
   9173792.65949   7132136.47747  23299401.9724   23299398.2184
     -3137.5624
  -4619567.72449  -3596996.33748  20377054.7844   20377049.8154
      1058.0474
  -3957753.61849  -3083169.09047  23177053.4404   23177049.5504
      1271.3284
  -6315791.25349  -4906971.85747  22825033.4724   22825029.4484
      3400.9694
 04  9 16 21 42 14.9990000  0  8G 3G 8G13G19G23G27G10G28
    179356.80149    139795.58447  22710664.7924   22710660.8154
     -1096.0784
  -8694163.54349  -6763085.79148  20866690.6594   20866686.3434
      2234.7664
   2324620.61949   1807366.65248  20505938.4404   20505933.1364
     -1567.1254
  -7522400.51449  -5849885.88548  21991436.8394   21991430.4214
      1377.2194
   9220873.55249   7168822.81747  23308361.5504   23308357.1444
     -3140.2814
  -4635419.46349  -3609348.34048  20374038.3864   20374032.9994
      1055.1884
  -3976758.07549  -3097977.77047  23173437.1444   23173433.3394
      1262.3284
  -6366781.81249  -4946704.70647  22815330.1364   22815326.5584
      3397.4844
 04  9 16 21 42 29.9990000  0  8G 3G 8G13G19G23G27G10G28
    195860.57449    152655.66547  22713804.9564   22713801.6364
     -1104.6724
  -8727664.05249  -6789190.06748  20860315.6674   20860311.2764
      2231.8134
   2348180.32349   1825724.84048  20510421.5424   20510416.4564
     -1574.4224
  -7542997.47549  -5865935.44448  21987517.3394   21987510.9994
      1368.7814
   9267994.93649   7205540.69147  23317327.8314   23317324.0694
     -3142.9064
  -4651228.00849  -3621666.68748  20371029.8704   20371025.0304
      1052.3444
  -3995625.37749  -3112679.55147  23169846.3004   23169842.7414
      1253.0634
  -6417719.42149  -4986396.30747  22805637.3474   22805633.3124
      3394.0004
 04  9 16 21 42 44.9990000  0  8G 3G 8G13G19G23G27G10G28
    212494.73749    165617.34647  22716970.5424   22716967.5154
     -1113.2974
  -8761117.96249  -6815258.04348  20853949.7924   20853945.2884
      2228.6884
   2371851.89849   1844170.21348  20514926.2374   20514920.8824
     -1581.8444
  -7563465.35049  -5881884.41348  21983621.9724   21983616.2694
      1360.2344
   9315157.38849   7242290.56547  23326303.1984   23326299.2724
     -3145.5944
  -4666992.43349  -3633950.64148  20368030.2764   20368025.1084
      1049.4534
  -4014354.62949  -3127273.76747  23166282.6754   23166278.4374
      1243.9534
  -6468602.92949  -5026045.72247  22795953.9564   22795950.5894
      3390.3754
 04  9 16 21 42 59.9990000  0  8G 3G 8G13G19G23G27G10G28
    229260.55849    178681.59947  22720161.0264   22720157.6554
     -1122.0004
  -8794523.81649  -6841288.56748  20847592.4334   20847588.6204
      2225.5314
   2395636.73049   1862703.83148  20519452.0654   20519447.2374
     -1589.3124
  -7583802.49249  -5897731.51448  21979752.3554   21979745.8154
      1351.4384
   9362362.19949   7279073.45847  23335285.8154   23335281.6204
     -3148.3124
  -4682711.19849  -3646199.03148  20365038.9094   20365034.0344
      1046.4694
  -4032944.21849  -3141759.14647  23162745.2144   23162741.3824
      1234.7194
  -6519430.70049  -5065651.73747  22786282.0734   22786277.8904
      3386.7034
 04  9 16 21 43 14.9990000  0  8G 3G 8G13G19G23G27G10G28
    246156.91249    191847.60147  22723376.0974   22723372.7144
     -1130.9534
  -8827882.49649  -6867282.34048  20841245.0034   20841240.2144
      2222.2814
   2419533.64549   1881324.78948  20523999.6834   20523994.6674
     -1597.0164
  -7604009.72149  -5913477.40148  21975906.7224   21975900.4994
      1342.7344
   9409608.43049   7315888.60247  23344276.4174   23344272.8234
     -3151.2974
  -4698385.05849  -3658412.43248  20362056.4334   20362051.4444
      1043.3284
  -4051394.99149  -3156136.39347  23159234.2144   23159230.4484
      1225.2194
  -6570203.39449  -5105214.82547  22776620.3314   22776617.2334
      3382.8754
 04  9 16 21 43 29.9990000  0  8G 3G 8G13G19G23G27G10G28
    263182.96149    205114.65147  22726615.4724   22726612.4174
     -1139.4374
  -8861194.61649  -6893239.81748  20834905.8084   20834901.1554
      2219.2344
   2443541.93549   1900032.53848  20528568.2924   20528563.1674
     -1604.2974
  -7624087.61349  -5929122.48448  21972086.3394   21972080.2104
      1334.1564
   9456894.95449   7352735.15647  23353274.5264   23353271.5774
     -3153.8444
  -4714014.71349  -3670591.37348  20359081.6284   20359077.1124
      1040.4064
  -4069707.51349  -3170405.87347  23155749.1754   23155744.9644
      1216.2504
  -6620921.69949  -5144735.53247  22766968.9334   22766965.1084
      3379.3914
 04  9 16 21 43 44.9990000  0  8G 3G 8G13G19G23G27G10G28
    280335.78449    218480.49447  22729879.9644   22729876.6714
     -1147.4694
  -8894462.78249  -6919163.06348  20828574.6834   20828570.5584
      2216.6414
   2467658.74949   1918824.83348  20533157.5114   20533152.1204
     -1611.2504
  -7644038.70849  -5944668.77648  21968289.3554   21968283.5694
      1326.0164
   9504218.81049   7389610.79547  23362280.2694   23362276.6904
     -3155.9224
  -4729602.97349  -3682738.07348  20356115.7304   20356111.3904
      1038.0944
  -4087884.44249  -3184569.69947  23152290.3554   23152286.3084
      1207.4064
  -6671588.30549  -5184215.94647  22757327.3154   22757323.7374
      3376.1884
 04  9 16 21 43 59.9990000  0  8G 3G 8G13G19G23G27G10G28
    297614.35149    231944.30347  22733167.9484   22733164.9254
     -1156.0944
  -8927687.67449  -6945052.57848  20822252.2844   20822248.2574
      2213.5474
   2491883.08149   1937700.92548  20537767.1514   20537762.5734
     -1618.5624
  -7663863.49549  -5960116.64948  21964516.6284   21964511.3904
      1317.5004
   9551579.00049   7426514.73047  23371292.2064   23371288.7884
     -3158.5164
  -4745150.27649  -3694852.85148  20353156.9334   20353152.2724
      1035.1094
  -4105926.51349  -3198628.46447  23148856.7694   23148852.8084
      1198.2664
  -6722203.59349  -5223656.40447  22747695.7304   22747691.7264
      3372.5474
 04  9 16 21 44 14.9990000  0  8G 3G 8G13G19G23G27G10G28
    315026.89849    245512.50647  22736482.3784   22736478.3154
     -1164.6254
  -8960860.62749  -6970901.62448  20815940.0034   20815935.7104
      2210.4384
   2516223.34549   1956667.33648  20542399.2304   20542394.1874
     -1625.8914
  -7683553.39149  -5975459.40547  21960769.8234   21960764.4134
      1308.8134
   9598983.72449   7463453.39447  23380313.0344   23380309.8824
     -3161.1254
  -4760648.27649  -3706929.22248  20350208.1124   20350203.2224
      1032.2194
  -4123825.31849  -3212575.58547  23145450.6984   23145447.3944
      1189.1094
  -6772759.16849  -5263050.29447  22738074.7064   22738071.7224
      3369.0474
 04  9 16 21 44 29.9990000  0  8G 3G 8G13G19G23G27G10G28
    332565.65949    259179.06447  22739819.4954   22739815.7304
     -1173.4844
  -8993989.44849  -6996716.28048  20809635.9954   20809631.7414
      2207.0944
   2540671.71849   1975718.00548  20547051.4174   20547046.1944
     -1633.5164
  -7703115.84949  -5990702.86547  21957047.4874   21957041.2264
      1299.8754
   9646425.12349   7500420.62247  23389341.0584   23389337.7654
     -3164.0164
  -4776104.56249  -3718973.07848  20347266.6834   20347261.7804
      1029.0164
  -4141588.44549  -3226416.97547  23142070.1674   23142066.6474
      1179.6414
  -6823262.42349  -5302403.43247  22728464.3554   22728461.0854
      3365.1414
 04  9 16 21 44 44.9990000  0  8G 3G 8G13G19G23G27G10G28
    350231.77949    272944.87747  22743180.8394   22743177.4404
     -1182.3914
  -9027072.58649  -7022495.34148  20803340.2454   20803335.7024
      2203.5784
   2565229.40049   1994853.84548  20551724.9094   20551719.5974
     -1641.2504
  -7722549.35749  -6005845.84547  21953349.4644   21953343.4764
      1290.8594
   9693904.35149   7537417.32947  23398376.6124   23398372.9014
     -3166.9374
  -4791517.63549  -3730983.25848  20344333.7534   20344328.7304
      1025.6724
  -4159214.41149  -3240151.51247  23138716.4644   23138712.8824
      1169.9694
  -6873711.91749  -5341714.68747  22718864.5194   22718861.0894
      3361.0634
 04  9 16 21 44 59.9990000  0  8G 3G 8G13G19G23G27G10G28
    368027.34849    286811.55247  22746567.4404   22746563.7414
     -1191.1254
  -9060107.87749  -7048237.12048  20797053.8554   20797049.2334
      2200.3754
   2589898.30449   2014076.35148  20556418.8004   20556413.6904
     -1648.7034
  -7741851.65549  -6020886.58948  21949676.2924   21949669.9524
      1282.0164
   9741423.30149   7574444.99547  23407419.2374   23407415.2884
     -3169.6094
  -4806885.22949  -3742958.00848  20341408.9564   20341403.9874
      1022.5634
  -4176701.08749  -3253777.48447  23135389.3234   23135384.9604
      1160.7814
  -6924105.38149  -5380982.25847  22709274.8784   22709271.3474
      3357.3284
 04  9 16 21 45 14.9990000  0  8G 3G 8G13G19G23G27G10G28
    385951.25549    300778.20347  22749978.6444   22749975.1474
     -1199.1724
  -9093096.21349  -7073942.30848  20790776.4644   20790771.7144
      2197.6094
   2614677.64449   2033384.91448  20561134.2844   20561129.1474
     -1655.6254
  -7761023.33149  -6035825.53847  21946027.7694   21946022.3234
      1273.7814
   9788980.84849   7611502.72047  23416469.1284   23416465.5624
     -3171.7814
  -4822208.34249  -3754898.08848  20338493.3704   20338488.6874
      1019.9534
  -4194049.23549  -3267295.50347  23132087.4484   23132083.7764
      1151.9064
  -6974443.46649  -5420206.71547  22699696.1054   22699691.4604
      3354.0004
 04  9 16 21 45 29.9990000  0  8G 3G 8G13G19G23G27G10G28
    404004.70249    314845.82047  22753414.0814   22753410.3864
     -1207.9374
  -9126035.71449  -7099609.43748  20784508.2534   20784503.6714
      2194.1564
   2639568.77049   2052780.58748  20565870.9404   20565866.0154
     -1663.2814
  -7780062.71349  -6050661.40147  21942405.2304   21942398.9644
      1264.8134
   9836578.23849   7648591.50247  23425526.9014   23425523.0584
     -3174.6254
  -4837485.27649  -3766802.20048  20335586.3784   20335581.2614
      1016.7814
  -4211257.28549  -3280704.37547  23128813.1124   23128808.9914
      1142.4694
  -7024724.63749  -5459386.80547  22690127.6984   22690123.5224
      3350.1094
 04  9 16 21 45 44.9990000  0  8G 3G 8G13G19G23G27G10G28
    422191.01549    329016.94847  22756874.3944   22756871.0654
     -1216.5164
  -9158923.20849  -7125236.04748  20778249.8004   20778245.2334
      2191.1724
   2664574.83749   2072265.81448  20570629.3704   20570624.6204
     -1670.5474
  -7798966.25149  -6065391.41047  21938807.9254   21938801.7764
      1256.0314
   9884218.68049   7685713.84347  23434592.2224   23434589.0384
     -3177.1414
  -4852712.44449  -3778667.51048  20332688.3314   20332683.7614
      1013.8444
  -4228321.70949  -3294001.34147  23125566.1124   23125562.1674
      1133.1884
  -7074945.22749  -5498519.67547  22680570.7304   22680566.8784
      3346.3594
 04  9 16 21 45 59.9990000  0  8G 3G 8G13G19G23G27G10G28
    440500.43149    343284.01247  22760358.7924   22760354.9094
     -1224.9844
  -9191767.74949  -7150829.20248  20771999.7764   20771995.2104
      2187.9224
   2689686.39249   2091833.23048  20575407.7374   20575403.0034
     -1677.9374
  -7817743.27549  -6080022.85447  21935234.6984   21935228.6834
      1247.2504
   9931892.51349   7722862.16847  23443664.5584   23443661.3154
     -3179.7034
  -4867899.30149  -3790501.44348  20329798.5424   20329793.7884
      1010.8444
  -4245251.97949  -3307193.76747  23122344.0344   23122340.2374
      1123.9224
  -7125114.48649  -5537612.55847  22671023.7764   22671019.6594
      3342.6564
 04  9 16 21 46 14.9990000  0  8G 3G 8G13G19G23G27G10G28
    458932.79649    357646.87747  22763866.4334   22763862.8234
     -1232.6874
  -9224569.54349  -7176389.01848  20765757.6594   20765752.9254
      2185.5944
   2714902.83749   2111482.40348  20580206.4954   20580201.7654
     -1684.3444
  -7836393.63349  -6094555.58248  21931685.3864   21931678.9524
      1239.3914
   9979599.44149   7760036.32047  23452743.0814   23452739.5814
     -3181.2814
  -4883045.89449  -3802303.96648  20326916.4874   20326911.6474
      1008.7664
  -4262047.99049  -3320281.53347  23119148.0424   23119144.5544
      1115.6414
  -7175232.38349  -5576665.41647  22661487.1284   22661482.8584
      3339.7034
 04  9 16 21 46 29.9990000  0  8G 3G 8G13G19G23G27G10G28
    477487.15349    372104.80547  22767397.1444   22767393.5224
     -1241.6094
  -9257329.05349  -7201915.90348  20759523.6754   20759519.4764
      2182.0004
   2740223.53549   2131212.78748  20585024.8084   20585020.0974
     -1692.1254
  -7854917.83649  -6108990.00647  21928160.2064   21928154.3434
      1230.0944
  10027338.47849   7797235.47547  23461827.4094   23461823.7414
     -3184.1874
  -4898152.82349  -3814075.60448  20324041.5814   20324036.5224
      1005.2344
  -4278710.51649  -3333265.32047  23115977.0264   23115973.8194
      1105.8284
  -7225299.42249  -5615678.63347  22651959.5114   22651955.2264
      3335.5944
 04  9 16 21 46 44.9990000  0  8G 3G 8G13G19G23G27G10G28
    496167.03949    386660.55247  22770951.4564   22770947.8944
     -1249.4374
  -9290042.64249  -7227407.00348  20753298.5114   20753294.4524
      2179.3284
   2765652.28049   2151027.38448  20589863.8314   20589858.6444
     -1698.7974
  -7873312.02749  -6123323.12847  21924660.2844   21924653.9444
      1221.9534
  10075113.12949   7834462.36847  23470917.9564   23470915.6444
     -3186.2034
  -4913216.43249  -3825813.47448  20321175.0344   20321170.1444
      1002.7664
  -4295235.85049  -3346142.19247  23112832.5194   23112828.5194
      1097.2344
  -7275311.86849  -5654649.33047  22642441.9404   22642438.5624
      3332.3134
 04  9 16 21 46 59.9990000  0  8G 3G 8G13G19G23G27G10G28
    514973.35949    401314.78947  22774530.2924   22774527.0504
     -1257.6874
  -9322709.06949  -7252861.35848  20747082.4404   20747077.6904
      2176.3444
   2791190.11249   2170926.97448  20594723.3394   20594718.5154
     -1705.9844
  -7891574.86749  -6137553.90147  21921184.5194   21921178.6674
      1213.2974
  10122924.33549   7871717.73547  23480017.2374   23480013.3784
     -3188.4374
  -4928235.19949  -3837516.41048  20318316.9874   20318312.4374
       999.9844
  -4311622.66549  -3358911.16747  23109714.0264   23109710.7454
      1088.0004
  -7325268.30249  -5693576.37947  22632935.5814   22632932.1124
      3328.7344
 04  9 16 21 47 14.9990000  0  8G 3G 8G13G19G23G27G10G28
    533903.52049    416065.56847  22778132.7844   22778129.1944
     -1265.6724
  -9355330.69249  -7278280.79648  20740874.5814   20740870.4644
      2173.6414
   2816834.22549   2190909.38748  20599603.5894   20599599.0624
     -1712.7974
  -7909708.76249  -6151684.19347  21917734.5654   21917727.8784
      1205.0474
  10170769.27349   7908999.40947  23489121.9484   23489118.5154
     -3190.3444
  -4943211.87449  -3849186.54348  20315467.0344   20315462.2494
       997.4534
  -4327873.45949  -3371574.11447  23106622.1444   23106618.5344
      1079.2344
  -7375171.16149  -5732461.67347  22623439.5264   22623435.6554
      3325.4844
 04  9 16 21 47 29.9990000  0  8G 3G 8G13G19G23G27G10G28
    552955.29349    430911.08447  22781757.7144   22781754.8004
     -1274.0004
  -9387909.45749  -7303666.84048  20734675.2454   20734670.6324
      2170.6414
   2842582.44049   2210972.92348  20604503.1594   20604498.1714
     -1719.9064
  -7927715.48249  -6165715.37947  21914307.5264   21914301.4214
      1196.3444
  10218645.80449   7946305.69647  23498232.7534   23498229.1444
     -3192.6564
  -4958148.10249  -3860825.16948  20312625.0894   20312620.0194
       994.5314
  -4343990.21349  -3384132.63147  23103554.8004   23103551.2844
      1070.0944
  -7425022.25149  -5771306.64047  22613953.0424   22613949.1404
      3321.7034
 04  9 16 21 47 44.9990000  0  8G 3G 8G13G19G23G27G10G28
    572130.94649    445853.13347  22785406.9254   22785403.3664
     -1282.6874
  -9420442.68649  -7329017.39548  20728484.5654   20728480.2844
      2167.1724
   2868437.13949   2231119.42448  20609423.3474   20609418.8194
     -1727.4064
  -7945592.48849  -6179645.50947  21910905.8704   21910899.4214
      1187.2974
  10266556.11249   7983638.30247  23507349.5264   23507345.6984
     -3195.3594
  -4973041.53549  -3872430.43548  20309790.8084   20309786.0224
       991.2344
  -4359970.45849  -3396584.77547  23100514.3704   23100510.7064
      1060.6094
  -7474819.06449  -5810109.29947  22604476.8394   22604473.1444
      3317.8284
 04  9 16 21 47 59.9990000  0  8G 3G 8G13G19G23G27G10G28
    591431.93249    460892.84847  22789079.8084   22789076.7654
     -1290.9534
  -9452928.77749  -7354331.22648  20722302.5734   20722298.1084
      2164.1254
   2894399.82449   2251350.07548  20614363.6984   20614358.6904
     -1734.4844
  -7963337.74349  -6193472.95248  21907528.8084   21907522.0854
      1178.5314
  10314501.65649   8020998.38347  23516473.0504   23516469.7884
     -3197.6724
  -4987890.23049  -3884000.83748  20306965.0654   20306960.3864
       988.3284
  -4375812.35849  -3408929.10247  23097499.2064   23097495.9014
      1051.4844
  -7524559.66749  -5848868.15347  22595012.0114   22595008.3624
      3314.1724
 04  9 16 21 48 14.9990000  0  8G 3G 8G13G19G23G27G10G28
    610857.30449    476029.45447  22792776.9254   22792773.3624
     -1299.1874
  -9485368.23549  -7379608.71548  20716129.3394   20716124.5504
      2161.1094
   2920469.62249   2271664.19148  20619324.9014   20619319.7334
     -1741.5164
  -7980951.83949  -6207198.20047  21904176.8234   21904171.0694
      1169.9064
  10362481.43349   8058385.10247  23525603.3394   23525600.4564
     -3199.7814
  -5002694.92449  -3895536.95748  20304147.7764   20304143.2924
       985.5634
  -4391516.73249  -3421166.26347  23094511.1124   23094507.4174
      1042.4224
  -7574244.67049  -5887583.69047  22585557.0734   22585553.3194
      3310.4844
 04  9 16 21 48 29.9990000  0  8G 3G 8G13G19G23G27G10G28
    630404.36149    491260.90147  22796496.5034   22796493.0624
     -1307.2504
  -9517763.67349  -7404851.91148  20709964.9564   20709960.1404
      2158.1564
   2946643.78049   2292059.61148  20624305.3704   20624300.5194
     -1748.5314
  -7998437.36649  -6220823.28047  21900849.3554   21900843.8124
      1161.3444
  10410492.52649   8095796.22547  23534740.0424   23534736.8514
     -3201.7664
  -5017458.22649  -3907040.83048  20301338.8314   20301333.6284
       982.7814
  -4407086.09249  -3433298.27247  23091547.2924   23091544.4684
      1033.3284
  -7623876.56949  -5926257.86447  22576112.1514   22576108.2374
      3306.9224
 04  9 16 21 48 44.9990000  0  8G 3G 8G13G19G23G27G10G28
    650072.62449    506586.80747  22800239.1364   22800235.5264
     -1315.2664
  -9550115.32249  -7430060.97448  20703808.4724   20703803.7654
      2155.3444
   2972921.96849   2312536.10748  20629305.8624   20629301.5384
     -1755.2974
  -8015794.34949  -6234348.17448  21897546.2534   21897540.4334
      1152.8754
  10458534.75749   8133231.64147  23543881.9174   23543879.0344
     -3203.9064
  -5032180.19149  -3918512.48648  20298537.1594   20298532.1904
       980.0474
  -4422520.55849  -3445325.14047  23088611.4094   23088607.6444
      1024.5004
  -7673455.33849  -5964890.64247  22566677.9404   22566673.3154
      3303.4844
 04  9 16 21 48 59.9990000  0  8G 3G 8G13G19G23G27G10G28
    669864.54849    522009.07347  22804005.4954   22804001.9094
     -1323.1564
  -9582420.18449  -7455233.58548  20697660.9564   20697656.3554
      2152.4384
   2999306.86249   2333095.74348  20634326.9484   20634322.2104
     -1762.2034
  -8033019.85249  -6247770.63048  21894268.9564   21894262.5504
      1144.3754
  10506610.47549   8170693.11747  23553030.4484   23553027.0504
     -3205.8124
  -5046857.99249  -3929949.73248  20295743.8704   20295739.1594
       977.3754
  -4437817.33549  -3457244.68247  23085700.3864   23085696.5384
      1015.5164
  -7722978.11049  -6003479.74547  22557253.6444   22557249.4214
      3300.0164
 04  9 16 21 49 14.9990000  0  8G 3G 8G13G19G23G27G10G28
    689776.04049    537524.49747  22807794.1514   22807790.9404
     -1331.2974
  -9614682.21849  -7480372.82448  20691521.6834   20691516.9684
      2149.4694
   3025794.23349   2353735.23048  20639367.4014   20639362.2224
     -1769.2194
  -8050117.68649  -6261093.60848  21891014.8314   21891008.6164
      1135.6884
  10554715.53249   8208177.45047  23562184.6674   23562181.7964
     -3207.9374
  -5061495.62449  -3941355.67548  20292958.5654   20292953.6444
       974.5784
  -4452980.43849  -3469060.05447  23082815.0734   23082811.2964
      1006.4224
  -7772448.85649  -6042028.34747  22547839.4724   22547835.3864
      3296.4224
 04  9 16 21 49 29.9990000  0  8G 3G 8G13G19G23G27G10G28
    709808.47749    553134.17147  22811606.3154   22811603.2264
     -1339.6094
  -9646899.63049  -7505477.29848  20685390.9954   20685386.5424
      2146.1564
   3052385.62849   2374455.78548  20644427.3944   20644422.8354
     -1776.3914
  -8067086.01749  -6274315.66447  21887785.6674   21887779.7374
      1126.7034
  10602851.16149   8245685.66747  23571345.0424   23571341.5304
     -3210.1874
  -5076091.23049  -3952728.86848  20290181.1904   20290176.4134
       971.5004
  -4468008.17049  -3480770.01047  23079955.1054   23079951.4874
       997.2194
  -7821865.84349  -6080535.04247  22538435.7064   22538431.4174
      3292.5004
 04  9 16 21 49 44.9990000  0  8G 3G 8G13G19G23G27G10G28
    729962.88649    568838.86747  22815441.5584   22815438.2804
     -1348.1094
  -9679071.00949  -7530545.88848  20679269.2454   20679264.1834
      2142.7664
   3079082.17649   2395258.26448  20649508.0814   20649502.7884
     -1783.7034
  -8083923.51949  -6287435.78247  21884581.9724   21884575.8784
      1117.6564
  10651018.59049   8283218.57147  23580510.4954   23580507.5464
     -3212.6564
  -5090643.56049  -3964068.34748  20287411.9174   20287407.1084
       968.3284
  -4482899.27449  -3492373.46847  23077121.9094   23077116.8664
       987.7974
  -7871227.43649  -6118998.59447  22529042.8084   22529038.5694
      3288.4224
 04  9 16 21 49 59.9990000  0  8G 3G 8G13G19G23G27G10G28
    750238.37749    584637.92347  22819300.0034   22819296.7574
     -1355.6094
  -9711197.24749  -7555579.32048  20673155.7844   20673151.2304
      2140.3754
   3105883.01949   2416142.02148  20654607.8944   20654603.2144
     -1790.0474
  -8100630.77249  -6300454.40748  21881402.6594   21881396.4094
      1109.5314
  10699216.72449   8320775.43847  23589682.6904   23589679.8394
     -3214.0004
  -5105153.25849  -3975374.61248  20284651.0114   20284645.8434
       965.9384
  -4497654.29749  -3503870.89247  23074313.3624   23074309.1674
       979.2344
  -7920534.28049  -6157419.46447  22519660.1674   22519656.3354
      3285.4384
 04  9 16 21 50 14.9990000  0  8G 3G 8G13G19G23G27G10G28
    770632.72649    600529.60947  22823181.0974   22823177.5934
     -1363.8444
  -9743280.15349  -7580578.98248  20667050.4174   20667045.5894
      2137.1414
   3132785.73649   2437105.16348  20659727.1444   20659722.4914
     -1797.1414
  -8117209.67749  -6313373.01148  21878247.8784   21878241.1324
      1100.7194
  10747443.28649   8358354.46747  23598859.9874   23598857.3194
     -3216.2664
  -5119622.37149  -3986649.23448  20281897.2844   20281892.3704
       963.0164
  -4512275.32749  -3515263.90947  23071531.0264   23071527.1324
       970.0164
  -7969788.45649  -6195799.30947  22510287.2224   22510282.6834
      3281.6094
 04  9 16 21 50 29.9990000  0  8G 3G 8G13G19G23G27G10G28
    791150.78749    616517.67147  22827085.0734   22827081.6794
     -1371.9064
  -9775314.72349  -7605540.97748  20660954.1904   20660949.8824
      2134.0784
   3159795.34849   2458151.59248  20664866.6904   20664862.0224
     -1804.1414
  -8133655.09849  -6326187.61747  21875118.1904   21875111.9954
      1092.0004
  10795703.00649   8395959.32747  23608043.6204   23608040.7064
     -3218.3284
  -5134045.73749  -3997888.22048  20279152.5654   20279147.3234
       960.1254
  -4526757.38049  -3526548.64447  23068776.0034   23068771.6204
       960.8754
  -8018984.50349  -6234133.85347  22500925.5114   22500921.1554
      3277.8914
 04  9 16 21 50 44.9990000  0  8G 3G 8G13G19G23G27G10G28
    811789.00149    632599.38747  22831012.5424   22831009.8824
     -1379.5624
  -9807304.04549  -7630467.71148  20654867.0814   20654862.5934
      2131.4384
   3186908.38549   2479278.62348  20670026.0264   20670021.2494
     -1810.6254
  -8149970.20449  -6338900.67847  21872013.6594   21872007.4174
      1083.6254
  10843992.38249   8433587.27147  23617233.1124   23617229.6014
     -3219.9374
  -5148426.51549  -4009094.02448  20276416.3314   20276411.2064
       957.6254
  -4541103.80749  -3537727.63347  23066045.6284   23066041.8124
       952.2664
  -8068125.59549  -6272425.57347  22491574.0654   22491569.9644
      3274.5474
 04  9 16 21 50 59.9990000  0  8G 3G 8G13G19G23G27G10G28
    832547.36149    648774.69447  22834963.1754   22834959.8824
     -1387.6094
  -9839247.83549  -7655358.96448  20648788.2374   20648783.6444
      2128.3284
   3214124.92949   2500486.31248  20675205.5504   20675200.7964
     -1817.6094
  -8166154.47949  -6351511.78248  21868933.6444   21868927.8744
      1074.7504
  10892311.42149   8471238.35847  23626427.7064   23626424.9094
     -3222.0474
  -5162764.35149  -4020266.36048  20273687.6834   20273683.1014
       954.6564
  -4555314.25249  -3548800.70547  23063341.5114   23063337.3474
       943.0474
  -8117211.45849  -6310674.26347  22482233.4484   22482229.1834
      3270.8284
 04  9 16 21 51 14.9990000  0  8G 3G 8G13G19G23G27G10G28
    853423.91749    665042.12847  22838935.5114   22838932.4094
     -1395.8284
  -9871147.83749  -7680216.10148  20642718.1514   20642713.1514
      2125.0474
   3241443.00049   2521773.10848  20680403.9094   20680399.1324
     -1824.7664
  -8182209.69049  -6364022.31548  21865878.2924   21865872.0694
      1065.8444
  10940658.15649   8508911.03347  23635627.7224   23635624.9444
     -3224.1724
  -5177061.06249  -4031406.65548  20270967.2374   20270962.4444
       951.6094
  -4569390.42049  -3559769.15647  23060662.6204   23060658.6284
       933.7504
  -8166243.80349  -6348881.24047  22472902.7764   22472898.5224
      3266.9844
 04  9 16 21 51 29.9990000  0  8G 3G 8G13G19G23G27G10G28
    874420.97649    681403.44247  22842931.0654   22842927.8234
     -1403.4844
  -9903001.49649  -7705037.13648  20636656.0504   20636651.8974
      2122.2974
   3268864.99949   2543140.88448  20685622.5584   20685617.2844
     -1831.2194
  -8198133.08249  -6376430.14848  21862848.8554   21862842.4684
      1057.5164
  10989034.83549   8546607.01347  23644833.6594   23644830.7184
     -3225.7344
  -5191314.03349  -4042512.86348  20268254.8084   20268250.0464
       949.0784
  -4583329.92249  -3570631.11047  23058010.7374   23058006.3584
       925.0944
  -8215220.07349  -6387044.54447  22463583.1204   22463578.6674
      3263.5784
 04  9 16 21 51 44.9990000  0  8G 3G 8G13G19G23G27G10G28
    895536.71249    697857.23547  22846949.2694   22846946.0974
     -1411.7664
  -9934810.26049  -7729823.16848  20630603.4874   20630598.9174
      2118.9534
   3296389.24249   2564588.33248  20690860.2534   20690855.0424
     -1838.5314
  -8213926.03549  -6388736.33248  21859843.2144   21859837.0114
      1048.4064
  11037439.67049   8584324.92547  23654045.4334   23654042.1904
     -3228.0314
  -5205524.70449  -4053586.11648  20265550.9484   20265545.6124
       945.8594
  -4597134.22249  -3581387.71147  23055383.1124   23055379.0894
       915.7664
  -8264141.56649  -6425165.14847  22454273.2224   22454269.1514
      3259.4384
 04  9 16 21 51 59.9990000  0  7G 3G 8G13G19G27G10G28
    916773.52949    714405.39547  22850990.1754   22850987.8154
     -1419.6724
  -9966571.48949  -7754572.17748  20624559.3474   20624554.4834
      2116.0164
   3324018.20049   2586117.37948  20696117.6284   20696112.6984
     -1845.2664
  -8229585.83749  -6400938.76748  21856863.3474   21856857.0114
      1039.6724
  -5219690.42449  -4064624.33148  20262855.3234   20262850.2724
       943.0164
  -4610800.64349  -3592036.87047  23052782.0814   23052778.7844
       906.6254
  -8313005.62349  -6463241.00147  22444974.9564   22444970.3194
      3255.8594
 04  9 16 21 52 14.9990000  0  7G 3G 8G13G19G27G10G28
    938132.32249    731048.60747  22855055.4404   22855052.0424
     -1427.4534
  -9998283.76949  -7779283.03748  20618524.7924   20618519.9644
      2112.9534
   3351752.79349   2607728.73048  20701395.3554   20701390.1984
     -1851.9534
  -8245111.28049  -6413036.49947  21853908.6204   21853902.5734
      1031.0004
  -5233809.91349  -4075626.53648  20260168.1904   20260163.4094
       940.1884
  -4624328.08349  -3602577.70847  23050207.7924   23050204.7144
       897.7034
  -8361810.89749  -6501271.05547  22435687.5814   22435683.7964
      3252.2034
 04  9 16 21 52 29.9980000  0  7G 3G 8G13G19G27G10G28
    959607.48549    747782.46947  22859141.5614   22859138.5454
     -1435.5624
 -10029948.89249  -7803957.15048  20612499.0374   20612494.3614
      2109.7504
   3379587.00049   2629417.70448  20706692.2954   20706687.4394
     -1859.0164
  -8260505.18449  -6425031.74247  21850979.3264   21850973.2014
      1022.0784
  -5247886.10549  -4086594.99248  20257489.6314   20257484.6934
       937.1884
  -4637719.61249  -3613012.65547  23047659.8654   23047656.4864
       888.4844
  -8410558.01849  -6539255.77747  22426411.3264   22426407.0454
      3248.2814
 04  9 16 21 52 44.9980000  0  7G 3G 8G13G19G27G10G28
    981206.03949    764612.49847  22863251.4514   22863248.7054
     -1444.0004
 -10061566.50449  -7828594.24948  20606482.2324   20606477.2404
      2106.2504
   3407528.73249   2651190.46148  20712009.1544   20712004.0494
     -1866.2504
  -8275765.10149  -6436922.58648  21848075.5454   21848069.5064
      1012.8594
  -5261916.55549  -4097527.81448  20254819.6314   20254815.0804
       933.8444
  -4650972.53149  -3623339.61647  23045137.6234   23045134.6194
       878.9224
  -8459249.02549  -6577196.79747  22417145.6784   22417141.1974
      3244.1564
 04  9 16 21 52 59.9980000  0  7G 3G 8G13G19G27G10G28
   1002927.02449    781537.93447  22867384.8264   22867382.7444
     -1452.1414
 -10093133.86249  -7853192.17948  20600475.5144   20600470.5844
      2102.8284
   3435576.79949   2673046.08448  20717346.4124   20717342.2364
     -1873.3754
  -8290889.11249  -6448707.50447  21845197.5374   21845191.3974
      1003.7974
  -5275899.49349  -4108423.61448  20252158.5064   20252153.8114
       930.6564
  -4664085.42149  -3633557.46647  23042642.7094   23042639.1004
       869.5314
  -8507879.75049  -6615090.83047  22407891.7484   22407887.2444
      3240.0634
 04  9 16 21 53 14.9980000  0  7G 3G 8G13G19G27G10G28
   1024773.01049    798560.77747  22871542.0924   22871539.0024
     -1460.8284
 -10124648.27049  -7877748.85248  20594478.1394   20594473.5884
      2098.9384
   3463733.80649   2694986.59248  20722704.8734   20722699.8574
     -1880.9844
  -8305874.25249  -6460384.23347  21842345.7484   21842339.6744
       994.1094
  -5289831.96549  -4119280.07148  20249507.4674   20249502.3424
       926.8594
  -4677055.45549  -3643663.95647  23040174.7644   23040170.8694
       859.6094
  -8556447.13849  -6652935.51247  22398649.6004   22398645.0494
      3235.3914
 04  9 16 21 53 29.9980000  0  7G 3G 8G13G19G27G10G28
   1046742.84949    815680.11047  22875723.0844   22875720.4164
     -1468.4064
 -10156110.46649  -7902264.84748  20588491.1314   20588486.7524
      2096.0474
   3491998.55749   2717011.05148  20728083.2874   20728078.5534
     -1887.5784
  -8320721.54449  -6471953.54448  21839520.5294   21839514.2644
       985.5634
  -5303714.97849  -4130098.01648  20246865.7324   20246860.7134
       924.1884
  -4689883.56549  -3653659.89447  23037733.4044   23037729.7324
       850.7974
  -8604952.16049  -6690731.61447  22389419.3184   22389414.9984
      3231.8754
 04  9 16 21 53 44.9980000  0  7G 3G 8G13G19G27G10G28
   1068831.03449    832891.69047  22879926.3734   22879923.2994
     -1476.3754
 -10187525.47349  -7926744.06248  20582513.0454   20582508.5924
      2092.8914
   3520365.68749   2739115.27948  20733481.6474   20733476.9594
     -1894.4224
  -8335435.91449  -6483419.28048  21836720.5144   21836714.1664
       976.6724
  -5317553.55049  -4140881.32048  20244232.2484   20244227.4594
       921.2344
  -4702574.84749  -3663549.19447  23035318.7724   23035315.0024
       841.6254
  -8653399.87849  -6728483.04247  22380199.8114   22380195.7794
      3228.0944
 04  9 16 21 53 59.9980000  0  7G 3G 8G13G19G27G10G28
   1091038.07249    850195.85747  22884152.3424   22884149.3144
     -1484.6874
 -10218892.52249  -7951185.92248  20576544.1784   20576539.3734
      2089.2194
   3548835.84149   2761299.80448  20738899.3574   20738894.6664
     -1901.7664
  -8350016.48849  -6494780.76648  21833945.8974   21833939.9434
       967.2504
  -5331346.94449  -4151629.42348  20241607.6074   20241602.6234
       917.7194
  -4715128.64149  -3673331.38447  23032929.6314   23032925.7954
       831.9694
  -8701789.46849  -6766189.18347  22370991.2724   22370987.4124
      3223.7194
 04  9 16 21 54 14.9980000  0  7G 3G 8G13G19G27G10G28
   1113370.88949    867598.05047  22888401.9434   22888398.8894
     -1492.6724
 -10250204.52349  -7975584.86948  20570585.6544   20570581.3934
      2085.9844
   3577415.92049   2783569.97948  20744338.0374   20744332.7174
     -1908.6724
  -8364456.13249  -6506032.41948  21831197.9204   21831192.1504
       958.3284
  -5345087.92249  -4162336.68148  20238993.0614   20238987.5224
       914.6724
  -4727537.75849  -3683000.82247  23030568.3184   23030564.7564
       822.7974
  -8750113.66849  -6803844.35447  22361795.8344   22361791.5414
      3219.8284
 04  9 16 21 54 29.9980000  0  7G 3G 8G13G19G27G10G28
   1135820.98149    885091.62247  22892673.9284   22892671.1584
     -1500.8444
 -10281469.54149  -7999947.22948  20564635.6234   20564631.7444
      2082.5784
   3606097.51549   2805919.24948  20749796.0144   20749790.3854
     -1915.7504
  -8378762.90249  -6517180.54648  21828475.7484   21828469.4944
       949.0784
  -5358784.70949  -4173009.50648  20236386.2484   20236381.3774
       911.3594
  -4739810.56149  -3692564.05247  23028232.5064   23028228.7444
       813.4064
  -8798380.58949  -6841454.91847  22352610.7014   22352606.5184
      3215.5784
 04  9 16 21 54 44.9980000  0  7G 3G 8G13G19G27G10G28
   1158389.45049    902677.43547  22896968.8184   22896965.6314
     -1508.2664
 -10312686.24949  -8024271.92448  20558695.5924   20558690.8854
      2079.7664
   3634881.61749   2828348.41048  20755272.9754   20755268.5924
     -1922.1724
  -8392935.39949  -6528224.04648  21825778.4754   21825772.8034
       940.6094
  -5372435.90049  -4183646.79648  20233788.4044   20233783.6154
       908.7814
  -4751945.72949  -3702020.01847  23025922.8894   23025919.5724
       804.7194
  -8846588.78349  -6879019.71247  22343437.0294   22343432.8734
      3212.1884
 04  9 16 21 54 59.9980000  0  7G 3G 8G13G19G27G10G28
   1181074.78049    920354.31347  22901286.0924   22901282.3384
     -1516.8444
 -10343855.83949  -8048559.90148  20552764.3654   20552760.1354
      2075.7504
   3663766.78049   2850856.31748  20760770.0224   20760764.9324
     -1929.6724
  -8406974.80049  -6539163.82348  21823107.0064   21823100.8504
       930.8754
  -5386042.70849  -4194249.49648  20231199.2254   20231194.3934
       905.0164
  -4763944.51649  -3711369.71747  23023640.0614   23023636.7134
       794.7814
  -8894739.43749  -6916539.68047  22334274.1474   22334270.1704
      3207.4694
 04  9 16 21 55 14.9980000  0  7G 3G 8G13G19G27G10G28
   1203886.75149    938129.88047  22905626.3264   22905623.3184
     -1524.6564
 -10374968.04249  -8072803.17148  20546843.9594   20546839.2254
      2072.6414
   3692763.00249   2873450.74948  20766287.5924   20766282.9004
     -1936.3754
  -8420870.93749  -6549991.98148  21820462.4674   21820456.7294
       922.0784
  -5399594.97849  -4204809.70848  20228620.1074   20228615.2404
       902.0784
  -4775796.98049  -3720605.40847  23021384.2954   23021381.1934
       785.6884
  -8942822.40049  -6954006.88147  22325124.1784   22325120.0294
      3203.5944
 04  9 16 21 55 29.9980000  0  7G 3G 8G13G19G27G10G28
   1226822.04449    956001.53947  22909990.9434   22909987.5534
     -1532.9844
 -10406025.96949  -8097004.16348  20540933.6624   20540929.0144
      2068.8444
   3721866.96249   2896129.12748  20771826.0684   20771821.0964
     -1943.7344
  -8434626.84549  -6560710.86247  21817845.0764   21817838.8774
       912.4844
  -5413095.74249  -4215329.80148  20226051.0144   20226046.3114
       898.4844
  -4787506.15849  -3729729.44047  23019156.9044   23019152.9634
       775.9694
  -8990840.62049  -6991423.65247  22315986.8114   22315982.5024
      3199.1724
 04  9 16 21 55 44.9980000  0  7G 3G 8G13G19G27G10G28
   1249878.26349    973967.40647  22914378.3184   22914374.9554
     -1541.2194
 -10437031.71349  -8121164.47448  20535033.3974   20535028.7994
      2065.1884
   3751076.32149   2918889.63848  20777384.5844   20777379.7214
     -1950.9224
  -8448244.52149  -6571322.03247  21815253.6474   21815247.8224
       903.0634
  -5426547.01349  -4225811.30748  20223491.2724   20223486.6824
       894.9384
  -4799074.15449  -3738743.46647  23016955.2644   23016951.3654
       766.3594
  -9038796.14049  -7028791.56547  22306861.2794   22306857.3224
      3194.7194
 04  9 16 21 55 59.9980000  0  7G 3G 8G13G19G27G10G28
   1273056.34249    992028.25547  22918789.3894   22918786.0334
     -1549.3754
 -10467983.87249  -8145283.02448  20529143.4824   20529139.1114
      2061.5474
   3780392.17149   2941733.15048  20782962.8504   20782957.7994
     -1958.0784
  -8461722.60049  -6581824.41248  21812689.1154   21812683.3574
       893.8594
  -5439947.55149  -4236253.27848  20220941.3504   20220936.6074
       891.5944
  -4810499.82849  -3747646.57247  23014781.2794   23014777.4044
       756.9224
  -9086687.58349  -7066109.54447  22297747.5684   22297743.5414
      3190.5314
 04  9 16 21 56 14.9980000  0  7G 3G 8G13G19G27G10G28
   1296356.43249   1010184.15647  22923222.7174   22923220.0374
     -1557.2664
 -10498882.20449  -8169359.64348  20523263.7404   20523259.4084
      2058.1884
   3809814.58349   2964659.68848  20788561.9044   20788556.8224
     -1964.9844
  -8475060.76149  -6592217.79348  21810150.9284   21810144.9634
       884.6564
  -5453296.96849  -4246655.42748  20218401.1864   20218396.3734
       888.3134
  -4821782.75049  -3756438.47147  23012634.0454   23012630.3384
       747.4224
  -9134514.47349  -7103377.21647  22288646.5924   22288642.0534
      3186.4064
 04  9 16 21 56 29.9980000  0  7G 3G 8G13G19G27G10G28
   1319776.94449   1028433.89047  22927679.9824   22927676.5104
     -1565.3914
 -10529727.81549  -8193395.18648  20517393.9904   20517389.6194
      2054.5314
   3839342.10049   2987668.11748  20794180.5684   20794175.8034
     -1972.0314
  -8488260.02749  -6602502.92648  21807639.0144   21807632.7644
       875.3754
  -5466596.41049  -4257018.62848  20215870.2644   20215865.3144
       884.9844
  -4832924.32249  -3765120.20747  23010513.4674   23010510.4984
       738.0314
  -9182278.02849  -7140595.55247  22279557.6704   22279553.3774
      3182.1724
 04  9 16 21 56 44.9980000  0  7G 3G 8G13G19G27G10G28
   1343319.96549   1046779.10847  22932159.3574   22932156.6934
     -1573.7814
 -10560518.22949  -8217387.70248  20511534.8264   20511530.4324
      2050.7194
   3868976.91649   3010760.16348  20799820.0684   20799815.4794
     -1979.4064
  -8501318.00949  -6612677.97748  21805154.1624   21805148.0844
       865.6724
  -5479843.49349  -4267341.03048  20213349.6004   20213344.7444
       881.2194
  -4843922.19149  -3773689.96547  23008421.0844   23008417.1544
       728.2814
  -9229975.71449  -7177762.52747  22270481.1234   22270476.6864
      3177.5004
 04  9 16 21 56 59.9980000  0  7G 3G 8G13G19G27G10G28
   1366983.63949   1065218.33047  22936662.9984   22936660.1194
     -1581.0474
 -10591255.14249  -8241338.53248  20505686.0144   20505681.5104
      2047.8594
   3898717.26649   3033934.44348  20805479.4044   20805474.7914
     -1985.6724
  -8514236.26049  -6622744.13747  21802696.0924   21802689.6704
       857.1414
  -5493039.76049  -4277623.83948  20210837.9824   20210833.7644
       878.5944
  -4854778.05149  -3782149.07447  23006355.1474   23006351.5574
       719.5164
  -9277609.16449  -7214879.47647  22261416.2094   22261412.1864
      3173.9694
 04  9 16 21 57 14.9980000  0  7G 3G 8G13G19G27G10G28
   1390766.11549   1083750.10047  22941189.1074   22941185.4714
     -1589.6094
 -10621939.77049  -8265248.64248  20499846.5374   20499842.1744
      2043.6724
   3928561.20249   3057189.43348  20811158.9124   20811154.0064
     -1993.2974
  -8527016.31649  -6632702.62548  21800264.2644   21800257.8224
       847.1884
  -5506186.91549  -4287868.37848  20208336.5294   20208331.7294
       874.6724
  -4865493.49249  -3790498.77447  23004316.6624   23004312.2834
       709.5164
  -9325179.84549  -7251947.49747  22252364.2254   22252359.9514
      3169.0634
 04  9 16 21 57 29.9980000  0  7G 3G 8G13G19G27G10G28
   1414669.62949   1102376.23247  22945737.2254   22945733.8264
     -1597.7344
 -10652569.68449  -8289116.09948  20494018.2014   20494013.2294
      2040.0474
   3958511.05049   3080526.95648  20816858.1154   20816853.0884
     -2000.2814
  -8539655.57149  -6642551.37848  21797858.7724   21797852.5414
       837.8134
  -5519282.04749  -4298072.38048  20205844.5844   20205839.5964
       871.1564
  -4876066.11649  -3798737.18947  23002304.0614   23002300.5374
       699.9064
  -9372685.00149  -7288964.49247  22243324.1004   22243320.2094
      3164.7034
 04  9 16 21 57 44.9980000  0  7G 3G 8G13G19G27G10G28
   1438695.13849   1121097.41347  22950309.5224   22950305.8974
     -1605.9374
 -10683143.77649  -8312940.05548  20488200.0614   20488195.6274
      2036.2814
   3988567.95349   3103947.91148  20822577.5224   20822572.8814
     -2007.4694
  -8552152.71249  -6652289.39348  21795480.5454   21795474.6154
       828.2194
  -5532324.15949  -4308235.05348  20203362.5534   20203358.4364
       867.5634
  -4886494.66549  -3806863.32647  23000320.1234   23000316.0684
       690.1884
  -9420123.42549  -7325929.45347  22234296.7794   22234292.2174
      3160.2344
 04  9 16 21 57 59.9980000  0  7G 3G 8G13G19G27G10G28
   1462848.65049   1139918.31647  22954905.7174   22954902.1004
     -1613.8914
 -10713655.66549  -8336715.54448  20482393.7724   20482389.2724
      2032.6564
   4018737.95749   3127456.97548  20828318.8654   20828313.7094
     -2014.4224
  -8564501.42349  -6661911.76548  21793130.6074   21793124.5964
       818.9534
  -5545306.86749  -4318351.45948  20200892.5144   20200887.1664
       864.2034
  -4896773.07349  -3814872.48447  22998364.0144   22998359.7324
       680.8444
  -9467488.70349  -7362837.41947  22225283.2874   22225279.1784
      3155.8914
 04  9 16 21 58 14.9980000  0  7G 3G 8G13G19G27G10G28
   1487118.78949   1158830.10847  22959523.5454   22959520.4794
     -1622.0164
 -10744116.05549  -8360450.90748  20476597.3654   20476592.6584
      2028.7974
   4049009.74449   3151045.36648  20834079.4594   20834074.4164
     -2021.6254
  -8576712.63149  -6671426.97848  21790807.0764   21790800.9594
       809.3284
  -5558240.94249  -4328429.95948  20198430.7564   20198426.3074
       860.5164
  -4906912.25249  -3822773.12947  22996434.4984   22996430.4864
       671.1884
  -9514791.81049  -7399696.96647  22216281.9674   22216277.2644
      3151.3284
 04  9 16 21 58 29.9980000  0  7G 3G 8G13G19G27G10G28
   1511512.02949   1177837.81147  22964166.0454   22964162.7684
     -1630.2344
 -10774518.36749  -8384141.02048  20470812.2324   20470807.3504
      2024.8914
   4079389.87249   3174718.16848  20839860.4754   20839855.7484
     -2028.9534
  -8588779.63249  -6680829.83548  21788510.7954   21788504.4004
       799.7034
  -5571119.86449  -4338465.48548  20195980.4204   20195975.0064
       856.7504
  -4916905.60949  -3830560.18047  22994532.6314   22994529.0104
       661.3914
  -9562026.00149  -7436502.79847  22207293.6864   22207289.1824
      3146.6724
 04  9 16 21 58 44.9980000  0  7G 3G 8G13G19G27G10G28
   1536027.62749   1196940.86847  22968831.3574   22968827.9864
     -1638.2504
 -10804863.06149  -8407786.22748  20465037.5144   20465032.8974
      2021.3134
   4109877.51749   3198474.75448  20845662.0374   20845657.5924
     -2035.9374
  -8600702.80249  -6690120.60048  21786241.9674   21786235.5684
       790.3284
  -5583944.03049  -4348458.34748  20193539.6934   20193534.9474
       853.3284
  -4926753.78149  -3838234.06847  22992658.7324   22992654.9124
       651.9694
  -9609191.66549  -7473255.22847  22198318.3504   22198314.2564
      3142.2814
 04  9 16 21 58 59.9980000  0  7G 3G 8G13G19G27G10G28
   1560665.26949   1216139.01147  22973519.5844   22973516.0224
     -1646.4374
 -10835150.01949  -8431386.44148  20459274.0764   20459269.4164
      2017.3134
   4140472.57049   3222315.03448  20851483.8814   20851479.4124
     -2043.1254
  -8612482.02749  -6699299.20948  21784000.4044   21783993.9794
       780.6414
  -5596713.27949  -4358408.41248  20191110.0614   20191105.1234
       849.5474
  -4936456.78749  -3845794.86647  22990812.0294   22990808.3504
       642.1724
  -9656288.65149  -7509954.14947  22189355.9674   22189351.4554
      3137.5784
 04  9 16 21 59 14.9980000  0  7G 3G 8G13G19G27G10G28
   1585423.26949   1235430.94747  22978230.6394   22978227.3184
     -1654.5164
 -10865380.62349  -8454942.74848  20453521.4124   20453516.6744
      2013.5944
   4171173.43649   3246237.77448  20857326.3974   20857321.3384
     -2050.1874
  -8624118.65749  -6708366.70048  21781785.9754   21781779.8504
       771.0634
  -5609429.14249  -4368316.87048  20188690.1624   20188685.5684
       846.0314
  -4946016.02049  -3853243.60447  22988993.1154   22988989.4984
       632.5784
  -9703318.21649  -7546600.52247  22180406.7324   22180401.7684
      3133.1094
 04  9 16 21 59 29.9980000  0  7G 3G 8G13G19G27G10G28
   1610305.48549   1254819.66947  22982965.4674   22982962.0574
     -1662.8594
 -10895550.81249  -8478451.98948  20447780.2644   20447775.6584
      2009.3594
   4201983.99349   3270245.97648  20863189.5064   20863184.4754
     -2057.6724
  -8635608.48949  -6717319.80948  21779599.6704   21779593.4434
       761.0944
  -5622087.22049  -4378180.30948  20186281.4044   20186276.8654
       842.0164
  -4955427.40749  -3860577.16047  22987202.3504   22987198.4824
       622.5634
  -9750276.22549  -7583191.15247  22171470.4364   22171466.4514
      3128.1884
 04  9 16 21 59 44.9980000  0  7G 3G 8G13G19G27G10G28
   1635310.73749   1274304.25547  22987723.9904   22987720.5254
     -1671.0314
 -10925661.32749  -8501914.70648  20442050.2644   20442045.6074
      2005.4384
   4232903.11149   3294338.77648  20869073.1074   20869068.1154
     -2064.7974
  -8646952.45049  -6726159.23648  21777440.7724   21777434.7014
       751.5164
  -5634688.47549  -4387999.46848  20183883.5844   20183878.5064
       838.2664
  -4964691.96249  -3867796.28147  22985439.4674   22985435.8384
       612.8594
  -9797163.58649  -7619726.72747  22162548.3114   22162543.7054
      3123.6094
 04  9 16 21 59 59.9980000  0  7G 3G 8G13G19G27G10G28
   1660437.07149   1293883.20647  22992505.6074   22992502.6624
     -1678.8914
 -10955713.60349  -8525332.06548  20436331.5684   20436327.0334
      2001.7814
   4263928.78749   3318514.59848  20874977.1934   20874972.4324
     -2071.7194
  -8658152.25049  -6734886.34048  21775309.8974   21775303.4164
       742.0944
  -5647234.50649  -4397775.60448  20181496.5224   20181491.6544
       834.8134
  -4973811.50249  -3874902.45147  22983703.8424   22983700.4164
       603.3284
  -9843981.89949  -7656208.49047  22153639.2484   22153634.8464
      3119.2504
 04  9 16 22  0 14.9980000  0  7G 3G 8G13G19G27G10G28
   1685685.24449   1313557.11047  22997309.1314   22997306.4674
     -1687.2974
 -10985706.89149  -8548703.43848  20430624.1624   20430619.6824
      1997.6254
   4295061.81049   3342774.08248  20880901.8894   20880897.0574
     -2079.0314
  -8669206.68249  -6743500.16847  21773205.8504   21773199.5374
       732.1414
  -5659724.31549  -4407507.90648  20179119.3114   20179114.2174
       830.7194
  -4982784.98449  -3881894.76347  22981996.3894   22981992.2754
       593.3134
  -9890729.92549  -7692635.49147  22144743.0924   22144739.1234
      3114.1884
 04  9 16 22  0 29.9980000  0  7G 3G 8G13G19G27G10G28
   1711059.18749   1333328.97247  23002138.4204   23002135.4084
     -1695.7974
 -11015636.75349  -8572025.40248  20424928.8504   20424924.5024
      1993.1724
   4326306.34549   3367120.45748  20886847.1934   20886842.2954
     -2086.6724
  -8680111.42849  -6751997.35547  21771130.8184   21771124.2684
       721.9534
  -5672153.55649  -4417193.04048  20176754.2174   20176749.3424
       826.5004
  -4991608.30049  -3888770.07747  22980317.5144   22980313.7134
       583.2344
  -9937403.36849  -7729004.37847  22135861.3654   22135857.3974
      3109.0164
 04  9 16 22  0 44.9980000  0  7G 3G 8G13G19G27G10G28
   1736555.51149   1353196.22447  23006990.5614   23006986.9044
     -1704.1254
 -11045506.07849  -8595300.20648  20419244.7724   20419240.1894
      1988.9384
   4357659.07149   3391551.12348  20892813.0924   20892808.8424
     -2094.1254
  -8690869.52049  -6760380.28448  21769083.6704   21769077.1114
       711.9844
  -5684525.20949  -4426833.29148  20174399.9044   20174394.9714
       822.5164
  -5000284.53949  -3895530.78647  22978666.7174   22978662.8034
       573.2664
  -9984005.26149  -7765317.50647  22126993.2174   22126989.2324
      3104.0634
 04  9 16 22  0 59.9980000  0  7G 3G 8G13G19G27G10G28
   1762174.22349   1373158.83747  23011865.5684   23011861.8854
     -1712.0164
 -11075314.55349  -8618527.57048  20413572.3574   20413567.7524
      1985.2034
   4389120.01149   3416066.12148  20898800.5924   20898795.5724
     -2101.0314
  -8701480.72449  -6768648.71448  21767064.3654   21767058.0104
       702.5634
  -5696839.00049  -4436428.44948  20172056.8424   20172051.7404
       818.9844
  -5008813.61649  -3902176.82247  22977043.0064   22977039.7324
       563.6724
 -10030535.22149  -7801574.58247  22118138.9594   22118134.9324
      3099.5474
 04  9 16 22  1 14.9980000  0  7G 3G 8G13G19G27G10G28
   1787915.38549   1393216.87747  23016764.2014   23016760.7874
     -1720.3284
 -11105061.62949  -8641707.11148  20407911.8184   20407907.2524
      1980.9224
   4420689.29649   3440665.54348  20904807.7954   20904803.1394
     -2108.3914
  -8711944.60349  -6776802.37948  21765073.3114   21765067.3304
       692.5004
  -5709094.56249  -4445978.23848  20169724.5224   20169719.8654
       814.9064
  -5017195.20349  -3908707.93047  22975447.6704   22975444.4044
       553.6564
 -10076992.82149  -7837775.28247  22109298.2174   22109294.1504
      3094.5314
 04  9 16 22  1 29.9980000  0  7G 3G 8G13G19G27G10G28
   1813787.09649   1413376.62847  23021687.9364   23021683.7564
     -1728.7194
 -11134739.07349  -8664832.38148  20402264.2404   20402259.9674
      1976.5944
   4452375.06949   3465355.73348  20910837.6314   20910832.5254
     -2115.8284
  -8722252.71149  -6784834.64748  21763111.4824   21763104.9124
       682.4534
  -5721283.32149  -4455475.97248  20167404.9124   20167400.4044
       810.7034
  -5025420.90949  -3915117.58447  22973882.4364   22973879.0804
       543.6414
 -10123369.54149  -7873912.94547  22100472.9824   22100468.9714
      3089.5474
 04  9 16 22  1 44.9980000  0  7G 3G 8G13G19G27G10G28
   1839777.25649   1433628.68447  23026632.8894   23026629.6074
     -1736.7814
 -11164358.66449  -8687912.56848  20396628.0844   20396623.4124
      1972.5634
   4484165.39249   3490127.40248  20916886.9284   20916882.3814
     -2122.9534
  -8732416.70149  -6792754.61848  21761177.6394   21761171.2254
       672.6724
  -5733417.04649  -4464930.81248  20165096.1314   20165091.6864
       806.9694
  -5033502.57249  -3921414.98047  22972345.0374   22972341.2524
       533.8284
 -10169677.10649  -7909996.72247  22091661.0614   22091656.6934
      3084.7344
 04  9 16 22  1 59.9980000  0  7G 3G 8G13G19G27G10G28
   1865890.73749   1453976.81947  23031601.4984   23031598.6744
     -1745.4064
 -11193915.07949  -8710943.52948  20391003.5844   20390999.0254
      1967.9224
   4516065.02749   3514984.24548  20922957.2954   20922952.1864
     -2130.5944
  -8742431.55049  -6800558.36748  21759271.6864   21759265.3854
       662.3134
  -5745490.61849  -4474338.79348  20162798.7954   20162793.6624
       802.5164
  -5041435.23849  -3927596.28047  22970835.5064   22970831.5614
       523.5004
 -10215910.36849  -7946022.62047  22082863.2174   22082858.6274
      3079.3914
 04  9 16 22  2 14.9980000  0  7G 3G 8G13G19G27G10G28
   1892133.49849   1474425.71947  23036595.9674   23036593.0924
     -1753.7504
 -11223401.90349  -8733920.27148  20385392.2724   20385387.7644
      1963.5784
   4548080.06249   3539931.00848  20929049.3264   20929044.8544
     -2138.0314
  -8752290.89149  -6808240.94848  21757395.4124   21757389.3224
       652.2664
  -5757497.57549  -4483694.86848  20160513.9984   20160508.9244
       798.4064
  -5049212.75649  -3933656.69347  22969355.4514   22969351.4864
       513.5314
 -10262062.84449  -7981985.55647  22074080.3344   22074076.6394
      3074.2974
 04  9 16 22  2 29.9980000  0  7G 3G 8G13G19G27G10G28
   1918498.58449   1494969.89547  23041613.3574   23041609.8894
     -1761.4694
 -11252825.96349  -8756848.10348  20379793.0144   20379788.6394
      1959.8444
   4580203.50849   3564962.23948  20935162.4044   20935157.8264
     -2144.8284
  -8762001.42649  -6815807.57748  21755547.4904   21755541.2754
       642.7504
  -5769444.72249  -4493004.33148  20158240.4594   20158235.5374
       794.7814
  -5056841.71449  -3939601.32947  22967903.1544   22967899.8574
       504.0164
 -10308141.22449  -8017890.74647  22065312.2794   22065308.1664
      3069.8284
 04  9 16 22  2 44.9980000  0  7G 3G 8G13G19G27G10G28
   1944985.85349   1515609.33147  23046652.9204   23046650.3574
     -1770.1414
 -11282187.25749  -8779727.01948  20374205.8344   20374201.0884
      1955.0474
   4612435.32349   3590077.92148  20941295.8504   20941291.4004
     -2152.6564
  -8771562.97749  -6823258.11848  21753728.0764   21753721.8504
       632.2664
  -5781331.89149  -4502267.06648  20155978.0764   20155973.0254
       790.2194
  -5064322.23949  -3945430.31547  22966480.0294   22966476.3424
       493.5474
 -10354145.45649  -8053738.17547  22056557.9124   22056553.1894
      3064.2664
 04  9 16 22  2 59.9980000  0  7G 3G 8G13G19G27G10G28
   1971598.77249   1536346.65247  23051717.5924   23051714.8264
     -1778.2034
 -11311481.82849  -8802553.96048  20368631.2404   20368626.6004
      1950.8284
   4644779.23649   3615280.95848  20947450.6154   20947445.9434
     -2159.8594
  -8780971.56249  -6830589.46348  21751937.6394   21751931.8344
       622.2194
  -5793155.01549  -4511479.88048  20153728.4044   20153723.7054
       786.2344
  -5071650.55149  -3951140.68647  22965085.4284   22965081.8694
       483.6564
 -10400071.47749  -8089524.65647  22047818.4984   22047813.9824
      3059.2034
 04  9 16 22  3 14.9980000  0  7G 3G 8G13G19G27G10G28
   1998337.16249   1557181.70847  23056805.9044   23056802.7754
     -1786.7814
 -11340709.06849  -8825328.42248  20363069.5844   20363065.1624
      1946.1414
   4677234.98049   3640571.12048  20953627.1234   20953622.1544
     -2167.6094
  -8790227.06849  -6837801.51748  21750176.1934   21750169.9394
       611.8284
  -5804914.09249  -4520642.80548  20151490.6624   20151485.7174
       781.6094
  -5078826.51349  -3956732.36047  22963719.8734   22963716.1004
       473.2034
 -10445919.13049  -8125250.06947  22039093.8974   22039089.9004
      3053.7344
 04  9 16 22  3 29.9980000  0  7G 3G 8G13G19G27G10G28
   2025198.42349   1578112.55347  23061917.5844   23061913.8894
     -1794.8594
 -11369871.23349  -8848052.18248  20357520.1784   20357515.5374
      1941.8914
   4709800.04549   3665946.47648  20959823.9124   20959819.4434
     -2174.7194
  -8799331.85649  -6844896.14348  21748444.0144   21748437.5884
       601.9064
  -5816611.18349  -4529757.41848  20149264.7794   20149259.9594
       777.6724
  -5085852.65149  -3962207.28547  22962383.2874   22962379.7524
       463.3594
 -10491690.58949  -8160916.10347  22030384.0454   22030379.4514
      3048.9224
 04  9 16 22  3 44.9980000  0  7G 3G 8G13G19G27G10G28
   2052185.00749   1599141.04947  23067052.9824   23067049.4364
     -1803.0784
 -11398965.67849  -8870723.16848  20351983.6004   20351979.2364
      1937.5784
   4742476.97049   3691409.00248  20966042.2324   20966037.6154
     -2181.9374
  -8808283.14649  -6851871.14448  21746740.1394   21746734.2724
       591.8594
  -5828243.75749  -4538821.75948  20147051.3654   20147046.4434
       773.5314
  -5092726.34849  -3967563.41747  22961075.2174   22961071.9084
       453.4384
 -10537383.03549  -8196520.56647  22021688.8184   22021684.4824
      3043.7034
 04  9 16 22  3 59.9980000  0  7G 3G 8G13G19G27G10G28
   2079295.81649   1620266.33247  23072211.9514   23072208.6074
     -1811.2034
 -11427993.38149  -8893342.15548  20346459.6394   20346455.0644
      1933.2664
   4775264.69049   3716957.85748  20972281.4824   20972277.2294
     -2189.2344
  -8817081.59349  -6858727.05547  21745065.9044   21745059.8694
       581.7814
  -5839812.41449  -4547836.28848  20144849.8264   20144844.9324
       769.5004
  -5099448.39549  -3972801.37747  22959796.4434   22959792.5184
       443.3914
 -10582997.33249  -8232064.14147  22013008.5374   22013004.2094
      3038.6564
 04  9 16 22  4 14.9980000  0  7G 3G 8G13G19G27G10G28
   2106529.36049   1641487.25647  23077393.9044   23077391.7094
     -1819.5314
 -11456955.46949  -8915910.01648  20340948.5064   20340943.4284
      1928.7034
   4808161.67149   3742591.84548  20978541.5684   20978536.8184
     -2196.7034
  -8825728.53649  -6865464.91848  21743420.4674   21743414.2524
       571.4844
  -5851318.35549  -4556801.96948  20142660.1004   20142655.2834
       765.0004
  -5106020.28249  -3977922.33647  22958545.2794   22958541.6584
       433.2194
 -10628534.55149  -8267547.66347  22004342.9594   22004338.9284
      3033.3754
 04  9 16 22  4 29.9980000  0  7G 3G 8G13G19G27G10G28
   2133884.62849   1662803.03647  23082600.3034   23082596.4514
     -1827.6564
 -11485852.29449  -8938427.00848  20335449.7564   20335445.0614
      1924.3594
   4841167.16049   3768310.38448  20984822.2094   20984817.5844
     -2203.8594
  -8834224.60249  -6872085.21248  21741803.9514   21741797.4674
       561.4384
  -5862762.20649  -4565719.25048  20140482.4204   20140477.5684
       760.9384
  -5112442.57549  -3982926.73147  22957323.1074   22957319.6394
       423.2664
 -10673995.25349  -8302971.55347  21995692.2254   21995687.7994
      3028.2664
 04  9 16 22  4 44.9980000  0  7G 3G 8G13G19G27G10G28
   2161362.02449   1684213.98847  23087828.1314   23087825.4004
     -1835.9224
 -11514683.05649  -8960892.53448  20329963.3264   20329958.4754
      1919.8134
   4874281.47049   3794113.72448  20991123.7404   20991119.4244
     -2211.2504
  -8842568.99849  -6878587.31548  21740216.1394   21740209.3424
       551.1414
  -5874143.14049  -4574587.51448  20138316.8424   20138311.6234
       756.5634
  -5118714.67149  -3987814.09447  22956129.9204   22956125.9794
       413.1254
 -10719378.69449  -8338335.24747  21987056.3184   21987051.3144
      3022.9384
 04  9 16 22  4 59.9980000  0  7G 3G 8G13G19G27G10G28
   2188960.09749   1705718.93947  23093080.7874   23093077.0684
     -1844.0944
 -11543449.13149  -8983307.64648  20324489.1234   20324484.2724
      1915.3594
   4907503.31249   3820000.85348  20997445.5064   20997441.0804
     -2218.5164
  -8850762.84349  -6884972.11748  21738656.6864   21738650.4164
       541.0474
  -5885462.18849  -4583407.55548  20136163.0454   20136158.1544
       752.3134
  -5124837.80449  -3992585.36247  22954964.3814   22954960.3504
       403.1094
 -10764685.80949  -8373639.46647  21978434.2954   21978429.7174
      3017.7344
 04  9 16 22  5 14.9980000  0  7G 3G 8G13G19G27G10G28
   2216679.71349   1727318.61047  23098355.1314   23098352.4714
     -1851.7194
 -11572149.04649  -9005671.21648  20319028.0144   20319023.1004
      1911.4694
   4940833.52949   3845972.43748  21003787.9204   21003783.7684
     -2225.2194
  -8858804.95949  -6891238.67848  21737126.0534   21737119.9474
       531.4694
  -5896718.14749  -4592178.42648  20134020.9364   20134016.1074
       748.6094
  -5130810.95649  -3997239.77347  22953827.7564   22953823.7644
       393.6254
 -10809915.51949  -8408883.35547  21969827.4284   21969823.1114
      3013.1414
 04  9 16 22  5 29.9980000  0  7G 3G 8G13G19G27G10G28
   2244521.03349   1749013.12647  23103653.0924   23103650.2324
     -1859.7504
 -11600782.33649  -9027982.87248  20313579.1314   20313574.3224
      1907.0634
   4974272.45749   3872028.71948  21010151.6154   21010147.0224
     -2232.5164
  -8866694.77049  -6897386.57848  21735624.7954   21735618.6544
       521.2504
  -5907910.51049  -4600899.74848  20131891.1624   20131886.1234
       744.3754
  -5136633.77849  -4001777.05847  22952720.0224   22952716.2444
       383.5004
 -10855067.11349  -8444066.38647  21961235.9124   21961231.3034
      3007.8444
 04  9 16 22  5 44.9980000  0  7G 3G 8G13G19G27G10G28
   2272481.09849   1770800.16347  23108973.3654   23108970.5184
     -1868.4064
 -11629351.80049  -9050244.77848  20308142.2564   20308137.6704
      1902.0634
   5007817.10149   3898167.37848  21016534.6784   21016530.2644
     -2240.1874
  -8874435.06649  -6903417.95948  21734151.9124   21734145.8304
       510.6414
  -5919041.98549  -4609573.62948  20129773.1394   20129767.6544
       739.6724
  -5142309.16049  -4006199.42947  22951639.9824   22951635.6234
       373.0634
 -10900143.32749  -8479190.68647  21952657.7254   21952653.1234
      3002.2194
 04  9 16 22  5 59.9980000  0  7G 3G 8G13G19G27G10G28
   2300563.72449   1792682.70747  23114318.3114   23114314.8144
     -1876.0474
 -11657853.06249  -9072453.54948  20302718.9754   20302714.6504
      1897.9694
   5041471.49049   3924391.57048  21022938.9514   21022934.6894
     -2247.1094
  -8882021.65249  -6909329.56548  21732708.0924   21732701.6894
       500.8134
  -5930108.25349  -4618196.69048  20127667.0294   20127662.2254
       735.7034
  -5147833.03949  -4010503.73647  22950588.8114   22950585.2834
       363.4064
 -10945139.88849  -8514252.89847  21944094.9284   21944090.4324
      2997.2344
 04  9 16 22  6 14.9980000  0  7G 3G 8G13G19G27G10G28
   2328766.73349   1814659.09447  23119684.7174   23119681.7254
     -1884.1724
 -11686287.63749  -9094610.34948  20297307.8974   20297303.5104
      1893.4534
   5075233.46549   3950699.57448  21029363.8654   21029359.2524
     -2254.3124
  -8889456.34849  -6915122.82348  21731293.5294   21731287.1314
       490.6254
  -5941111.22749  -4626770.44248  20125573.5144   20125568.2684
       731.4694
  -5153207.33849  -4014691.53347  22949566.0064   22949562.4164
       353.3444
 -10990058.68749  -8549254.54347  21935547.3344   21935543.0144
      2992.0004
 04  9 16 22  6 29.9980000  0  7G 3G 8G13G19G27G10G28
   2357088.99449   1836728.37847  23125074.7724   23125071.3504
     -1892.2664
 -11714656.62549  -9116716.04448  20291909.5374   20291904.7604
      1889.0474
   5109101.84749   3977090.50648  21035808.6154   21035804.2834
     -2261.5004
  -8896739.95549  -6920798.35248  21729907.1154   21729901.0724
       480.3914
  -5952051.56049  -4635295.37848  20123491.5844   20123486.4474
       727.1564
  -5158432.94549  -4018763.44247  22948571.7794   22948567.8694
       343.2814
 -11034900.46849  -8584196.15547  21927014.0844   21927009.2324
      2986.7664
 04  9 16 22  6 44.9980000  0  7G 3G 8G13G19G27G10G28
   2385528.37749   1858888.92247  23130486.1544   23130482.9754
     -1899.6874
 -11742961.53849  -9138771.82648  20286523.4824   20286519.1744
      1885.0004
   5143074.73349   4003562.85648  21042273.7324   21042268.6584
     -2268.2344
  -8903874.17649  -6926357.47648  21728549.6624   21728543.6274
       470.7814
  -5962930.96249  -4643772.83548  20121421.1074   20121415.9754
       723.4224
  -5163511.63849  -4022720.86347  22947605.2404   22947601.4204
       333.8594
 -11079666.73649  -8619078.94047  21918495.6474   21918490.6664
      2982.0314
 04  9 16 22  6 59.9980000  0  7G 3G 8G13G19G27G10G28
   2414078.73549   1881135.94347  23135919.0764   23135916.1624
     -1907.0004
 -11771208.30549  -9160782.27748  20281148.2874   20281143.5684
      1881.2504
   5177145.83249   4030111.75148  21048756.9904   21048752.3074
     -2274.6414
  -8910865.08749  -6931804.92848  21727219.8894   21727213.1194
       461.3594
  -5973755.42249  -4652207.46948  20119361.3034   20119356.0374
       719.8754
  -5168449.70049  -4026568.70547  22946665.2874   22946661.9394
       324.5004
 -11124363.61049  -8653907.63447  21909989.7954   21909985.5254
      2977.4224
 04  9 16 22  7 14.9980000  0  7G 3G 8G13G19G27G10G28
   2442745.19449   1903473.44347  23141374.4284   23141371.0024
     -1915.0474
 -11799391.50249  -9182743.20648  20275784.8264   20275780.4044
      1876.6094
   5211320.37349   4056741.24248  21055260.1314   21055255.7404
     -2281.8594
  -8917707.22149  -6937136.45748  21725917.4284   21725911.0684
       451.1094
  -5984519.39049  -4660594.98348  20117312.9434   20117308.4754
       715.4844
  -5173241.68849  -4030302.72647  22945753.7954   22945750.4204
       314.5004
 -11168985.48449  -8688677.88847  21901498.5924   21901493.7294
      2972.2034
 04  9 16 22  7 29.9980000  0  7G 3G 8G13G19G27G10G28
   2471524.92649   1925899.17747  23146850.8424   23146847.9084
     -1922.4694
 -11827513.51949  -9204656.45448  20270433.4434   20270428.5104
      1872.6724
   5245595.79349   4083449.34048  21061782.8264   21061778.7404
     -2288.3914
  -8924402.97449  -6942353.90948  21724643.4594   21724637.2754
       441.3914
  -5995225.23449  -4668937.20248  20115275.3654   20115270.8184
       711.7504
  -5177890.13449  -4033924.88747  22944869.7014   22944865.2054
       305.0474
 -11213534.75549  -8723391.58547  21893021.0374   21893016.8034
      2967.4534
 04  9 16 22  7 44.9980000  0  7G 3G 8G13G19G27G10G28
   2500424.40749   1948418.23047  23152349.6704   23152347.0414
     -1930.5944
 -11855567.44349  -9226516.65848  20265095.2404   20265090.5804
      1868.0474
   5279978.38149   4110240.94848  21068325.4674   21068320.8384
     -2295.7344
  -8930945.66149  -6947452.12448  21723398.4824   21723391.6544
       431.1254
  -6005866.27749  -4677228.91948  20113251.1234   20113245.5614
       707.3284
  -5182388.53749  -4037430.15947  22944013.0454   22944009.2054
       294.9694
 -11258004.65849  -8758043.43047  21884558.6074   21884554.3654
      2962.1094
 04  9 16 22  7 59.9980000  0  7G 3G 8G13G19G27G10G28
   2529439.51749   1971027.43247  23157871.7724   23157868.2794
     -1938.4374
 -11883557.41349  -9248327.00148  20259768.6934   20259763.9864
      1863.6724
   5314464.20849   4137113.00848  21074887.8734   21074883.5924
     -2302.6254
  -8937338.99049  -6952433.92348  21722181.5374   21722175.4824
       421.0944
  -6016446.16449  -4685472.98448  20111237.3184   20111232.3894
       703.1254
  -5186740.82749  -4040821.54447  22943184.4904   22943180.9714
       285.1094
 -11302398.82749  -8792636.24347  21876110.5294   21876106.3654
      2956.8754
 04  9 16 22  8 14.9980000  0  7G 3G 8G13G19G27G10G28
   2558572.83249   1993728.68547  23163415.6474   23163412.4164
     -1946.2034
 -11911479.97549  -9270084.84948  20254455.3184   20254450.5024
      1859.1254
   5349055.79749   4164067.46048  21081470.5684   21081466.0804
     -2309.7814
  -8943580.05849  -6957297.10248  21720994.2564   21720987.8574
       410.8754
  -6026961.94349  -4693667.08648  20109236.1314   20109231.5254
       698.8754
  -5190944.12449  -4044096.85947  22942384.9434   22942381.5614
       275.0944
 -11346714.25249  -8827167.71647  21867677.9434   21867673.1704
      2951.6414
 04  9 16 22  8 29.9980000  0  7G 3G 8G13G19G27G10G28
   2587822.91149   2016520.92447  23168981.5374   23168979.3144
     -1953.5784
 -11939336.15949  -9291790.94748  20249154.2564   20249149.6744
      1855.0784
   5383751.87449   4191103.34948  21088072.8894   21088068.3854
     -2316.3284
  -8949670.05449  -6962042.54748  21719835.1934   21719828.8574
       401.2344
  -6037414.67849  -4701812.08548  20107246.9284   20107242.5334
       695.0164
  -5194999.67449  -4047257.05447  22941612.9204   22941609.8974
       265.6564
 -11390952.11749  -8861638.75347  21859259.4514   21859254.5964
      2946.8134
 04  9 16 22  8 44.9980000  0  7G 3G 8G13G19G27G10G28
   2617190.74449   2039404.95047  23174569.6474   23174566.9514
     -1961.8594
 -11967125.01949  -9313444.60448  20243866.3504   20243861.8694
      1850.2814
   5418553.50349   4218221.47448  21094695.4674   21094690.9004
     -2323.7194
  -8955607.58449  -6966669.18748  21718705.1934   21718698.8034
       390.6564
  -6047802.95049  -4709906.83748  20105270.6004   20105265.4434
       690.3284
  -5198906.32049  -4050301.18047  22940869.9044   22940866.0144
       255.4844
 -11435111.05149  -8896048.29247  21850856.0294   21850851.8144
      2941.1564
 04  9 16 22  8 59.9980000  0  7G 3G 8G13G19G27G10G28
   2646676.11849   2062380.56947  23180180.9364   23180177.8304
     -1969.7344
 -11994846.24749  -9335045.55048  20238590.9204   20238585.9714
      1845.7194
   5453460.56749   4245421.75148  21101338.4124   21101333.3974
     -2330.7344
  -8961392.66149  -6971177.03648  21717604.1314   21717597.9594
       380.4694
  -6058126.68249  -4717951.31048  20103306.1074   20103301.1584
       686.0164
  -5202664.02249  -4053229.28447  22940154.8814   22940151.2484
       245.5004
 -11479190.80049  -8930396.11147  21842467.7724   21842463.6004
      2935.9224
 04  9 16 22  9 14.9980000  0  7G 3G 8G13G19G27G10G28
   2676273.23049   2085443.22647  23185813.0144   23185809.8574
     -1977.1874
 -12022505.06849  -9356597.87248  20233327.8574   20233323.1744
      1841.5474
   5488467.35249   4272699.74348  21107999.6234   21107995.0294
     -2337.4374
  -8967030.66449  -6975570.27948  21716531.4124   21716524.9364
       370.6724
  -6068391.23649  -4725949.65648  20101352.7644   20101347.5494
       682.0634
  -5206278.37549  -4056045.66347  22939467.3814   22939463.6044
       235.8594
 -11523196.74549  -8964686.42147  21834093.9364   21834090.1394
      2930.9534
 04  9 16 22  9 29.9980000  0  7G 3G 8G13G19G27G10G28
   2705988.18549   2108597.72747  23191467.1394   23191464.1154
     -1984.7664
 -12050095.17649  -9378096.64248  20228077.6154   20228073.1504
      1837.2344
   5523579.83049   4300060.09548  21114681.6784   21114676.9244
     -2344.1414
  -8972515.26349  -6979843.98648  21715488.1784   21715481.4364
       360.7194
  -6078590.18149  -4733896.88648  20099411.6784   20099406.7834
       677.9384
  -5209743.23149  -4058745.54847  22938807.7254   22938804.4044
       226.2034
 -11567122.58349  -8998914.31547  21825735.3894   21825730.5964
      2925.8914
 04  9 16 22  9 44.9980000  0  7G 3G 8G13G19G27G10G28
   2735822.01449   2131844.87247  23197144.5534   23197141.6664
     -1992.5784
 -12077615.03449  -9399540.68248  20222840.8974   20222836.1864
      1832.6414
   5558799.12949   4327503.67748  21121383.3504   21121378.7684
     -2351.1874
  -8977845.09249  -6983997.10948  21714473.5924   21714467.3854
       350.5004
  -6088722.18949  -4741791.96248  20097483.6934   20097478.4324
       673.4534
  -5213057.28149  -4061327.94347  22938177.0924   22938173.7444
       216.2344
 -11610966.85849  -9033078.65347  21817391.7564   21817387.1394
      2920.5634
 04  9 16 22  9 59.9980000  0  7G 3G 8G13G19G27G10G28
   2765769.13049   2155180.29347  23202844.1784   23202840.7994
     -2000.2034
 -12105069.88149  -9420934.06748  20217616.0454   20217611.6274
      1828.1884
   5594119.87049   4355026.29148  21128105.0224   21128101.0254
     -2358.0784
  -8983025.39549  -6988033.71048  21713488.0294   21713481.6934
       340.4064
  -6098792.36049  -4749638.84348  20095567.4044   20095562.3344
       669.3444
  -5216226.01349  -4063797.09747  22937574.0844   22937570.1434
       206.4694
 -11654734.73149  -9067183.46847  21809063.0614   21809058.5144
      2915.3444
 04  9 16 22 10 14.9980000  0  7G 3G 8G13G19G27G10G28
   2795832.25449   2178606.07047  23208564.1704   23208561.2644
     -2007.7034
 -12132456.50449  -9442274.27648  20212404.5684   20212399.8974
      1823.8284
   5629544.87049   4382630.15848  21134846.0454   21134841.5144
     -2364.7974
  -8988053.09649  -6991951.39348  21712531.1234   21712524.4794
       330.4534
  -6108797.50849  -4757435.06648  20093663.4674   20093658.7794
       665.1254
  -5219246.38149  -4066150.63147  22936999.1544   22936995.5684
       196.7194
 -11698423.00149  -9101226.23947  21800749.2724   21800745.2214
      2910.2814
 04  9 16 22 10 29.9980000  0  7G 3G 8G13G19G27G10G28
   2826008.91849   2202120.35347  23214306.9824   23214303.4714
     -2015.8124
 -12159777.09249  -9463563.04248  20207205.4904   20207201.2014
      1818.9694
   5665071.56349   4410313.27848  21141606.4824   21141602.1354
     -2371.9844
  -8992930.50249  -6995751.97148  21711602.9284   21711596.4084
       319.9534
  -6118739.91849  -4765182.40048  20091771.7564   20091766.6744
       660.5314
  -5222120.88249  -4068390.50347  22936452.4204   22936448.5334
       186.5314
 -11742033.95949  -9135208.77547  21792450.6154   21792446.2214
      2904.7034
 04  9 16 22 10 44.9980000  0  7G 3G 8G13G19G27G10G28
   2856302.77949   2225725.94847  23220071.9514   23220068.6704
     -2023.3754
 -12187027.70749  -9484797.28448  20202020.0144   20202015.3384
      1814.4224
   5700703.58349   4438078.46848  21148387.3184   21148382.7014
     -2378.8914
  -8997653.56349  -6999432.27648  21710703.9904   21710697.8344
       309.7974
  -6128615.41449  -4772877.58548  20089892.4754   20089887.3544
       656.1884
  -5224845.63549  -4070513.69647  22935933.9754   22935930.2214
       176.7194
 -11785563.45549  -9169127.82447  21784167.2014   21784162.8264
      2899.2664
 04  9 16 22 10 59.9980000  0  7G 3G 8G13G19G27G10G28
   2886709.44449   2249419.43247  23225857.4434   23225854.4084
     -2030.8914
 -12214212.16249  -9505979.97148  20196847.0144   20196842.3304
      1810.0314
   5736436.80049   4465922.50748  21155186.7324   21155182.6354
     -2385.6564
  -9002226.36849  -7002995.49948  21709834.1004   21709827.6234
       299.8134
  -6138428.02649  -4780523.77948  20088025.2014   20088020.2444
       652.0314
  -5227424.61749  -4072523.30147  22935443.5844   22935439.6784
       167.0474
 -11829015.45049  -9202986.49447  21775898.5454   21775894.1114
      2894.1724
 04  9 16 22 11 14.9980000  0  7G 3G 8G13G19G27G10G28
   2917230.31649   2273201.91547  23231666.8734   23231662.5414
     -2038.5164
 -12241328.51849  -9527109.59548  20191686.9824   20191682.1704
      1805.4534
   5772272.73049   4493846.57748  21162006.2404   21162001.8114
     -2392.5474
  -9006647.17349  -7006440.28148  21708992.8734   21708986.4824
       289.6094
  -6148175.89449  -4788119.51148  20086170.2324   20086165.3304
       647.6414
  -5229856.30049  -4074418.11647  22934980.7324   22934976.9554
       157.0944
 -11872388.24749  -9236783.44447  21767645.2174   21767640.5724
      2888.7814
 04  9 16 22 11 29.9980000  0  7G 3G 8G13G19G27G10G28
   2947866.01949   2297073.88847  23237496.0454   23237492.5024
     -2045.5314
 -12268376.18849  -9548185.69248  20186540.1394   20186535.5104
      1801.5474
   5808211.95049   4521851.14648  21168845.2954   21168841.2094
     -2398.7664
  -9010915.17049  -7009765.98748  21708180.4044   21708174.3774
       280.0634
  -6157858.18849  -4795664.15648  20084327.8734   20084323.0024
       643.9844
  -5232140.03249  -4076197.66047  22934546.0924   22934542.3384
       148.0004
 -11915680.85849  -9270517.91347  21759406.7794   21759402.2444
      2884.1254
 04  9 16 22 11 44.9980000  0  7G 3G 8G13G19G27G10G28
   2978615.10349   2321034.20347  23243346.6864   23243343.8574
     -2054.1094
 -12295356.09949  -9569209.00048  20181406.0924   20181401.4164
      1796.0314
   5844253.05149   4549935.08048  21175703.8734   21175699.7874
     -2406.5164
  -9015031.36449  -7012973.41548  21707397.3424   21707390.9554
       268.9534
  -6167475.94449  -4803158.52148  20082497.8974   20082492.6584
       638.6254
  -5234276.93749  -4077862.79347  22934139.3424   22934135.3544
       137.1094
 -11958894.30849  -9304190.71847  21751183.6784   21751178.9824
      2877.8594
 04  9 16 22 11 59.9980000  0  7G 3G 8G13G19G27G10G28
   3009475.80249   2345081.48147  23249219.8814   23249217.1784
     -2061.2034
 -12322269.52349  -9590180.48848  20176284.3344   20176279.6704
      1791.8914
   5880394.27849   4578097.05848  21182580.9044   21182576.7214
     -2412.8444
  -9018997.31449  -7016063.76348  21706642.4674   21706636.5294
       259.2974
  -6177030.50249  -4810603.62348  20080679.2404   20080674.2684
       634.7034
  -5236268.74449  -4079414.86547  22933759.7644   22933756.8074
       127.8594
 -12002029.99449  -9337802.90447  21742974.9514   21742970.0144
      2873.0164
 04  9 16 22 12 14.9980000  0  7G 3G 8G13G19G27G10G28
   3040448.73149   2369216.22647  23255112.7094   23255110.7054
     -2068.6564
 -12349115.40849  -9611099.35548  20171175.6624   20171171.5334
      1787.4224
   5916636.38449   4606337.63048  21189477.6154   21189473.3114
     -2419.4534
  -9022812.02949  -7019036.25548  21705916.7014   21705910.2014
       249.2974
  -6186520.80949  -4817998.66848  20078873.4124   20078868.4824
       630.6254
  -5238114.48849  -4080853.11147  22933409.0294   22933405.4864
       118.1724
 -12045086.98549  -9371353.78647  21734781.5844   21734777.1314
      2867.8444
 04  9 16 22 12 29.9980000  0  7G 3G 8G13G19G27G10G28
   3071536.28449   2393440.25647  23261029.5614   23261026.2794
     -2076.0624
 -12375890.97149  -9631963.42948  20166080.7484   20166076.0454
      1782.9384
   5952981.80449   4634658.71548  21196394.1314   21196389.8544
     -2426.1724
  -9026472.83549  -7021888.82648  21705219.7644   21705213.5184
       239.1724
  -6195944.09849  -4825341.49948  20077080.3974   20077075.4284
       626.2194
  -5239811.75349  -4082175.66547  22933085.7954   22933082.4714
       108.4224
 -12088062.36449  -9404841.06847  21726603.4824   21726598.4324
      2862.5164
 04  9 16 22 12 44.9980000  0  7G 3G 8G13G19G27G10G28
   3102730.09749   2417747.11947  23266965.5224   23266962.1274
     -2083.0784
 -12402604.31249  -9652779.01348  20160997.3264   20160992.3264
      1778.9534
   5989422.30349   4663053.87848  21203328.5374   21203324.5104
     -2432.4224
  -9029987.85149  -7024627.79248  21704551.2014   21704544.7174
       229.5784
  -6205308.39049  -4832638.34748  20075298.1864   20075293.1864
       622.4534
  -5241368.75349  -4083388.93247  22932789.8974   22932786.1934
        99.2194
 -12130964.22249  -9438271.05247  21718439.7564   21718434.7214
      2857.8284
 04  9 16 22 12 59.9980000  0  7G 3G 8G13G19G27G10G28
   3134032.13849   2442138.33147  23272921.9824   23272918.6274
     -2090.5784
 -12429252.99449  -9673544.21648  20155926.1544   20155921.2684
      1774.2664
   6025959.95749   4691524.75348  21210281.1934   21210277.1704
     -2439.1724
  -9033354.63349  -7027251.25748  21703910.6234   21703904.1114
       219.3914
  -6214611.28349  -4839887.35348  20073527.8654   20073522.8504
       618.0004
  -5242783.32149  -4084491.18747  22932520.3894   22932516.5144
        89.4064
 -12173790.03749  -9471641.79447  21710289.8574   21710285.4554
      2852.3284
 04  9 16 22 13 14.9980000  0  7G 3G 8G13G19G27G10G28
   3165446.35449   2466616.91347  23278900.0764   23278896.6154
     -2098.0944
 -12455832.72749  -9694255.69148  20150868.3814   20150863.9794
      1769.6094
   6062598.69149   4720074.39548  21217253.5764   21217249.0924
     -2446.0004
  -9036569.05749  -7029755.98948  21703298.7644   21703292.3894
       209.1564
  -6223848.41449  -4847085.11848  20071770.0844   20071765.8614
       613.5164
  -5244051.18949  -4085479.16147  22932278.7484   22932275.5804
        79.5944
 -12216535.58249  -9504949.97247  21702155.8344   21702150.9164
      2846.9224
 04  9 16 22 13 29.9980000  0  7G 3G 8G13G19G27G10G28
   3196969.69949   2491180.58447  23284898.4824   23284895.7524
     -2105.0004
 -12482345.89849  -9714915.29548  20145823.1074   20145818.7564
      1765.5474
   6099335.51649   4748700.47147  21224244.1934   21224239.9594
     -2452.1254
  -9039634.01849  -7032144.27348  21702715.4514   21702708.9004
       199.6414
  -6233022.47449  -4854233.73548  20070024.3974   20070019.3034
       609.7504
  -5245175.38349  -4086355.17047  22932065.4284   22932061.7954
        70.4224
 -12259203.51749  -9538197.68047  21694036.2404   21694031.7484
      2842.1724
 04  9 16 22 13 44.9980000  0  7G 3G 8G13G19G27G10G28
   3228600.82149   2515828.14547  23290917.3034   23290914.6864
     -2112.0164
 -12508793.67449  -9735523.95348  20140790.1074   20140785.1664
      1761.3134
   6136169.12549   4777401.94548  21231253.3574   21231249.1744
     -2458.5164
  -9042550.33749  -7034416.72848  21702160.7724   21702153.9124
       189.7974
  -6242134.45549  -4861333.98948  20068290.5764   20068285.5414
       605.6564
  -5246157.03749  -4087120.10147  22931878.7564   22931875.2364
        61.0474
 -12301794.88149  -9571385.74447  21685931.3344   21685926.6314
      2837.1414
 04  9 16 22 13 59.9980000  0  7G 3G 8G13G19G27G10G28
   3260337.15649   2540557.77047  23296956.4984   23296953.8974
     -2119.1724
 -12535178.07149  -9756083.20448  20135769.3654   20135764.9754
      1756.9844
   6173096.98949   4806176.89248  21238280.5534   21238276.1154
     -2464.8754
  -9045320.34749  -7036575.15848  21701633.2874   21701626.9824
       179.8594
  -6251186.43149  -4868387.47248  20066567.9674   20066562.8344
       601.6254
  -5246998.45649  -4087775.74047  22931718.5844   22931714.7954
        51.5784
 -12344311.84249  -9604515.79547  21677840.5224   21677835.9434
      2832.1724
 04  9 16 22 14 14.9980000  0  7G 3G 8G13G19G27G10G28
   3292179.93149   2565370.30147  23303015.6154   23303013.2134
     -2126.2504
 -12561497.66549  -9776591.97748  20130760.6704   20130756.1274
      1752.6884
   6210120.38149   4835026.26048  21245326.2794   21245322.0254
     -2471.2814
  -9047942.67349  -7038618.52448  21701134.2324   21701128.1864
       170.0004
  -6260177.05249  -4875393.14148  20064857.1704   20064852.4204
       597.4694
  -5247698.33249  -4088321.13247  22931585.6624   22931582.0294
        42.0944
 -12386752.82349  -9637586.67647  21669764.3814   21669759.3734
      2826.9534
 04  9 16 22 14 29.9980000  0  7G 3G 8G13G19G27G10G28
   3324126.24949   2590263.47847  23309095.9904   23309092.9164
     -2133.1564
 -12587754.89749  -9797052.15448  20125764.0924   20125759.5574
      1748.3594
   6247236.52749   4863947.89348  21252388.9904   21252384.6934
     -2477.5314
  -9050419.80749  -7040548.75448  21700662.9754   21700656.6004
       160.2034
  -6269108.52349  -4882352.73548  20063157.4204   20063152.5064
       593.4064
  -5248259.34649  -4088758.30747  22931479.0374   22931474.7134
        32.7034
 -12429120.22749  -9670600.20747  21661702.4514   21661697.5024
      2822.0314
 04  9 16 22 14 44.9980000  0  7G 3G 8G13G19G27G10G28
   3356178.25249   2615239.08147  23315194.9594   23315192.3144
     -2140.2504
 -12613947.15249  -9817461.70448  20120780.1074   20120775.1394
      1744.1094
   6284447.62349   4892943.52148  21259469.9514   21259465.9794
     -2483.7344
  -9052749.27949  -7042363.91548  21700219.6544   21700213.2914
       150.5164
  -6277978.47149  -4889264.38248  20061469.6074   20061464.8114
       589.3594
  -5248679.21949  -4089085.45947  22931398.4674   22931395.1504
        23.4224
 -12471411.55349  -9703554.46147  21653654.0454   21653649.9474
      2817.0004
 04  9 16 22 14 59.9980000  0  7G 3G 8G13G19G27G10G28
   3388335.47749   2640296.63647  23321314.1544   23321311.1584
     -2147.0314
 -12640074.49249  -9837820.66248  20115808.2644   20115803.4204
      1739.9224
   6321753.33249   4922012.88548  21266569.0224   21266564.7524
     -2489.8914
  -9054931.31549  -7044064.19848  21699804.5454   21699798.3574
       140.8754
  -6286786.81949  -4896128.03648  20059793.1864   20059788.3974
       585.4534
  -5248958.15849  -4089302.83547  22931345.0924   22931341.8264
        14.1724
 -12513626.87049  -9736449.48947  21645621.1074   21645616.7754
      2812.0314
 04  9 16 22 15 14.9980000  0  7G 3G 8G13G19G27G10G28
   3420594.89949   2665433.80247  23327452.4824   23327450.3934
     -2154.2344
 -12666139.61549  -9858131.13948  20110848.2484   20110843.3034
      1735.4694
   6359150.88049   4951153.79148  21273685.7874   21273681.3894
     -2496.3754
  -9056968.52649  -7045651.63348  21699416.9904   21699410.2644
       130.7974
  -6295536.19049  -4902945.72648  20058128.4364   20058123.3654
       581.1254
  -5249099.02149  -4089412.59947  22931318.9044   22931314.7874
         4.5784
 -12555768.78849  -9769287.33247  21637602.0064   21637596.9284
      2806.7664
 04  9 16 22 15 29.9980000  0  7G 3G 8G13G19G27G10G28
   3452957.82249   2690651.61947  23333611.3114   23333608.7294
     -2160.8284
 -12692140.68749  -9878391.71148  20105900.5144   20105895.7994
      1731.3444
   6396641.27449   4980367.06048  21280820.1394   21280815.7604
     -2502.3444
  -9058859.47749  -7047125.08848  21699056.8734   21699050.6664
       121.2814
  -6304225.05549  -4909716.26848  20056475.1624   20056469.7724
       577.3914
  -5249100.39649  -4089413.67047  22931318.8504   22931314.3814
        -4.4374
 -12597835.73449  -9802066.72947  21629596.9204   21629591.9004
      2802.0634
 04  9 16 22 15 44.9980000  0  7G 3G 8G13G19G27G10G28
   3485423.26949   2715949.35447  23339789.7564   23339786.8144
     -2167.8594
 -12718078.21549  -9898602.76548  20100964.4674   20100959.7444
      1726.8914
   6434223.77349   5009652.10848  21287971.8654   21287967.2134
     -2508.6564
  -9060604.73749  -7048485.02048  21698724.5844   21698718.1894
       111.3754
  -6312853.82249  -4916439.97048  20054832.7874   20054828.0184
       573.1254
  -5248962.93649  -4089306.58547  22931344.4514   22931341.4794
       -13.9064
 -12639828.21949  -9834788.12247  21621605.7254   21621600.4754
      2796.8914
 04  9 16 22 15 59.9980000  0  7G 3G 8G13G19G27G10G28
   3517988.15849   2741324.59147  23345987.5294   23345983.7794
     -2173.9064
 -12743955.16049  -9918766.61548  20096040.2644   20096035.4284
      1723.5314
   6471895.30749   5039006.51348  21295139.9984   21295135.6114
     -2514.0164
  -9062207.15449  -7049733.65748  21698419.8814   21698413.2404
       102.4064
  -6321425.29149  -4923119.05148  20053201.8814   20053196.9394
       569.8754
  -5248689.69749  -4089093.66047  22931396.6864   22931393.2444
       -22.3914
 -12681748.93949  -9867453.59447  21613628.5224   21613623.9004
      2792.6884
 04  9 16 22 16 14.9980000  0  7G 3G 8G13G19G27G10G28
   3550653.21149   2766777.85247  23352202.7794   23352199.4164
     -2181.2664
 -12769769.97149  -9938882.04548  20091127.9514   20091123.2444
      1718.5944
   6509656.59449   5068430.86447  21302326.1544   21302322.0844
     -2520.7034
  -9063665.58749  -7050870.08748  21698142.2324   21698136.1314
        92.1094
  -6329938.20649  -4929752.48748  20051581.9044   20051577.1934
       565.1724
  -5248279.81849  -4088774.30647  22931474.3574   22931470.8734
       -32.2194
 -12723596.76449  -9900062.27047  21605665.1934   21605660.2914
      2787.0634
 04  9 16 22 16 29.9980000  0  7G 3G 8G13G19G27G10G28
   3583422.58349   2792312.39847  23358437.8184   23358435.4904
     -2188.1094
 -12795518.61049  -9958945.91848  20086228.1394   20086223.4714
      1714.3284
   6547511.93249   5097928.50547  21309529.3814   21309525.6434
     -2526.8594
  -9064975.84249  -7051891.05748  21697892.9204   21697886.7724
        82.3754
  -6338388.16249  -4936336.86448  20049973.8654   20049969.1194
       561.2814
  -5247729.03849  -4088345.13847  22931579.7564   22931575.4004
       -41.3914
 -12765367.23849  -9932610.66047  21597716.4594   21597711.6584
      2782.0634
 04  9 16 22 16 44.9980000  0  7G 3G 8G13G19G27G10G28
   3616294.57149   2817926.89047  23364693.0224   23364690.7174
     -2194.9374
 -12821202.29349  -9978959.17448  20081340.7794   20081335.8544
      1710.0314
   6585459.61649   5127498.10347  21316750.9674   21316746.5374
     -2532.9844
  -9066139.25949  -7052797.62148  21697671.5454   21697665.0534
        72.5784
  -6346776.44549  -4942873.19548  20048377.9124   20048372.9124
       557.1254
  -5247038.85849  -4087807.33747  22931710.5924   22931707.1004
       -50.6874
 -12807061.69249  -9965099.82647  21589782.2794   21589777.5144
      2777.0474
 04  9 16 22 16 59.9980000  0  7G 3G 8G13G19G27G10G28
   3649264.71949   2843617.92446  23370968.2254   23370965.1434
     -2201.5474
 -12846824.77949  -9998924.73448  20076465.0534   20076460.1434
      1705.9224
   6623495.22549   5157136.21147  21323988.7874   21323984.5064
     -2538.8124
  -9067160.05749  -7053593.03848  21697477.1624   21697471.0614
        63.1254
  -6355107.00749  -4949364.53348  20046792.6314   20046787.7324
       553.2034
  -5246213.56949  -4087164.25747  22931867.4904   22931863.4984
       -59.7504
 -12848684.20549  -9997532.92447  21581861.3654   21581856.7254
      2772.2504
 04  9 16 22 17 14.9980000  0  7G 3G 8G13G19G27G10G28
   3682332.09249   2869384.68147  23377259.8654   23377256.8544
     -2207.7504
 -12872386.70449 -10018843.12048  20071600.4434   20071595.8894
      1702.1094
   6661617.96249   5186842.21447  21331243.1234   21331239.1154
     -2544.4064
  -9068038.77349  -7054277.74448  21697310.2254   21697303.8184
        53.8754
  -6363380.53949  -4955811.44448  20045218.0224   20045213.4124
       549.7194
  -5245253.96249  -4086416.54147  22932049.9434   22932046.7874
       -68.4534
 -12890235.35949 -10029910.42147  21573954.6314   21573949.9794
      2767.6724
 04  9 16 22 17 29.9980000  0  7G 3G 8G13G19G27G10G28
   3715498.90449   2895228.88047  23383571.9124   23383568.4044
     -2214.1874
 -12897885.53549 -10038712.34648  20066748.4204   20066743.8184
      1697.9534
   6699830.10249   5216617.87347  21338514.9364   21338510.7134
     -2550.3124
  -9068772.97349  -7054849.84348  21697170.4364   21697164.1154
        44.2344
  -6371594.40549  -4962211.85848  20043655.1784   20043650.0844
       545.7664
  -5244157.69849  -4085562.30147  22932258.9754   22932255.7604
       -77.5624
 -12931712.52949 -10062230.28047  21566061.9674   21566057.0224
      2762.7974
 04  9 16 22 17 44.9980000  0  7G 3G 8G13G19G27G10G28
   3748762.73949   2921148.71547  23389901.0764   23389898.7054
     -2220.7344
 -12923323.11749 -10058533.83048  20061908.0374   20061903.1394
      1693.9384
   6738129.06849   5246461.19347  21345802.9904   21345798.9794
     -2556.0004
  -9069364.89849  -7055311.07448  21697058.2644   21697052.0224
        34.8914
  -6379750.56149  -4968567.30548  20042103.2724   20042097.9634
       541.9694
  -5242927.01549  -4084603.33847  22932492.8574   22932489.5374
       -86.3594
 -12973117.74249 -10094494.05447  21558182.7174   21558178.1504
      2758.2194
 04  9 16 22 17 59.9980000  0  7G 3G 8G13G19G27G10G28
   3782123.39149   2947144.02247  23396249.4514   23396247.0144
     -2227.3754
 -12948699.00549 -10078307.24048  20057078.8034   20057073.8814
      1689.6254
   6776515.13249   5276372.38347  21353107.6544   21353103.9284
     -2561.9844
  -9069814.11949  -7055661.09948  21696972.3034   21696966.2174
        25.1414
  -6387848.66849  -4974877.50648  20040561.9204   20040557.1004
       537.8754
  -5241561.81649  -4083539.54947  22932753.0144   22932749.2564
       -95.5004
 -13014450.67949 -10126701.50147  21550317.2254   21550312.6004
      2753.0944
 04  9 16 22 18 14.9980000  0  7G 3G 8G13G19G27G10G28
   3815585.56349   2973218.40847  23402617.1934   23402615.5374
     -2233.8444
 -12974008.40949 -10098028.84848  20052262.9514   20052258.2444
      1685.4224
   6814992.89049   5306355.01647  21360429.8504   21360425.4904
     -2567.8444
  -9070115.87849  -7055896.23648  21696915.0454   21696908.7994
        15.5634
  -6395883.83349  -4981138.67848  20039032.6784   20039027.6894
       533.9384
  -5240057.30049  -4082367.20947  22933038.2724   22933035.6704
      -104.5784
 -13055706.40249 -10158848.78747  21542466.6784   21542461.3224
      2748.1564
 04  9 16 22 18 29.9980000  0  7G 3G 8G13G19G27G10G28
   3849143.99849   2999367.80647  23409003.0614   23409001.4674
     -2240.4374
 -12999256.15249 -10117702.41548  20047458.2404   20047453.4824
      1681.0944
   6853557.13249   5336405.04147  21367768.7014   21367764.3424
     -2573.8754
  -9070275.25949  -7056020.42048  21696884.8504   21696878.4324
         5.7814
  -6403860.85949  -4987354.55148  20037514.9824   20037509.6744
       529.7974
  -5238418.58749  -4081090.32147  22933351.2404   22933347.4124
      -113.8124
 -13096889.78849 -10190939.72447  21534629.5764   21534624.8184
      2743.1724
 04  9 16 22 18 44.9980000  0  7G 3G 8G13G19G27G10G28
   3882797.96549   3025591.61547  23415407.3034   23415405.3694
     -2247.0784
 -13024442.47249 -10137328.11348  20042665.1864   20042660.5574
      1676.7194
   6892207.15749   5366521.92747  21375123.3184   21375118.8574
     -2579.8754
  -9070292.52949  -7056033.87548  21696881.3114   21696874.8974
        -3.9374
  -6411780.00549  -4993525.30548  20036007.8814   20036003.0964
       525.6724
  -5236646.12949  -4079709.21447  22933688.5374   22933685.3654
      -122.9694
 -13138001.03149 -10222974.43047  21526806.5614   21526801.2054
      2738.0784
 04  9 16 22 18 59.9980000  0  7G 3G 8G13G19G27G10G28
   3916551.19049   3051892.79147  23421831.5294   23421828.4714
     -2253.1724
 -13049563.47349 -10156902.92548  20037884.8894   20037879.7524
      1672.8444
   6930946.73849   5396708.57347  21382495.3974   21382490.8734
     -2585.4224
  -9070163.68649  -7055933.46948  21696905.9594   21696899.5804
       -13.1724
  -6419637.15149  -4999647.76248  20034512.9434   20034508.0724
       521.9844
  -5234736.26049  -4078221.01447  22934051.9364   22934048.3734
      -131.6724
 -13179036.15349 -10254949.82447  21518997.8424   21518993.0684
      2733.3754
 04  9 16 22 19 14.9980000  0  7G 3G 8G13G19G27G10G28
   3950399.18149   3078267.84147  23428272.2874   23428269.0724
     -2259.0004
 -13074623.03049 -10176429.83848  20033116.3114   20033111.3144
      1669.3284
   6969771.47249   5426961.58947  21389883.2724   21389878.8264
     -2590.4224
  -9069893.07549  -7055722.59048  21696957.4044   21696950.6544
       -22.0164
  -6427436.45149  -5005725.14248  20033028.6784   20033023.4514
       518.7194
  -5232693.25749  -4076629.06347  22934441.1864   22934437.2404
      -139.9064
 -13219999.20749 -10286869.06848  21511202.5294   21511198.0844
      2729.1414
 04  9 16 22 19 29.9980000  0  7G 3G 8G13G19G27G10G28
   3984339.95849   3104715.13147  23434730.2484   23434727.8774
     -2265.7504
 -13099622.51849 -10195909.95748  20028359.1544   20028354.6074
      1664.7344
   7008679.46649   5457279.47247  21397287.4904   21397283.0924
     -2596.5314
  -9069482.39049  -7055402.57348  21697035.5064   21697029.1274
       -31.9694
  -6435179.39549  -5011758.60448  20031555.1234   20031550.2214
       514.3594
  -5230518.88049  -4074934.74847  22934854.9674   22934850.5184
      -149.1564
 -13260891.82749 -10318733.42147  21503420.8034   21503415.9084
      2723.9384
 04  9 16 22 19 44.9980000  0  7G 3G 8G13G19G27G10G28
   4018378.31849   3131238.50147  23441208.0614   23441205.4554
     -2272.4374
 -13124556.96349 -10215339.39648  20023614.0924   20023609.4944
      1660.2194
   7047675.56849   5487666.02047  21404708.0764   21404703.3854
     -2602.6094
  -9068926.50549  -7054969.41848  21697141.2174   21697134.7214
       -41.8284
  -6442860.83949  -5017744.14648  20030093.4984   20030088.2444
       510.0634
  -5228208.16949  -4073134.21247  22935293.9364   22935290.3464
      -158.5164
 -13301708.90249 -10350538.91647  21495653.6394   21495648.5414
      2718.7034
 04  9 16 22 19 59.9980000  0  7G 3G 8G13G19G27G10G28
   4052511.35949   3157835.64947  23447702.8814   23447700.9004
     -2278.6564
 -13149428.81249 -10234720.05048  20018881.3424   20018876.6934
      1656.0944
   7086756.88849   5518118.97347  21412145.0764   21412140.6394
     -2608.2504
  -9068228.04749  -7054425.14848  21697274.3344   21697268.2054
       -51.3124
  -6450483.22649  -5023683.66148  20028642.9754   20028637.9754
       506.1884
  -5225763.86449  -4071229.56847  22935758.9044   22935755.3654
      -167.3594
 -13342452.86549 -10382287.42847  21487900.5684   21487895.2014
      2713.8914
 04  9 16 22 20 14.9980000  0  7G 3G 8G13G19G27G10G28
   4086739.65849   3184507.02047  23454216.0844   23454214.1544
     -2285.1874
 -13174237.19049 -10254051.24848  20014160.2564   20014155.8424
      1651.6564
   7125923.89249   5548638.68847  21419598.1394   21419594.1274
     -2614.1094
  -9067386.17849  -7053769.14248  21697434.5294   21697428.1664
       -61.0314
  -6458045.60749  -5029576.42248  20027203.8264   20027198.9164
       502.0634
  -5223185.32549  -4069220.31747  22936250.2254   22936246.3224
      -176.4534
 -13383122.73249 -10413978.20147  21480161.2254   21480156.1394
      2708.7814
 04  9 16 22 20 29.9980000  0  7G 3G 8G13G19G27G10G28
   4121063.38249   3211252.76547  23460747.7484   23460745.5254
     -2291.2344
 -13198981.29949 -10273332.36148  20009451.6314   20009447.1434
      1647.6724
   7165177.15849   5579225.61747  21427067.9904   21427063.6894
     -2619.6094
  -9066400.46349  -7053001.04048  21697622.0764   21697615.7014
       -70.3284
  -6465547.37549  -5035421.95548  20025776.2174   20025771.4514
       498.2344
  -5220472.14949  -4067106.19647  22936766.7564   22936763.0104
      -185.2034
 -13423718.02249 -10445610.86847  21472436.0844   21472431.2994
      2704.0474
 04  9 16 22 20 44.9980000  0  7G 3G 8G13G19G27G10G28
   4155480.95449   3238071.61847  23467298.0224   23467295.1044
     -2297.8284
 -13223662.46249 -10292564.44448  20004755.0924   20004750.3654
      1643.0784
   7204515.00649   5609878.45447  21434553.5614   21434549.3854
     -2625.5314
  -9065272.29449  -7052121.94348  21697836.7324   21697829.8854
       -80.2194
  -6472989.76549  -5041221.23248  20024360.3344   20024355.3184
       494.0164
  -5217625.91149  -4064888.34047  22937308.2644   22937304.4714
      -194.4224
 -13464239.94549 -10477186.37847  21464724.7644   21464719.9474
      2698.7664
 04  9 16 22 20 59.9980000  0  7G 3G 8G13G19G27G10G28
   4189993.49949   3264964.49147  23473865.2484   23473862.5414
     -2303.9064
 -13248278.98149 -10311746.13848  20000070.7174   20000065.9164
      1639.0164
   7243938.42449   5640597.98147  21442055.8344   21442051.5454
     -2631.0624
  -9064000.21449  -7051130.71048  21698078.3654   21698072.3854
       -89.5944
  -6480371.27349  -5046973.04848  20022955.4044   20022950.7754
       490.1094
  -5214645.20349  -4062565.72347  22937875.1704   22937871.5374
      -203.1414
 -13504687.01349 -10508703.53747  21457028.3504   21457023.2914
      2694.0634
 04  9 16 22 21 14.9980000  0  7G 3G 8G13G19G27G10G28
   4224602.15449   3291932.24147  23480451.9284   23480448.4044
     -2310.2974
 -13272829.45749 -10330876.37948  19995398.8574   19995394.1354
      1634.6564
   7283448.75649   5671385.21247  21449574.1314   21449569.9674
     -2636.7504
  -9062582.86149  -7050026.26948  21698348.0614   21698341.6934
       -99.1414
  -6487690.26549  -5052676.16248  20021562.4364   20021557.4364
       485.9694
  -5211528.92949  -4060137.47147  22938467.8734   22938464.5374
      -212.1254
 -13545057.73749 -10540161.21547  21449345.7174   21449340.9714
      2689.0004
 04  9 16 22 21 29.9980000  0  7G 3G 8G13G19G27G10G28
   4259304.29349   3318972.85847  23487053.8574   23487052.0334
     -2316.2034
 -13297315.96349 -10349956.76148  19990739.4754   19990734.9084
      1630.6724
   7323043.47149   5702238.22147  21457109.0144   21457104.6894
     -2642.0624
  -9061022.57049  -7048810.44548  21698645.1624   21698638.8734
      -108.3754
  -6494948.98249  -5058332.30148  20020181.2794   20020176.1194
       482.2664
  -5208279.47549  -4057605.44147  22939086.4044   22939082.9204
      -220.6094
 -13585354.23249 -10571561.06047  21441677.5614   21441673.0764
      2684.3134
 04  9 16 22 21 44.9980000  0  7G 3G 8G13G19G27G10G28
   4294100.98649   3346087.15447  23493675.7404   23493674.1004
     -2322.7814
 -13321736.73949 -10368985.93348  19986092.2254   19986087.5534
      1626.1094
   7362723.85049   5733157.96347  21464659.8654   21464655.6544
     -2647.9694
  -9059317.89449  -7047482.12648  21698969.9124   21698963.1044
      -118.2034
  -6502145.88349  -5063940.28348  20018811.9434   20018806.9244
       478.0004
  -5204895.43149  -4054968.55247  22939730.9754   22939726.8854
      -229.8914
 -13625574.96949 -10602901.87447  21434024.1864   21434018.8734
      2679.0944
 04  9 16 22 21 59.9980000  0  7G 3G 8G13G19G27G10G28
   4328989.45749   3373272.86547  23500316.0684   23500312.7294
     -2328.7974
 -13346094.55349 -10387966.03848  19981457.0684   19981452.6194
      1621.8284
   7402486.96049   5764142.18347  21472226.8654   21472222.5884
     -2653.5164
  -9057471.41149  -7046043.29748  21699321.1394   21699314.4514
      -127.7194
  -6509283.40449  -5069501.98248  20017453.6624   20017448.4754
       473.9844
  -5201379.67749  -4052229.02047  22940399.9674   22940396.0294
      -238.7034
 -13665722.38649 -10634185.55348  21426384.1394   21426379.4514
      2674.1564
 04  9 16 22 22 14.9980000  0  6G 8G13G19G27G10G28
 -13370383.13449 -10406892.20448  19976835.0844   19976830.2404
      1617.2974
   7442338.71249   5795195.46547  21479810.1314   21479806.1004
     -2659.3594
  -9055477.13649  -7044489.31648  21699700.2564   21699693.8144
      -137.5164
  -6516355.31749  -5075012.56448  20016107.8654   20016102.8934
       469.6724
  -5197726.28349  -4049382.22247  22941095.1154   22941091.1934
      -247.7974
 -13705790.52349 -10665407.44348  21418759.3184   21418754.5024
      2668.9384
 04  9 16 22 22 29.9980000  0  6G 8G13G19G27G10G28
 -13394609.87849 -10425770.18348  19972224.6624   19972219.8184
      1612.7344
   7482271.21549   5826311.66647  21487409.1074   21487405.0024
     -2665.2344
  -9053342.71849  -7042826.13148  21700106.8034   21700100.2174
      -147.3284
  -6523369.10849  -5080477.86848  20014773.2484   20014767.7564
       465.3444
  -5193942.97849  -4046434.22147  22941814.6544   22941811.5104
      -256.8754
 -13745786.84949 -10696573.38648  21411148.3734   21411143.3974
      2663.7034
 04  9 16 22 22 44.9980000  0  6G 8G13G19G27G10G28
 -13418769.02249 -10444595.48448  19967627.2954   19967622.4554
      1608.2194
   7522290.10349   5857495.18847  21495024.4754   21495020.3694
     -2670.8444
  -9051062.33149  -7041049.20348  21700540.4364   21700533.7874
      -156.9694
  -6530318.91849  -5085893.30148  20013450.7484   20013445.5924
       461.2034
  -5190024.10749  -4043380.55447  22942560.8574   22942556.7644
      -265.7344
 -13785705.41049 -10727678.72548  21403552.0684   21403547.2174
      2658.6724
 04  9 16 22 22 59.9980000  0  6G 8G13G19G27G10G28
 -13442863.70549 -10463370.55948  19963042.5684   19963037.6934
      1603.8594
   7562391.61749   5888743.09347  21502655.6234   21502651.4714
     -2676.4374
  -9048639.44849  -7039161.23748  21701001.8184   21700995.4794
      -166.5164
  -6537208.03449  -5091261.44048  20012139.8114   20012135.0254
       457.0164
  -5185973.22549  -4040224.04647  22943331.5764   22943328.3934
      -274.7504
 -13825549.53749 -10758726.06748  21395969.7484   21395964.7954
      2653.4694
 04  9 16 22 23 14.9980000  0  6G 8G13G19G27G10G28
 -13466890.34649 -10482092.61448  19958470.2094   19958465.8694
      1599.4064
   7602579.08449   5920057.96947  21510302.8894   21510298.7444
     -2682.1254
  -9046070.66649  -7037159.58348  21701490.4044   21701483.9904
      -176.2034
  -6544032.73149  -5096579.38748  20010841.2324   20010836.5614
       452.7034
  -5181786.95449  -4036962.04147  22944128.1394   22944124.8614
      -283.7344
 -13865315.70949 -10789712.67948  21388402.3894   21388398.0884
      2648.3444
 04  9 16 22 23 29.9980000  0  6G 8G13G19G27G10G28
 -13490851.40649 -10500763.56548  19953910.4044   19953905.6974
      1595.2814
   7642849.63849   5951437.59647  21517966.1234   21517961.5184
     -2687.3124
  -9043358.55549  -7035046.24648  21702006.2484   21702000.1234
      -185.5314
  -6550795.64349  -5101849.18848  20009554.3424   20009549.0024
       448.9384
  -5177468.06949  -4033596.68147  22944950.2484   22944946.2324
      -292.1414
 -13905006.44849 -10820640.49748  21380849.6624   21380844.4204
      2643.6254
 04  9 16 22 23 44.9980000  0  6G 8G13G19G27G10G28
 -13514746.68649 -10519383.25248  19949363.3974   19949358.7994
      1590.6254
   7683203.04149   5982881.76847  21525645.0764   21525640.7954
     -2693.1414
  -9040503.18249  -7032821.27248  21702549.6704   21702543.4394
      -195.3124
  -6557496.55249  -5107070.68048  20008279.1234   20008274.2994
       444.5474
  -5173016.73049  -4030128.12447  22945796.7954   22945793.4434
      -301.3444
 -13944621.57449 -10851509.40748  21373310.9674   21373306.0184
      2638.3444
 04  9 16 22 23 59.9980000  0  6G 8G13G19G27G10G28
 -13538578.31749 -10537953.36348  19944828.5294   19944823.6354
      1586.4534
   7723636.87549   6014388.61647  21533339.6704   21533335.3384
     -2698.5164
  -9037506.85549  -7030486.48548  21703120.0294   21703113.8974
      -204.6414
  -6564137.54649  -5112245.48848  20007015.3424   20007010.3854
       440.5314
  -5168435.44549  -4026558.30147  22946668.7644   22946664.9904
      -309.8914
 -13984163.23649 -10882321.06148  21365786.3894   21365781.5414
      2633.5474
 04  9 16 22 24 14.9980000  0  6G 8G13G19G27G10G28
 -13562342.10549 -10556470.58348  19940306.4904   19940301.7174
      1582.0784
   7764154.86349   6045961.05247  21541049.9824   21541045.7174
     -2704.0004
  -9034365.56049  -7028038.71048  21703717.6544   21703711.0494
      -214.1724
  -6570714.65949  -5117370.50148  20005763.7644   20005758.7444
       436.3134
  -5163720.24849  -4022884.11847  22947566.1704   22947562.3654
      -318.8284
 -14023627.45549 -10913072.37647  21358276.8814   21358271.9084
      2628.4534
 04  9 16 22 24 29.9980000  0  6G 8G13G19G27G10G28
 -13586039.95349 -10574936.43348  19935796.9594   19935792.2404
      1577.3914
   7804754.74949   6077597.29847  21548775.5764   21548771.4364
     -2709.6254
  -9031081.36049  -7025479.58948  21704342.7644   21704336.4904
      -224.0164
  -6577229.61549  -5122447.08948  20004523.8574   20004519.1504
       432.0004
  -5158873.26949  -4019107.25547  22948488.5844   22948485.0224
      -327.7194
 -14063016.10049 -10943764.79848  21350781.4364   21350776.4164
      2623.0784
 04  9 16 22 24 44.9980000  0  6G 8G13G19G27G10G28
 -13609672.33349 -10593351.26448  19931299.7724   19931295.0844
      1573.4064
   7845435.73149   6109296.73447  21556517.1474   21556512.9944
     -2714.6414
  -9027654.85449  -7022809.58348  21704994.8504   21704988.7254
      -233.0784
  -6583682.95249  -5127475.67448  20003296.1864   20003291.1194
       428.2664
  -5153895.30949  -4015228.36447  22949435.7324   22949432.3114
      -336.1254
 -14102329.64049 -10974398.69148  21343300.1474   21343294.9904
      2618.3914
 04  9 16 22 24 59.9980000  0  6G 8G13G19G27G10G28
 -13633237.18849 -10611713.48248  19926815.4364   19926810.9394
      1568.7974
   7886199.40949   6141060.61647  21564274.4204   21564270.2444
     -2720.2814
  -9024084.29049  -7020027.32848  21705674.2564   21705667.9944
      -242.7664
  -6590072.62749  -5132454.63748  20002080.2794   20002075.0764
       423.9694
  -5148784.74649  -4011246.12147  22950408.2954   22950404.7874
      -345.0314
 -14141566.24849 -11004972.64948  21335833.9044   21335829.0644
      2613.3284
 04  9 16 22 25 14.9980000  0  6G 8G13G19G27G10G28
 -13656735.61349 -10630023.94448  19922343.9754   19922339.0764
      1565.0784
   7927044.65049   6172888.03747  21572046.8424   21572042.8894
     -2725.0314
  -9020370.69649  -7017133.61948  21706381.1934   21706374.5254
      -251.5784
  -6596399.46749  -5137384.64148  20000875.7794   20000871.3504
       420.4224
  -5143542.59649  -4007161.33647  22951405.5224   22951402.5144
      -353.1564
 -14180726.68249 -11035487.25748  21328381.6624   21328376.5334
      2608.9224
 04  9 16 22 25 29.9980000  0  6G 8G13G19G27G10G28
 -13680168.37649 -10648283.23948  19917884.6934   19917879.7914
      1559.5944
   7967969.99449   6204777.89547  21579834.6394   21579830.8504
     -2731.4534
  -9016515.19449  -7014129.32748  21707114.3574   21707108.3144
      -262.1874
  -6602664.46349  -5142266.45948  19999683.5534   19999678.6744
       415.1724
  -5138170.19149  -4002975.07647  22952428.3344   22952424.3344
      -362.8284
 -14219811.89249 -11065943.24648  21320943.8574   21320939.3074
      2602.7194
 04  9 16 22 25 44.9980000  0  6G 8G13G19G27G10G28
 -13703532.76849 -10666489.23948  19913438.4824   19913433.8774
      1555.2974
   8008977.90349   6236732.08847  21587638.2014   21587634.0374
     -2736.5944
  -9012515.14149  -7011012.41048  21707875.4904   21707869.3144
      -271.5784
  -6608864.88549  -5147097.95348  19998504.0534   19998499.2754
       411.1254
  -5132665.00349  -3998685.35147  22953475.9204   22953472.5224
      -371.5624
 -14258819.33949 -11096338.62548  21313520.9984   21313516.0064
      2597.7814
 04  9 16 22 25 59.9980000  0  6G 8G13G19G27G10G28
 -13726830.52549 -10684643.33948  19909005.2404   19909000.5414
      1551.0004
   8050066.12149   6268748.84147  21595457.2644   21595453.7134
     -2741.8284
  -9008372.65249  -7007784.49248  21708664.1544   21708657.6234
      -280.8914
  -6615002.71549  -5151880.68148  19997335.6234   19997330.6474
       407.0944
  -5127029.27349  -3994293.86447  22954547.9514   22954544.3614
      -380.0004
 -14297750.89749 -11126674.87048  21306112.3264   21306107.7684
      2592.9384
 04  9 16 22 26 14.9980000  0  6G 8G13G19G27G10G28
 -13750062.35349 -10702746.05648  19904584.2874   19904579.8614
      1546.5634
   8091233.49549   6300827.28247  21603290.9754   21603287.0184
     -2747.1724
  -9004088.57349  -7004446.25448  21709479.8574   21709473.3034
      -290.3594
  -6621078.51849  -5156615.07148  19996179.8344   19996174.8544
       402.9844
  -5121264.05349  -3989801.49747  22955645.5454   22955642.0024
      -388.6564
 -14336607.35149 -11156952.60348  21298718.6704   21298713.4204
      2587.8754
 04  9 16 22 26 29.9980000  0  6G 8G13G19G27G10G28
 -13773226.70049 -10720796.19048  19900176.1704   19900171.8654
      1542.1884
   8132481.39349   6332968.47947  21611140.3974   21611136.5534
     -2752.4534
  -8999661.65549  -7000996.71648  21710321.7874   21710315.4864
      -299.7504
  -6627090.80249  -5161299.96648  19995035.6154   19995030.5884
       398.8914
  -5115367.98949  -3985207.16447  22956767.3814   22956764.0144
      -397.1874
 -14375387.20649 -11187170.65248  21291339.4364   21291334.2174
      2582.9224
 04  9 16 22 26 44.9980000  0  6G 8G13G19G27G10G28
 -13796323.76449 -10738793.89748  19895780.9674   19895776.6074
      1537.6414
   8173809.33049   6365172.02447  21619004.7254   21619000.6074
     -2757.7814
  -8995091.96649  -6997435.92148  21711191.4284   21711184.5884
      -309.2974
  -6633039.55549  -5165935.36248  19993903.8424   19993898.6934
       394.5944
  -5109341.37749  -3980511.11847  22957913.7954   22957911.4084
      -406.0164
 -14414090.42749 -11217328.98948  21283973.9364   21283968.7524
      2577.7194
 04  9 16 22 26 59.9980000  0  6G 8G13G19G27G10G28
 -13819354.00149 -10756739.54148  19891398.4514   19891393.7254
      1532.9064
   8215216.26549   6397437.14247  21626884.3264   21626880.1864
     -2763.2974
  -8990380.26049  -6993764.46647  21712087.9904   21712081.7874
      -319.0624
  -6638925.40149  -5170521.73748  19992783.4984   19992778.0924
       390.1094
  -5103185.22649  -3975714.14447  22959085.3894   22959082.1474
      -414.8594
 -14452717.67849 -11247428.11148  21276623.4204   21276618.1474
      2572.3914
 04  9 16 22 27 14.9980000  0  6G 8G13G19G27G10G28
 -13842318.26249 -10774633.75848  19887028.3344   19887023.9164
      1528.5314
   8256700.89249   6429762.80347  21634778.9284   21634774.7094
     -2768.4694
  -8985527.81149  -6989983.33748  21713010.8574   21713004.4164
      -328.3754
  -6644749.34949  -5175059.87548  19991675.3894   19991670.7754
       386.0164
  -5096900.77349  -3970817.16847  22960281.7404   22960278.2364
      -423.3124
 -14491269.97049 -11277468.82748  21269286.9204   21269282.0804
      2567.3594
 04  9 16 22 27 29.9980000  0  6G 8G13G19G27G10G28
 -13865212.96949 -10792473.79248  19882671.9594   19882667.3934
      1523.8134
   8298266.58149   6462151.62047  21642688.6234   21642684.3814
     -2773.9224
  -8980531.11949  -6986089.80948  21713962.3264   21713956.0224
      -338.0944
  -6650507.72849  -5179546.93248  19990579.7954   19990574.7014
       381.5164
  -5090484.60949  -3965817.57847  22961502.6394   22961499.1504
      -432.3594
 -14529743.71849 -11307448.34748  21261965.7794   21261960.7444
      2562.0944
 04  9 16 22 27 44.9980000  0  6G 8G13G19G27G10G28
 -13888035.06449 -10810257.24248  19878328.8184   19878324.5064
      1518.8914
   8339915.92549   6494605.62447  21650614.0614   21650610.0064
     -2779.5624
  -8975387.31949  -6982081.66948  21714941.3814   21714934.8184
      -347.9694
  -6656197.33349  -5183980.38348  19989497.2484   19989492.6074
       376.8444
  -5083934.03149  -3960713.25247  22962749.3424   22962745.5024
      -441.4224
 -14568135.90849 -11337364.32648  21254659.9284   21254654.9434
      2556.5944
 04  9 16 22 27 59.9980000  0  6G 8G13G19G27G10G28
 -13910789.38549 -10827987.87048  19873998.8424   19873994.0534
      1514.8914
   8381643.60749   6527120.67547  21658554.2874   21658550.7054
     -2784.3284
  -8970101.53749  -6977962.87648  21715947.3114   21715940.7874
      -357.0004
  -6661823.32749  -5188364.27448  19988426.2644   19988421.1154
       373.0474
  -5077254.34349  -3955508.29947  22964020.5684   22964016.8974
      -449.4694
 -14606451.53349 -11367220.61748  21247368.7254   21247363.6394
      2552.0004
 04  9 16 22 28 14.9980000  0  6G 8G13G19G27G10G28
 -13933477.26149 -10845666.73448  19869681.7644   19869677.2174
      1509.7974
   8423448.14249   6559695.60147  21666509.7724   21666505.9714
     -2790.0314
  -8964674.98749  -6973734.40448  21716979.0844   21716972.7794
      -366.9694
  -6667386.83549  -5192699.48548  19987367.5924   19987362.8504
       368.2504
  -5070446.97949  -3950203.88847  22965314.9824   22965312.3464
      -458.6094
 -14644691.76449 -11397018.18648  21240091.7794   21240087.2294
      2546.3754
 04  9 16 22 28 29.9980000  0  6G 8G13G19G27G10G28
 -13956092.89749 -10863289.30448  19865378.0064   19865373.7914
      1505.4064
   8465334.92249   6592334.61247  21674480.3424   21674476.6234
     -2795.0314
  -8959102.24549  -6969392.02048  21718040.0144   21718033.7524
      -376.2194
  -6672882.05949  -5196981.47748  19986322.1074   19986316.7294
       364.2034
  -5063506.47649  -3944795.72147  22966636.4364   22966632.5064
      -467.0474
 -14682851.01849 -11426752.65348  21232830.2094   21232825.4164
      2541.3914
 04  9 16 22 28 44.9980000  0  6G 8G13G19G27G10G28
 -13978638.10149 -10880856.99048  19861087.3574   19861083.1194
      1500.9534
   8507301.60949   6625035.90347  21682466.4364   21682462.7524
     -2800.1724
  -8953385.50049  -6964937.40848  21719127.8424   21719121.5644
      -385.5624
  -6678310.97849  -5201211.80248  19985288.4284   19985284.2174
       360.0314
  -5056435.12249  -3939285.56947  22967981.6704   22967978.1744
      -475.5624
 -14720931.28649 -11456425.55248  21225583.9674   21225578.8974
      2536.3284
 04  9 16 22 28 59.9980000  0  6G 8G13G19G27G10G28
 -14001116.44749 -10898372.58148  19856810.4364   19856805.2054
      1496.1884
   8549344.37449   6657796.47447  21690467.1784   21690462.7324
     -2805.5004
  -8947528.36249  -6960373.41848  21720242.1784   21720235.8424
      -395.2814
  -6683677.04949  -5205393.14948  19984267.6934   19984263.0964
       355.5474
  -5049236.72449  -3933676.45047  22969351.7874   22969348.3974
      -484.2344
 -14758936.04349 -11486039.62248  21218351.9204   21218346.8464
      2530.9844
 04  9 16 22 29 14.9980000  0  6G 8G13G19G27G10G28
 -14023524.61849 -10915833.49248  19852546.1234   19852541.5104
      1491.4224
   8591465.90849   6690618.40347  21698482.4364   21698478.2994
     -2810.8754
  -8941527.88449  -6955697.73548  21721384.1624   21721378.1894
      -404.9534
  -6688977.05749  -5209523.03848  19983259.1154   19983254.3264
       350.9844
  -5041908.34349  -3927966.01147  22970746.0614   22970742.7324
      -493.1414
 -14796862.08649 -11515592.36148  21211134.7874   21211129.4714
      2525.5474
 04  9 16 22 29 29.9980000  0  6G 8G13G19G27G10G28
 -14045864.26049 -10933241.00548  19848295.3114   19848290.4474
      1486.9844
   8633664.37749   6723500.30947  21706512.5144   21706509.0254
     -2815.7814
  -8935385.76549  -6950911.66548  21722553.2644   21722547.1314
      -414.2344
  -6694212.66849  -5213602.72148  19982262.6624   19982257.8694
       346.8754
  -5034451.83249  -3922155.76147  22972165.2324   22972161.8814
      -501.3754
 -14834711.05949 -11545085.04648  21203932.2094   21203927.3614
      2520.6564
 04  9 16 22 29 44.9980000  0  6G 8G13G19G27G10G28
 -14068131.38649 -10950592.00148  19844057.8814   19844053.3224
      1481.9694
   8675943.37949   6756444.94847  21714557.9674   21714553.9514
     -2821.3594
  -8929098.32549  -6946012.36548  21723749.5764   21723743.1474
      -424.0784
  -6699379.82749  -5217629.09348  19981279.6074   19981274.6474
       342.1414
  -5026863.61449  -3916242.87247  22973609.1234   22973605.8574
      -510.2664
 -14872479.13649 -11574514.68448  21196745.3424   21196740.2364
      2515.0784
 04  9 16 22 29 59.9980000  0  6G 8G13G19G27G10G28
 -14090325.68349 -10967886.25148  19839834.3344   19839829.5334
      1477.4534
   8718302.61549   6789452.10647  21722618.7954   21722614.6824
     -2826.3124
  -8922665.45749  -6940999.74547  21724973.4594   21724967.4594
      -433.4694
  -6704478.32749  -5221601.94148  19980309.1544   19980303.9984
       337.9064
  -5019143.75349  -3910227.43047  22975077.7404   22975074.8424
      -518.7034
 -14910166.14449 -11603881.15948  21189573.5534   21189568.6194
      2510.0784
 04  9 16 22 30 14.9980000  0  6G 8G13G19G27G10G28
 -14112449.43849 -10985125.54048  19835624.4754   19835619.4944
      1472.7814
   8760739.52049   6822519.80047  21730694.2644   21730689.9364
     -2831.4694
  -8916089.58549  -6935875.69348  21726225.1074   21726218.5294
      -442.8594
  -6709510.49949  -5225523.11948  19979351.7794   19979346.7794
       333.5634
  -5011294.82149  -3904111.36747  22976571.4754   22976568.4634
      -527.2974
 -14947774.31249 -11633186.20548  21182417.0224   21182412.3814
      2504.7814
 04  9 16 22 30 29.9980000  0  6G 8G13G19G27G10G28
 -14134506.35949 -11002312.75048  19831426.5374   19831421.9824
      1467.7974
   8803250.08449   6855644.87047  21738784.0144   21738779.6004
     -2837.0004
  -8909374.59749  -6930643.23748  21727503.2174   21727496.2254
      -452.7344
  -6714479.86549  -5229395.34648  19978406.0764   19978401.1544
       328.7974
  -5003320.70849  -3897897.77747  22978089.8654   22978086.1704
      -536.3284
 -14985307.40749 -11662432.74848  21175274.5374   21175269.6114
      2499.2344
 04  9 16 22 30 44.9980000  0  6G 8G13G19G27G10G28
 -14156492.57749 -11019444.85548  19827243.0614   19827238.1234
      1463.4534
   8845837.78749   6888830.05747  21746887.9434   21746883.5184
     -2841.6874
  -8902516.89349  -6925299.57348  21728807.6864   21728801.2094
      -461.8594
  -6719382.61949  -5233215.67948  19977473.1704   19977468.2834
       324.6564
  -4995217.95749  -3891583.95447  22979631.3654   22979627.8814
      -544.5004
 -15022761.54549 -11691617.76748  21168147.1074   21168141.9824
      2494.3754
 04  9 16 22 30 59.9980000  0  6G 8G13G19G27G10G28
 -14178408.87149 -11036522.48548  19823072.6474   19823067.3694
      1458.8914
   8888501.44649   6922074.43747  21755006.3814   21755002.5104
     -2846.5784
  -8895517.56649  -6919845.57148  21730139.6394   21730133.1544
      -471.0784
  -6724219.72349  -5236984.85648  19976552.7014   19976547.4044
       320.4694
  -4986987.80949  -3885170.87547  22981197.1474   22981193.8814
      -552.6564
 -15060137.72349 -11720742.04148  21161035.1864   21161029.5334
      2489.2974
 04  9 16 22 31 14.9980000  0  6G 8G13G19G27G10G28
 -14200256.44849 -11053546.56048  19818915.1074   19818910.0684
      1454.1414
   8931239.45949   6955376.74347  21763139.2564   21763135.2524
     -2851.8284
  -8888377.94749  -6914282.21748  21731498.8264   21731491.8464
      -480.7974
  -6728992.28749  -5240703.72648  19975644.1624   19975639.6704
       315.9064
  -4978631.78249  -3878659.67847  22982787.2174   22982784.2254
      -561.4534
 -15097437.11949 -11749806.48748  21153936.8424   21153931.8344
      2483.8754
 04  9 16 22 31 29.9980000  0  6G 8G13G19G27G10G28
 -14222030.24749 -11070513.15548  19814771.8814   19814767.1274
      1449.3594
   8974056.59449   6988740.70647  21771287.2954   21771283.3264
     -2856.8444
  -8881093.07449  -6908605.69748  21732884.5534   21732878.2724
      -490.2974
  -6733695.18949  -5244368.32348  19974749.6074   19974744.5534
       311.4224
  -4970145.05149  -3872046.67447  22984402.6544   22984399.1274
      -569.8124
 -15134654.70949 -11778807.18048  21146854.6704   21146849.5184
      2478.6724
 04  9 16 22 31 44.9980000  0  6G 8G13G19G27G10G28
 -14243732.16649 -11087423.74548  19810642.2094   19810637.1114
      1444.5164
   9016950.43149   7022164.44947  21779449.9514   21779445.7134
     -2861.9844
  -8873665.37949  -6902817.88848  21734298.0534   21734291.2834
      -499.8444
  -6738330.45549  -5247980.22248  19973867.4824   19973862.2444
       306.8284
  -4961529.87049  -3865333.55047  22986042.2254   22986038.5804
      -578.5004
 -15171792.63549 -11807745.79648  21139787.6704   21139782.6544
      2473.2504
 04  9 16 22 31 59.9980000  0  6G 8G13G19G27G10G28
 -14265362.83549 -11104278.80048  19806525.9514   19806521.2404
      1439.6414
   9059920.15549   7055647.32847  21787626.7644   21787622.8934
     -2867.2344
  -8866095.46549  -6896919.25548  21735738.6934   21735731.9474
      -509.4534
  -6742898.68649  -5251539.88348  19972997.9044   19972993.1664
       302.2344
  -4952787.15449  -3858521.05847  22987705.4124   22987701.7564
      -587.0784
 -15208851.49249 -11836622.81248  21132735.5224   21132729.9554
      2467.9224
 04  9 16 22 32 14.9980000  0  6G 8G13G19G27G10G28
 -14286925.03849 -11121080.51248  19802422.8574   19802418.1894
      1435.0944
   9102962.35049   7089186.64947  21795817.0144   21795812.8974
     -2872.0164
  -8858386.44749  -6890912.24047  21737205.4364   21737199.4674
      -518.7034
  -6747402.76349  -5255049.55548  19972140.9594   19972136.0684
       297.9694
  -4943920.17049  -3851611.73947  22989392.5684   22989389.5534
      -595.4534
 -15245834.13649 -11865440.43848  21125697.9124   21125692.6974
      2462.7974
 04  9 16 22 32 29.9980000  0  6G 8G13G19G27G10G28
 -14308411.31049 -11137823.05648  19798333.8734   19798329.3504
      1429.8134
   9146083.89349   7122787.82047  21804022.9044   21804019.1744
     -2877.5474
  -8850531.21949  -6884791.27348  21738700.6784   21738694.4004
      -528.6094
  -6751835.25149  -5258503.44048  19971297.5844   19971292.4794
       293.0164
  -4934921.96049  -3844600.14647  22991105.1004   22991101.9904
      -604.2814
 -15282733.29749 -11894192.99948  21118675.7874   21118670.8034
      2457.1254
 04  9 16 22 32 44.9980000  0  6G 8G13G19G27G10G28
 -14329822.03149 -11154506.73448  19794259.6864   19794254.5844
      1424.7034
   9189284.15549   7156450.32347  21812243.7564   21812239.8694
     -2882.8594
  -8842530.34349  -6878556.83248  21740223.0144   21740216.5144
      -538.4694
  -6756196.61049  -5261901.90148  19970467.6474   19970462.9864
       288.2194
  -4925793.14349  -3837486.82147  22992842.4364   22992838.9204
      -613.2034
 -15319549.43349 -11922880.87448  21111670.3894   21111665.0024
      2451.4844
 04  9 16 22 32 59.9980000  0  6G 8G13G19G27G10G28
 -14351166.23849 -11171138.57348  19790198.0294   19790192.9394
      1420.7504
   9232554.05149   7190167.08747  21820478.2014   21820473.4204
     -2886.9694
  -8834392.70849  -6872215.82248  21741771.8654   21741765.3694
      -547.0474
  -6760495.50849  -5265251.70248  19969649.6234   19969645.1394
       284.5004
  -4916542.74349  -3830278.72447  22994602.4904   22994598.5334
      -620.7664
 -15356291.32749 -11951510.90448  21104678.6864   21104673.7954
      2446.9534
 04  9 16 22 33 14.9980000  0  6G 8G13G19G27G10G28
 -14372435.43749 -11187711.97648  19786150.6314   19786145.6194
      1415.1254
   9275901.33249   7223944.16547  21828726.7254   21828722.7604
     -2892.6724
  -8826110.49149  -6865762.14548  21743347.5684   21743341.2994
      -557.2194
  -6764723.78949  -5268546.45648  19968844.9904   19968839.9324
       279.2504
  -4907163.01049  -3822969.82247  22996387.4984   22996384.3614
      -629.8594
 -15392950.85349 -11980076.74948  21097702.5374   21097697.2484
      2440.9534
 04  9 16 22 33 29.9980000  0  6G 8G13G19G27G10G28
 -14393634.60749 -11204230.80248  19782116.4364   19782111.5884
      1410.6564
   9319320.72249   7257777.42647  21836988.9284   21836985.1894
     -2897.2814
  -8817688.83149  -6859199.81448  21744950.4124   21744944.2444
      -566.3594
  -6768886.47549  -5271790.11248  19968053.0064   19968048.1664
       275.0634
  -4897659.10249  -3815564.19547  22998195.4674   22998192.4394
      -637.9694
 -15429533.05549 -12008582.33448  21090741.0764   21090735.7724
      2435.9064
 04  9 16 22 33 44.9980000  0  6G 8G13G19G27G10G28
 -14414756.07749 -11220689.08648  19778097.2324   19778092.3114
      1405.7194
   9362819.49449   7291672.52547  21845266.8894   21845263.1894
     -2902.3754
  -8809120.30449  -6852523.04748  21746581.1624   21746574.3614
      -575.9534
  -6772975.86049  -5274976.64348  19967274.8814   19967269.7684
       270.3914
  -4888023.79149  -3808056.18247  23000029.3184   23000026.1354
      -646.5004
 -15466030.32649 -12037021.73948  21083796.0684   21083790.6544
      2430.5314
 04  9 16 22 33 59.9980000  0  6G 8G13G19G27G10G28
 -14435799.88449 -11237086.85748  19774092.6154   19774087.8144
      1400.3914
   9406397.02749   7325629.01547  21853559.5224   21853555.4474
     -2907.7344
  -8800405.13549  -6845732.00548  21748239.1314   21748232.6314
      -585.8284
  -6776992.02649  -5278106.11948  19966510.4904   19966505.6234
       265.3754
  -4878257.51249  -3800446.10347  23001887.7404   23001884.6974
      -655.4844
 -15502442.81049 -12065395.08148  21076866.9754   21076861.7214
      2424.7344
 04  9 16 22 34 14.9980000  0  6G 8G13G19G27G10G28
 -14456768.92449 -11253426.36648  19770102.4514   19770097.4204
      1395.3444
   9450050.17649   7359644.41647  21861865.9514   21861862.1394
     -2912.8124
  -8791546.41349  -6838829.10048  21749924.9514   21749918.5644
      -595.5004
  -6780937.81449  -5281180.75848  19965759.4754   19965754.4714
       260.5944
  -4868363.54449  -3792736.53747  23003771.0454   23003767.5064
      -663.9064
 -15538773.36149 -12093704.56948  21069953.2174   21069948.0964
      2419.2034
 04  9 16 22 34 29.9980000  0  6G 8G13G19G27G10G28
 -14477661.96149 -11269706.64948  19766126.4204   19766121.8304
      1390.7194
   9493779.84949   7393719.45247  21870187.5684   21870184.1544
     -2917.4844
  -8782543.18449  -6831813.60148  21751638.0684   21751631.4204
      -604.6724
  -6784811.90949  -5284199.52848  19965022.3654   19965017.8814
       256.2504
  -4858340.86549  -3784926.66647  23005678.0144   23005674.7724
      -672.1564
 -15575020.80549 -12121949.31148  21063055.7484   21063050.5764
      2414.1094
 04  9 16 22 34 44.9980000  0  6G 8G13G19G27G10G28
 -14498475.76449 -11285925.20048  19762166.0294   19762160.9794
      1384.9064
   9537588.84449   7427856.28047  21878524.4674   21878521.0614
     -2923.3124
  -8773392.36949  -6824683.09747  21753379.7564   21753372.7294
      -615.0784
  -6788611.26949  -5287160.07748  19964299.1934   19964294.3544
       250.7504
  -4848186.60649  -3777014.26447  23007609.9984   23007606.6704
      -681.4374
 -15611182.04949 -12150126.88748  21056174.4754   21056169.1234
      2407.8134
 04  9 16 22 34 59.9980000  0  6G 8G13G19G27G10G28
 -14519214.00749 -11302084.85448  19758219.6704   19758214.5454
      1379.6254
   9581473.24949   7462051.89947  21886874.7794   21886871.4364
     -2928.4534
  -8764097.76049  -6817440.54448  21755148.3504   21755141.4394
      -624.6414
  -6792339.22649  -5290064.96448  19963589.7254   19963584.9244
       245.7974
  -4837904.59149  -3769002.31747  23009566.9754   23009563.4434
      -690.0474
 -15647260.66249 -12178240.06448  21049308.7874   21049303.6744
      2402.1254
 04  9 16 22 35 14.9980000  0  6G 8G13G19G27G10G28
 -14539873.78149 -11318183.38648  19754288.2014   19754283.1784
      1374.6414
   9625435.49149   7496308.13947  21895241.0144   21895237.5024
     -2933.4694
  -8754656.85949  -6810083.99848  21756944.8344   21756938.0414
      -634.3284
  -6795993.26449  -5292912.27848  19962894.8654   19962890.0724
       241.1254
  -4827492.47449  -3760889.00047  23011548.3734   23011544.5024
      -698.5314
 -15683254.04349 -12206286.83548  21042459.6624   21042453.8934
      2396.6094
 04  9 16 22 35 29.9980000  0  6G 8G13G19G27G10G28
 -14560456.91849 -11334222.18548  19750371.1234   19750366.2524
      1369.2034
   9669473.18849   7530623.18947  21903621.4434   21903617.6354
     -2938.8444
  -8745071.94049  -6802615.22347  21758768.6394   21758762.0224
      -644.2504
  -6799575.18949  -5295703.38748  19962213.1074   19962208.2054
       235.9384
  -4816952.53549  -3752676.07747  23013554.2724   23013550.5184
      -707.3124
 -15719164.21849 -12234268.77148  21035626.0224   21035620.8544
      2390.7664
 04  9 16 22 35 44.9980000  0  7G29G 8G13G19G27G10G28
   -130675.55859    -88964.37057  23614541.0764   23614537.0414
      3639.2344
 -14580966.25749 -11350203.48548  19746468.6624   19746463.8144
      1364.8594
   9713583.27549   7564994.64847  21912014.8734   21912011.0844
     -2943.0944
  -8735345.91649  -6795036.51548  21760619.6234   21760613.1864
      -653.1254
  -6803087.73449  -5298440.43848  19961544.2484   19961539.2094
       231.8754
  -4806287.97149  -3744366.01947  23015583.6074   23015580.2564
      -715.0784
 -15754993.82749 -12262187.92248  21028808.1544   21028802.6584
      2385.9064
 04  9 16 22 35 59.9980000  0  7G29G 8G13G19G27G10G28
   -185240.05749   -131482.16047  23604157.8344   23604154.4794
      3636.0944
 -14601399.93449 -11366125.82748  19742580.1784   19742575.6744
      1359.7194
   9757766.91249   7599423.40947  21920422.7094   21920419.1824
     -2948.0314
  -8725477.25249  -6787346.64347  21762497.5374   21762491.6274
      -662.7504
  -6806529.24249  -5301122.13348  19960889.8034   19960884.2484
       227.0784
  -4795497.28349  -3735957.71047  23017636.5294   23017633.6784
      -723.5624
 -15790741.23349 -12290043.01848  21022005.5144   21022000.0724
      2380.4384
 04  9 16 22 36 14.9980000  0  7G29G 8G13G19G27G10G28
   -239757.46049   -173963.20247  23593783.8654   23593779.1624
      3632.9384
 -14621758.23449 -11381989.43048  19738705.6704   19738701.0334
      1354.7974
   9802023.47349   7633909.01247  21928844.5614   21928840.8504
     -2952.8914
  -8715466.54049  -6779546.10148  21764402.9434   21764396.0804
      -672.0474
  -6809900.04249  -5303748.72548  19960248.1394   19960243.1434
       222.4224
  -4784581.21049  -3727451.70447  23019714.4284   23019710.7874
      -731.7974
 -15826407.00949 -12317834.51248  21015218.3424   21015213.3114
      2375.0944
 04  9 16 22 36 29.9980000  0  7G29G 8G13G19G27G10G28
   -294228.48949   -216408.16046  23583418.1864   23583413.9124
      3629.8594
 -14642041.94149 -11397794.91348  19734846.1234   19734841.4084
      1349.7194
   9846351.74149   7668450.46547  21937280.0614   21937276.3464
     -2957.5784
  -8705314.72749  -6771635.59148  21766334.3894   21766327.9124
      -681.5164
  -6813200.79449  -5306320.74048  19959620.0374   19959615.4714
       217.6884
  -4773540.77949  -3718848.77947  23021815.1704   23021811.7214
      -740.1094
 -15861991.86849 -12345562.94748  21008446.7564   21008441.7294
      2369.6254
 04  9 16 22 36 44.9980000  0  8G29G 8G13G19G31G27G10G28
   -348655.80849   -258819.05747  23573059.9824   23573056.9434
      3627.2194
 -14662254.18949 -11413544.71548  19731000.1474   19730995.1314
      1345.2814
   9890748.34949   7703045.18247  21945728.4044   21945724.8934
     -2961.8594
  -8695025.15549  -6763617.74347  21768292.1004   21768285.8074
      -690.4064
   -154371.64159   -104857.38956  23426637.2094   23426635.9794
      4353.9534
  -6816434.61149  -5308840.60348  19959004.8034   19958999.7724
       213.5004
  -4762379.40149  -3710151.60347  23023938.6704   23023935.4324
      -747.9064
 -15897498.96649 -12373230.79548  21001689.8344   21001684.3934
      2364.7974
 04  9 16 22 36 59.9980000  0  8G29G 8G13G19G31G27G10G28
   -403037.09549   -301194.05747  23562712.1624   23562708.8504
      3623.8444
 -14682392.76249 -11429237.10448  19727167.5374   19727162.6434
      1340.0474
   9935215.15149   7737694.61347  21954189.8344   21954186.4944
     -2966.7974
  -8684595.87949  -6755491.04048  21770276.8894   21770270.2724
      -699.9534
   -219670.93249   -155739.80746  23414210.6074   23414209.8224
      4352.8444
  -6819599.43349  -5311306.69548  19958402.4904   19958397.9394
       208.6884
  -4751095.29349  -3701358.83947  23026086.1004   23026082.7134
      -756.2814
 -15932926.15649 -12400836.38148  20994948.4434   20994942.6704
      2359.0944
 04  9 16 22 37 14.9980000  0  8G29G 8G13G19G31G27G10G28
   -457369.90549   -343531.29147  23552371.9434   23552369.3114
      3621.0164
 -14702455.32049 -11444870.26748  19723349.8424   19723344.9364
      1335.2974
   9979753.83449   7772400.03347  21962665.7324   21962662.1474
     -2971.3444
  -8674024.93649  -6747253.94447  21772288.3814   21772282.5334
      -709.1254
   -284956.65949   -206611.67146  23401786.5374   23401786.2054
      4352.2504
  -6822692.93449  -5313717.22448  19957813.5614   19957809.2914
       204.1414
  -4739686.60349  -3692468.94747  23028257.3034   23028254.1394
      -764.3754
 -15968271.32849 -12428378.04848  20988222.6314   20988217.6074
      2353.9384
 04  9 16 22 37 29.9980000  0  8G29G 8G13G19G31G27G10G28
   -511659.40149   -385834.75246  23542041.0844   23542037.5254
      3617.3134
 -14722447.25449 -11460448.39148  19719545.8264   19719540.5064
      1329.9224
  10024358.71449   7807157.03147  21971153.8574   21971149.8074
     -2976.3594
  -8663317.94449  -6738910.84047  21774325.6154   21774319.6624
      -718.8754
   -350233.80849   -257476.81346  23389364.5224   23389363.7364
      4350.9384
  -6825720.51549  -5316076.37148  19957237.4124   19957232.7914
       199.0944
  -4728159.10849  -3683486.49847  23030451.1004   23030447.5224
      -773.0004
 -16003539.84049 -12455859.99348  20981510.9984   20981505.2724
      2348.1414
 04  9 16 22 37 44.9980000  0  8G29G 8G13G19G31G27G10G28
   -565901.41649   -428101.23647  23531720.1934   23531716.2644
      3614.0164
 -14742364.57349 -11475968.37148  19715755.3974   19715750.4394
      1324.8444
  10069033.52949   7841968.55347  21979655.3034   21979651.3814
     -2981.1094
  -8652471.08849  -6730458.74347  21776390.0374   21776383.5224
      -728.3124
   -415498.12349   -308331.99046  23376945.5064   23376944.0684
      4350.1564
  -6828678.07949  -5318380.96648  19956675.0684   19956670.2834
       194.2974
  -4716509.15349  -3674408.63247  23032668.2174   23032665.0644
      -781.2194
 -16038727.71349 -12483279.08948  20974814.8574   20974809.4674
      2342.6564
 04  9 16 22 37 59.9980000  0  8G29G 8G13G19G31G27G10G28
   -620093.04749   -470328.46447  23521406.5764   23521403.8814
      3610.9534
 -14762204.41149 -11491427.98348  19711979.9754   19711975.0764
      1319.8594
  10113780.53949   7876836.31847  21988170.5374   21988166.4514
     -2985.7664
  -8641481.93749  -6721895.77248  21778481.7324   21778475.1784
      -737.5474
   -480746.70049   -359174.93747  23364529.0534   23364528.0644
      4349.2504
  -6831562.90649  -5320628.88848  19956126.0684   19956121.0684
       189.7034
  -4704734.23149  -3665233.38847  23034908.7794   23034905.0644
      -789.3754
 -16073832.33649 -12510633.31748  20968134.5924   20968129.5804
      2337.3444
 04  9 16 22 38 14.9980000  0  8G29G 8G13G19G31G27G10G28
   -674236.93249   -512518.46746  23511104.3814   23511101.6864
      3608.0944
 -14781969.86749 -11506829.63448  19708218.6784   19708213.7214
      1315.2034
  10158596.41849   7911757.74347  21996698.5764   21996694.6434
     -2989.9694
  -8630353.50449  -6713224.26747  21780598.9904   21780592.9824
      -746.5314
   -545982.09249   -410007.55246  23352115.2954   23352113.9794
      4348.6254
  -6834377.96949  -5322822.44448  19955590.2954   19955585.3614
       185.3134
  -4692837.65749  -3655963.35047  23037172.8344   23037169.2294
      -797.0784
 -16108856.74649 -12537925.04348  20961469.6864   20961464.7054
      2332.3134
 04  9 16 22 38 29.9980000  0  8G29G 8G13G19G31G27G10G28
   -728330.19349   -554669.03147  23500811.0144   23500807.7364
      3604.7034
 -14801658.14649 -11522171.14248  19704472.3814   19704467.3504
      1310.1884
  10203483.21349   7946734.42747  22005240.1784   22005236.5644
     -2994.5944
  -8619083.42649  -6704442.39647  21782743.5534   21782737.5924
      -755.8444
   -611201.46749   -460827.72447  23339704.3504   23339703.1354
      4347.6094
  -6837120.54749  -5324959.51648  19955068.3504   19955063.7054
       180.6564
  -4680817.01549  -3646596.61247  23039460.2324   23039456.8694
      -805.1414
 -16143798.28249 -12565152.19248  20954820.4514   20954815.2014
      2326.9064
 04  9 16 22 38 44.9980000  0  8G29G 8G13G19G31G27G10G28
   -782375.98249   -596782.64547  23490526.6154   23490521.8934
      3601.5314
 -14821272.39249 -11537454.96648  19700739.7954   19700735.1154
      1305.3134
  10248437.63149   7981763.80847  22013794.7324   22013791.3114
     -2999.0164
  -8607675.36949  -6695552.99947  21784914.2954   21784908.3144
      -764.9374
   -676408.03949   -511637.91746  23327296.0454   23327294.5454
      4346.9384
  -6839793.99549  -5327042.72548  19954559.5064   19954554.9204
       176.0634
  -4668675.97649  -3637136.07547  23041770.3654   23041767.3034
      -813.2504
 -16178660.42549 -12592317.47548  20948186.6234   20948181.1004
      2321.6564
 04  9 16 22 38 59.9980000  0  8G29G 8G13G19G31G27G10G28
   -836374.40349   -638859.26447  23480251.0294   23480247.1824
      3598.2664
 -14840812.89449 -11552681.33048  19697021.2724   19697016.7754
      1300.1884
  10293458.99349   8016845.34047  22022361.8814   22022358.6314
     -3003.7194
  -8596129.75049  -6686556.41748  21787111.5614   21787105.3814
      -774.3914
   -741601.56349   -562437.93147  23314889.7794   23314888.7134
      4345.7504
  -6842398.55949  -5329072.25548  19954063.9674   19954058.9244
       171.3134
  -4656415.19949  -3627582.25247  23044103.5064   23044100.1824
      -821.5624
 -16213443.29649 -12619420.98848  20941567.6864   20941562.2754
      2316.1724
 04  9 16 22 39 14.9980000  0  8G29G 8G13G19G31G27G10G28
   -890324.16849   -680898.01047  23469983.4364   23469980.1894
      3595.2504
 -14860278.92249 -11567849.66648  19693317.3264   19693311.9124
      1295.4534
  10338547.77949   8051979.42547  22030942.1784   22030939.0414
     -3007.9374
  -8584445.75349  -6677452.01048  21789335.1074   21789328.6934
      -783.3594
   -806780.95949   -613226.98247  23302486.9044   23302484.9904
      4345.0004
  -6844933.29249  -5331047.38548  19953581.8974   19953576.8734
       166.8284
  -4644034.13649  -3617934.69947  23046459.6314   23046456.0334
      -829.2194
 -16248146.14949 -12646462.16448  20934963.9124   20934958.3144
      2311.0634
 04  9 16 22 39 29.9980000  0  8G29G 8G13G19G31G27G10G28
   -944224.29449   -722898.07847  23459727.3504   23459723.7364
      3591.7664
 -14879669.44849 -11582959.15748  19689627.1864   19689622.4124
      1290.2344
  10383704.39549   8087166.35247  22039535.1474   22039531.6934
     -3012.7344
  -8572622.97049  -6668239.45347  21791584.9984   21791578.3304
      -792.7974
   -871945.08849   -664004.09147  23290085.9824   23290084.6584
      4343.8284
  -6847397.30349  -5332967.39648  19953112.9514   19953108.2134
       161.9224
  -4631532.22649  -3608192.95647  23048838.8424   23048835.5184
      -837.5624
 -16282768.25649 -12673440.40548  20928375.4904   20928370.4364
      2305.5164
 04  9 16 22 39 44.9980000  0  8G29G 8G13G19G31G27G10G28
   -998078.70049   -764862.53747  23449478.9124   23449475.4124
      3589.1254
 -14898988.58849 -11598013.02748  19685950.8504   19685945.9434
      1285.8914
  10428924.31549   8122402.61747  22048140.4674   22048137.0144
     -3016.3914
  -8560665.71949  -6658922.10947  21793860.2404   21793853.8614
      -801.2344
   -937098.00449   -714772.49947  23277687.9754   23277686.3304
      4343.4384
  -6849794.71849  -5334835.50548  19952656.3734   19952651.7834
       158.0314
  -4618914.07749  -3598360.64347  23051239.9674   23051236.6434
      -844.6564
 -16317313.84949 -12700359.02248  20921801.7794   20921796.1354
      2300.8914
 04  9 16 22 39 59.9980000  0  8G29G 8G13G19G31G27G10G28
  -1051887.77449   -806791.66647  23439240.0064   23439235.8774
      3585.5474
 -14918237.13049 -11613011.88448  19682287.7324   19682282.8694
      1280.6884
  10474206.69249   8157687.54847  22056757.3574   22056753.6784
     -3021.0624
  -8548574.80549  -6649500.61848  21796161.0144   21796154.5294
      -810.6874
  -1002239.83649   -765532.26246  23265291.9984   23265290.6074
      4342.1884
  -6852126.14849  -5336652.20448  19952212.8894   19952207.8614
       153.0784
  -4606180.54649  -3588438.43247  23053662.6314   23053659.7484
      -852.9064
 -16351783.34449 -12727218.36348  20915242.3504   20915237.2524
      2295.2974
 04  9 16 22 40 14.9980000  0  8G29G 8G13G19G31G27G10G28
  -1105647.51449   -848682.30546  23429009.2794   23429005.4824
      3581.9844
 -14937410.67749 -11627952.30248  19678639.3034   19678634.3694
      1275.4064
  10519554.97549   8193023.84047  22065386.7564   22065383.6544
     -3025.6874
  -8536346.66249  -6639972.20048  21798487.6864   21798481.6194
      -820.1094
  -1067366.46249   -816280.17947  23252898.0614   23252897.5844
      4340.9844
  -6854387.61449  -5338414.38048  19951782.6784   19951778.2444
       148.1094
  -4593328.07649  -3578423.52947  23056108.6544   23056105.5414
      -861.0624
 -16386172.98849 -12754015.46348  20908697.9754   20908692.7564
      2289.7344
 04  9 16 22 40 29.9980000  0  8G29G 8G13G19G31G27G10G28
  -1159358.71149   -890535.16347  23418788.3814   23418784.6624
      3579.2504
 -14956510.45249 -11642835.24148  19675004.7954   19674999.6784
      1271.0314
  10564967.60349   8228410.25147  22074028.7094   22074025.0804
     -3029.5624
  -8523982.54549  -6630337.82348  21800840.7014   21800834.5254
      -828.6724
  -1132478.90049   -867017.02547  23240507.3734   23240506.1704
      4340.4694
  -6856580.32549  -5340122.99748  19951365.4984   19951360.5294
       143.9844
  -4580358.26649  -3568317.21347  23058576.4514   23058573.4004
      -868.4064
 -16420484.09049 -12780751.37148  20902168.6784   20902163.0024
      2284.9224
 04  9 16 22 40 44.9980000  0  8G29G 8G13G19G31G27G10G28
  -1213024.37449   -932352.58846  23408576.0144   23408572.4554
      3576.2814
 -14975539.95749 -11657663.42148  19671383.8734   19671378.1044
      1266.3914
  10610440.88249   8263843.92847  22082681.6784   22082678.5764
     -3033.5474
  -8511486.00449  -6620600.26547  21803218.5614   21803212.4554
      -837.4064
  -1197580.14049   -917745.14447  23228119.2324   23228118.2794
      4339.8134
  -6858707.49049  -5341780.53448  19950960.7404   19950955.3424
       139.7504
  -4567274.70649  -3558122.21447  23061066.3264   23061063.7014
      -876.0314
 -16454720.03949 -12807428.71648  20895654.3734   20895648.9474
      2279.9534
 04  9 16 22 40 59.9980000  0  8G29G 8G13G19G31G27G10G28
  -1266643.23249   -974133.48046  23398373.3814   23398368.5684
      3572.9694
 -14994497.97249 -11672435.89548  19667776.0924   19667771.0294
      1261.4694
  10655975.69349   8299325.56047  22091347.0764   22091344.1274
     -3037.7504
  -8498856.06249  -6610758.75047  21805622.0454   21805615.8384
      -846.4844
  -1262668.62549   -968463.32347  23215733.7094   23215731.7444
      4338.7664
  -6860767.99849  -5343386.11348  19950568.5144   19950563.2754
       135.0944
  -4554076.54349  -3547837.97847  23063578.5844   23063574.4244
      -883.7034
 -16488879.52749 -12834046.47148  20889153.5534   20889148.3144
      2274.7034
 04  9 16 22 41 14.9980000  0  8G29G 8G13G19G31G27G10G28
  -1320215.55349  -1015878.11246  23388178.7954   23388174.3894
      3569.6094
 -15013384.74249 -11687152.86248  19664181.9514   19664177.2794
      1256.4064
  10701571.02749   8334854.34747  22100023.1934   22100020.1434
     -3042.0004
  -8486093.74049  -6600814.09447  21808050.4044   21808044.7444
      -855.5314
  -1327744.76549  -1019171.93147  23203349.7404   23203348.3464
      4337.7034
  -6862762.42749  -5344940.22848  19950188.7254   19950183.9514
       130.4384
  -4540764.71049  -3537465.15847  23066111.7484   23066108.1784
      -891.5314
 -16522963.28649 -12860605.23248  20882667.9984   20882662.6664
      2269.4064
 04  9 16 22 41 29.9980000  0  8G29G 8G13G19G31G27G10G28
  -1373741.12949  -1057586.37547  23377992.3034   23377988.6744
      3566.8134
 -15032200.16249 -11701814.21248  19660601.4514   19660596.9004
      1252.0474
  10747226.64349   8370430.11247  22108711.2564   22108707.9394
     -3045.6414
  -8473198.98249  -6590766.22747  21810504.7094   21810498.5644
      -864.0474
  -1392808.17649  -1069870.56747  23190968.1624   23190967.2724
      4337.2344
  -6864690.55449  -5346442.65448  19949821.5684   19949816.9284
       126.3754
  -4527339.50049  -3527003.96947  23068665.8264   23068663.2364
      -898.7034
 -16556971.38449 -12887105.02948  20876196.3424   20876191.1194
      2264.7194
 04  9 16 22 41 44.9980000  0  8G29G 8G13G19G31G27G10G28
  -1427219.47149  -1099257.79247  23367816.4204   23367812.4044
      3563.5314
 -15050944.05449 -11716419.83748  19657034.5844   19657030.0764
      1247.1094
  10792942.38949   8406052.73347  22117411.0844   22117407.7404
     -3049.7814
  -8460171.97949  -6580615.32547  21812983.1864   21812976.9364
      -873.0004
  -1457858.49349  -1120559.04147  23178589.7014   23178588.6934
      4336.0784
  -6866552.20949  -5347893.29548  19949467.3814   19949462.6114
       121.8444
  -4513801.03249  -3516454.54447  23071241.9124   23071238.9714
      -906.4374
 -16590903.53849 -12913545.64948  20869739.4124   20869733.7524
      2259.5164
 04  9 16 22 41 59.9980000  0  8G29G 8G13G19G31G27G10G28
  -1480651.68349  -1140893.24947  23357648.8574   23357644.5924
      3560.2814
 -15069617.79449 -11730970.80648  19653481.2094   19653476.1544
      1242.2664
  10838716.57749   8441720.87647  22126121.0924   22126118.1974
     -3053.8754
  -8447014.14649  -6570362.46947  21815487.1704   21815480.7724
      -881.8914
  -1522896.57749  -1171237.94747  23166213.6004   23166212.0454
      4335.2344
  -6868348.67549  -5349293.13848  19949125.6704   19949121.0924
       117.2814
  -4500150.94949  -3505818.14347  23073839.9364   23073836.3854
      -913.9844
 -16624761.14349 -12939928.17648  20863296.2014   20863291.1394
      2254.3444
 04  9 16 22 42 14.9980000  0  8G29G 8G13G19G31G27G10G28
  -1534032.61849  -1182488.77347  23347490.5614   23347486.7484
      3557.0004
 -15088216.41149 -11745463.22948  19649942.2564   19649936.9754
      1237.4844
  10884553.75049   8477438.10747  22134843.9124   22134841.5454
     -3057.8594
  -8433720.91649  -6560004.11448  21818016.6074   21818010.6624
      -890.6564
  -1587917.40149  -1221903.44647  23153839.8974   23153838.9364
      4334.1724
  -6870074.99149  -5350638.32048  19948797.2794   19948792.1074
       112.8284
  -4486384.72249  -3495091.20047  23076459.3654   23076456.2014
      -921.5624
 -16658539.35549 -12966248.84548  20856868.2644   20856862.8304
      2249.2664
 04  9 16 22 42 29.9980000  0  8G29G 8G13G19G31G27G10G28
  -1587359.00749  -1224041.77847  23337342.3654   23337339.1234
      3553.7974
 -15106736.55549 -11759894.51048  19646417.8424   19646412.9394
      1232.5314
  10930456.52249   8513206.45647  22143579.3184   22143575.9164
     -3061.9224
  -8420289.37749  -6549537.97847  21820572.5534   21820566.2174
      -899.5784
  -1652917.56449  -1272552.80247  23141470.7014   23141469.3814
      4333.1414
  -6871728.03949  -5351926.41448  19948482.8814   19948477.6434
       108.1564
  -4472499.56349  -3484271.63647  23079101.9284   23079098.0924
      -929.2194
 -16692235.02049 -12992505.19648  20850456.6704   20850451.1544
      2244.0784
 04  9 16 22 42 44.9980000  0  8G29G 8G13G19G31G27G10G28
  -1640645.82649  -1265563.94747  23327202.6154   23327197.9904
      3551.0004
 -15125193.61649 -11774276.62648  19642905.1704   19642900.4794
      1228.2974
  10976409.30349   8549013.78347  22152323.3974   22152320.1074
     -3065.2974
  -8406735.07649  -6538976.19147  21823152.4284   21823145.8504
      -907.7664
  -1717912.07849  -1323197.78247  23129102.3344   23129101.4754
      4332.6254
  -6873323.21949  -5353169.40748  19948178.9904   19948174.2214
       104.2664
  -4458511.09849  -3473371.55047  23081763.4434   23081760.1894
      -936.0944
 -16725863.66249 -13018709.29948  20844056.5924   20844051.6864
      2239.6414
 04  9 16 22 42 59.9980000  0  8G29G 8G13G19G31G27G10G28
  -1693884.83349  -1307048.89647  23317071.7254   23317067.6744
      3547.7344
 -15143579.71249 -11788603.45248  19639406.6394   19639401.6194
      1223.4844
  11022419.78449   8584866.06147  22161078.8504   22161075.9514
     -3069.2034
  -8393050.35149  -6528312.77347  21825756.2484   21825750.2524
      -916.5314
  -1782892.74249  -1373831.98047  23116737.3114   23116736.1394
      4331.7504
  -6874852.36149  -5354360.95348  19947888.1004   19947883.7094
        99.8134
  -4444411.78049  -3462385.08147  23084446.6624   23084443.2954
      -943.5004
 -16759417.22849 -13044854.92848  20837671.7954   20837666.9904
      2234.5314
 04  9 16 22 43 14.9980000  0  8G29G 8G13G19G31G27G10G28
  -1747075.19749  -1348495.87747  23306949.6864   23306945.6584
      3544.3284
 -15161894.00449 -11802874.32948  19635921.4754   19635916.4434
      1218.4694
  11068488.36849   8620763.61747  22169845.9284   22169842.4944
     -3073.1874
  -8379234.67249  -6517547.32747  21828385.0294   21828378.7364
      -925.3914
  -1847858.49049  -1424454.54947  23104374.3574   23104373.1894
      4330.4534
  -6876314.86949  -5355500.57648  19947609.7404   19947604.8184
        95.1884
  -4430201.18849  -3451311.91847  23087150.9824   23087148.1044
      -951.2194
 -16792895.11849 -13070941.58048  20831301.3574   20831295.5844
      2229.3444
 04  9 16 22 43 29.9980000  0  8G29G 8G13G19G31G27G10G28
  -1800218.29449  -1389906.03547  23296836.6784   23296832.7054
      3541.2194
 -15180138.09749 -11817090.49548  19632449.6154   19632445.0254
      1213.9224
  11114612.91849   8656704.77847  22178623.4754   22178619.7914
     -3076.9224
  -8365289.90349  -6506681.27447  21831039.1074   21831032.7174
      -934.0314
  -1912810.64549  -1475066.53047  23092014.3344   23092013.2294
      4329.5784
  -6877712.19149  -5356589.38748  19947343.9594   19947339.0414
        90.9534
  -4415881.32949  -3440153.61347  23089875.8654   23089872.3344
      -958.3594
 -16826299.00849 -13096970.56948  20824944.7254   20824939.3114
      2224.4224
 04  9 16 22 43 44.9980000  0  8G29G 8G13G19G31G27G10G28
  -1853312.05949  -1431277.80547  23286733.2794   23286729.6974
      3537.9694
 -15198310.02749 -11831250.44048  19628991.6784   19628986.7754
      1209.0314
  11160794.79149   8692690.60647  22187411.2954   22187407.6894
     -3080.7504
  -8351214.50049  -6495713.43147  21833717.3504   21833711.4674
      -942.7194
  -1977747.24649  -1525666.35347  23079657.9204   23079656.3424
      4328.5474
  -6879042.58449  -5357626.06448  19947091.3504   19947086.0574
        86.4384
  -4401450.78249  -3428909.03547  23092622.0844   23092618.6824
      -965.6724
 -16859627.25849 -13122940.61648  20818602.5614   20818597.3504
      2219.3444
 04  9 16 22 43 59.9980000  0  8G29G 8G13G19G31G27G10G28
  -1906362.08049  -1472615.45947  23276638.1864   23276634.1354
      3534.7974
 -15216415.54349 -11845358.63648  19625546.5614   19625541.1974
      1204.4224
  11207027.95649   8728716.41047  22196209.3034   22196206.1044
     -3084.3754
  -8337014.45849  -6484648.46047  21836419.1704   21836413.0414
      -951.2344
  -2042673.79649  -1576258.40247  23067302.2644   23067300.7054
      4327.6254
  -6880311.77349  -5358615.04148  19946849.3894   19946844.2254
        82.1254
  -4386915.67949  -3417583.00447  23095387.7644   23095384.9904
      -972.7974
 -16892885.55749 -13148856.15548  20812273.9984   20812268.5724
      2214.4844
 04  9 16 22 44 14.9980000  0  8G29G 8G13G19G31G27G10G28
  -1959364.75749  -1513916.20747  23266552.3894   23266548.0104
      3531.9844
 -15234451.34049 -11859412.49448  19622114.2404   19622109.5724
      1200.1564
  11253315.20749   8764784.36247  22205017.3184   22205014.0724
     -3087.5784
  -8322686.77449  -6473484.03547  21839145.8344   21839139.6474
      -959.3594
  -2107586.68249  -1626839.75247  23054949.5454   23054948.0724
      4327.1414
  -6881516.49649  -5359553.79148  19946620.1704   19946614.9634
        78.2664
  -4372273.09949  -3406173.21047  23098174.1004   23098171.4394
      -979.6254
 -16926070.63449 -13174714.63848  20805958.7954   20805953.5884
      2209.9694
 04  9 16 22 44 29.9980000  0  8G29G 8G13G19G31G27G10G28
  -2012323.23349  -1555182.54547  23256474.6234   23256470.4674
      3529.0004
 -15252420.61649 -11873414.53848  19618695.1624   19618689.9394
      1195.6884
  11299652.94449   8800891.64847  22213835.5924   22213831.6234
     -3090.9374
  -8308234.95049  -6462222.88247  21841896.2874   21841889.8114
      -967.6414
  -2172488.89549  -1677412.83147  23042598.8034   23042597.4634
      4326.3594
  -6882660.01649  -5360444.84348  19946402.6474   19946397.4434
        74.1564
  -4357526.64749  -3394682.50747  23100980.3654   23100977.2404
      -986.5944
 -16959185.84749 -13200518.67748  20799657.3574   20799651.8144
      2205.3134
 04  9 16 22 44 44.9980000  0  8G29G 8G13G19G31G27G10G28
  -2065233.30749  -1596411.17247  23246406.1314   23246401.4984
      3525.3444
 -15270319.51849 -11887361.72148  19615288.6864   19615283.9284
      1190.4064
  11346044.72649   8837041.04247  22222663.6784   22222660.0104
     -3095.0474
  -8293655.39649  -6450862.19547  21844670.3814   21844664.0644
      -976.7814
  -2237376.29449  -1727974.34847  23030252.2324   23030249.7874
      4324.8284
  -6883738.39949  -5361285.14648  19946197.2564   19946192.7014
        69.2034
  -4342672.87449  -3383108.17247  23103807.2564   23103803.7834
      -994.2974
 -16992227.51349 -13226265.40748  20793369.6314   20793363.7254
      2199.8444
 04  9 16 22 44 59.9980000  0  8G29G 8G13G19G31G27G10G28
  -2118088.28549  -1637596.85947  23236348.2724   23236344.2134
      3522.1414
 -15288141.29249 -11901248.82548  19611897.5684   19611892.1544
      1185.7814
  11392496.85349   8873237.45447  22231502.7254   22231499.6584
     -3098.5944
  -8278941.73149  -6439397.02147  21847470.0144   21847464.0414
      -985.0624
  -2302242.07249  -1778518.99047  23017908.1474   23017905.9674
      4323.8594
  -6884745.08549  -5362069.57948  19946006.0534   19946000.7874
        64.9694
  -4327705.47949  -3371445.29347  23106655.3734   23106652.2834
     -1001.3284
 -17025189.02049 -13251949.69448  20787097.1074   20787091.6434
      2195.0634
